
Distance (Route):
Temperature : 15.9°C
Humidity : 71.3%
Pressure : 0hPa| Receiver | Frames | First received | Last received |
|---|---|---|---|
| LZ4TU-5 | 1478 | 2026-09-01 11:26:20 | 2026-09-02 05:49:32 |
| Receiver | Date | Latitude | Longitude | Direction | Speed | Altitude | Climb | Temperature | Humidity | Pressure | Voltage | Killtimer | Uptime | BKT | XDATA |
|---|---|---|---|---|---|---|---|---|---|---|---|---|---|---|---|
| LZ4TU-5 | 2026-09-02 05:49:32 | 43.30621 | 22.84771 | 0° | 0km/h | 1644m | 0.0m/s | 15.9°C | 71.3% | 0hPa | 0V | 00:00:00 | 00:00:00 | 00:00:00 | |
| LZ4TU-5 | 2026-09-02 05:23:46 | 43.30621 | 22.84771 | 0° | 0km/h | 1644m | 0.0m/s | 15.3°C | 80.1% | 0hPa | 0V | 00:00:00 | 00:00:00 | 00:00:00 | |
| LZ4TU-5 | 2026-09-02 05:23:42 | 43.30621 | 22.84771 | 0° | 0km/h | 1644m | 0.0m/s | 15.0°C | 79.7% | 0hPa | 0V | 00:00:00 | 00:00:00 | 00:00:00 | |
| LZ4TU-5 | 2026-09-02 05:23:37 | 43.30621 | 22.84771 | 0° | 0km/h | 1644m | 0.0m/s | 14.8°C | 79.0% | 0hPa | 0V | 00:00:00 | 00:00:00 | 00:00:00 | |
| LZ4TU-5 | 2026-09-02 05:23:11 | 43.30621 | 22.84771 | 0° | 0km/h | 1644m | 0.0m/s | 15.0°C | 77.6% | 0hPa | 0V | 00:00:00 | 00:00:00 | 00:00:00 | |
| LZ4TU-5 | 2026-09-02 05:23:07 | 43.30621 | 22.84771 | 0° | 0km/h | 1644m | 0.0m/s | 15.2°C | 77.1% | 0hPa | 0V | 00:00:00 | 00:00:00 | 00:00:00 | |
| LZ4TU-5 | 2026-09-02 05:23:02 | 43.30621 | 22.84771 | 0° | 0km/h | 1644m | 0.0m/s | 15.4°C | 100.0% | 0hPa | 0V | 00:00:00 | 00:00:00 | 00:00:00 | |
| LZ4TU-5 | 2026-09-02 05:22:00 | 43.30621 | 22.84771 | 0° | 0km/h | 1644m | 0.0m/s | 16.2°C | 77.7% | 0hPa | 0V | 00:00:00 | 00:00:00 | 00:00:00 | |
| LZ4TU-5 | 2026-09-02 05:21:55 | 43.30621 | 22.84771 | 0° | 0km/h | 1644m | 0.0m/s | 15.9°C | 77.8% | 0hPa | 0V | 00:00:00 | 00:00:00 | 00:00:00 | |
| LZ4TU-5 | 2026-09-02 05:20:53 | 43.30621 | 22.84771 | 0° | 0km/h | 1644m | 0.0m/s | 15.4°C | 77.6% | 0hPa | 0V | 00:00:00 | 00:00:00 | 00:00:00 | |
| LZ4TU-5 | 2026-09-02 05:20:48 | 43.30621 | 22.84771 | 0° | 0km/h | 1644m | 0.0m/s | 14.9°C | 77.3% | 0hPa | 0V | 00:00:00 | 00:00:00 | 00:00:00 | |
| LZ4TU-5 | 2026-09-02 05:19:47 | 43.30621 | 22.84771 | 0° | 0km/h | 1644m | 0.0m/s | 15.1°C | 79.6% | 0hPa | 0V | 00:00:00 | 00:00:00 | 00:00:00 | |
| LZ4TU-5 | 2026-09-02 05:19:42 | 43.30621 | 22.84771 | 0° | 0km/h | 1644m | 0.0m/s | 15.4°C | 76.7% | 0hPa | 0V | 00:00:00 | 00:00:00 | 00:00:00 | |
| LZ4TU-5 | 2026-09-02 05:18:23 | 43.30621 | 22.84771 | 0° | 0km/h | 1644m | 0.0m/s | 13.7°C | 82.4% | 0hPa | 0V | 00:00:00 | 00:00:00 | 00:00:00 | |
| LZ4TU-5 | 2026-09-02 05:18:18 | 43.30621 | 22.84771 | 0° | 0km/h | 1644m | 0.0m/s | 13.4°C | 81.4% | 0hPa | 0V | 00:00:00 | 00:00:00 | 00:00:00 | |
| LZ4TU-5 | 2026-09-02 05:16:22 | 43.30621 | 22.84771 | 0° | 0km/h | 1644m | -0.0m/s | 14.1°C | 76.5% | 0hPa | 0V | 00:00:00 | 00:00:00 | 00:00:00 | |
| LZ4TU-5 | 2026-09-02 05:16:17 | 43.30621 | 22.84771 | 0° | 0km/h | 1644m | 0.0m/s | 14.7°C | 76.4% | 0hPa | 0V | 00:00:00 | 00:00:00 | 00:00:00 | |
| LZ4TU-5 | 2026-09-02 05:15:22 | 43.30621 | 22.84771 | 0° | 0km/h | 1644m | 0.0m/s | 14.4°C | 77.3% | 0hPa | 0V | 00:00:00 | 00:00:00 | 00:00:00 | |
| LZ4TU-5 | 2026-09-02 05:15:17 | 43.30621 | 22.84771 | 0° | 0km/h | 1644m | 0.0m/s | 14.2°C | 0% | 0hPa | 0V | 00:00:00 | 00:00:00 | 00:00:00 | |
| LZ4TU-5 | 2026-09-02 05:13:20 | 43.30621 | 22.84771 | 0° | 0km/h | 1644m | 0.0m/s | 14.7°C | 76.1% | 0hPa | 0V | 00:00:00 | 00:00:00 | 00:00:00 | |
| LZ4TU-5 | 2026-09-02 05:13:15 | 43.30621 | 22.84771 | 0° | 0km/h | 1644m | 0.0m/s | 15.6°C | 0% | 0hPa | 0V | 00:00:00 | 00:00:00 | 00:00:00 | |
| LZ4TU-5 | 2026-09-02 05:12:20 | 43.30621 | 22.84771 | 0° | 0km/h | 1644m | 0.0m/s | 14.4°C | 75.3% | 0hPa | 0V | 00:00:00 | 00:00:00 | 00:00:00 | |
| LZ4TU-5 | 2026-09-02 05:10:19 | 43.30621 | 22.84771 | 0° | 0km/h | 1644m | 0.0m/s | 14.9°C | 76.5% | 0hPa | 0V | 00:00:00 | 00:00:00 | 00:00:00 | |
| LZ4TU-5 | 2026-09-02 05:08:01 | 43.30621 | 22.84771 | 0° | 0km/h | 1644m | 0.0m/s | 15.2°C | 77.8% | 0hPa | 0V | 00:00:00 | 00:00:00 | 00:00:00 | |
| LZ4TU-5 | 2026-09-02 05:07:00 | 43.30621 | 22.84771 | 0° | 0km/h | 1644m | 0.0m/s | 14.9°C | 0% | 0hPa | 0V | 00:00:00 | 00:00:00 | 00:00:00 | |
| LZ4TU-5 | 2026-09-02 05:05:02 | 43.30621 | 22.84771 | 0° | 0km/h | 1644m | 0.0m/s | 14.9°C | 80.4% | 0hPa | 0V | 00:00:00 | 00:00:00 | 00:00:00 | |
| LZ4TU-5 | 2026-09-02 05:04:57 | 43.30621 | 22.84771 | 0° | 0km/h | 1644m | -0.0m/s | 15.2°C | 0% | 0hPa | 0V | 00:00:00 | 00:00:00 | 00:00:00 | |
| LZ4TU-5 | 2026-09-02 05:04:00 | 43.30621 | 22.84771 | 0° | 0km/h | 1644m | 0.0m/s | 15.0°C | 83.8% | 0hPa | 0V | 00:00:00 | 00:00:00 | 00:00:00 | |
| LZ4TU-5 | 2026-09-02 05:03:56 | 43.30621 | 22.84771 | 0° | 0km/h | 1644m | 0.0m/s | 14.3°C | 84.5% | 0hPa | 0V | 00:00:00 | 00:00:00 | 00:00:00 | |
| LZ4TU-5 | 2026-09-02 05:03:01 | 43.30621 | 22.84771 | 0° | 0km/h | 1644m | 0.0m/s | 14.1°C | 86.0% | 0hPa | 0V | 00:00:00 | 00:00:00 | 00:00:00 | |
| LZ4TU-5 | 2026-09-02 05:02:57 | 43.30621 | 22.84771 | 0° | 0km/h | 1644m | 0.0m/s | 13.9°C | 86.2% | 0hPa | 0V | 00:00:00 | 00:00:00 | 00:00:00 | |
| LZ4TU-5 | 2026-09-02 05:02:52 | 43.30621 | 22.84771 | 0° | 0km/h | 1644m | 0.0m/s | 14.7°C | 86.4% | 0hPa | 0V | 00:00:00 | 00:00:00 | 00:00:00 | |
| LZ4TU-5 | 2026-09-02 05:02:48 | 43.30621 | 22.84771 | 0° | 0km/h | 1644m | 0.0m/s | 14.2°C | 0% | 0hPa | 0V | 00:00:00 | 00:00:00 | 00:00:00 | |
| LZ4TU-5 | 2026-09-02 05:01:52 | 43.30621 | 22.84771 | 0° | 0km/h | 1644m | 0.0m/s | 13.8°C | 86.9% | 0hPa | 0V | 00:00:00 | 00:00:00 | 00:00:00 | |
| LZ4TU-5 | 2026-09-02 05:01:48 | 43.30621 | 22.84771 | 0° | 0km/h | 1644m | 0.0m/s | 14.5°C | 87.3% | 0hPa | 0V | 00:00:00 | 00:00:00 | 00:00:00 | |
| LZ4TU-5 | 2026-09-02 05:01:42 | 43.30621 | 22.84771 | 0° | 0km/h | 1644m | 0.0m/s | 13.7°C | 87.6% | 0hPa | 0V | 00:00:00 | 00:00:00 | 00:00:00 | |
| LZ4TU-5 | 2026-09-02 05:01:38 | 43.30621 | 22.84771 | 0° | 0km/h | 1644m | 0.0m/s | 13.7°C | 87.6% | 0hPa | 0V | 00:00:00 | 00:00:00 | 00:00:00 | |
| LZ4TU-5 | 2026-09-02 05:01:33 | 43.30621 | 22.84771 | 0° | 0km/h | 1644m | 0.0m/s | 13.8°C | 87.2% | 0hPa | 0V | 00:00:00 | 00:00:00 | 00:00:00 | |
| LZ4TU-5 | 2026-09-02 05:00:38 | 43.30621 | 22.84771 | 0° | 0km/h | 1644m | -0.0m/s | 13.9°C | 88.8% | 0hPa | 0V | 00:00:00 | 00:00:00 | 00:00:00 | |
| LZ4TU-5 | 2026-09-02 05:00:33 | 43.30621 | 22.84771 | 0° | 0km/h | 1644m | 0.0m/s | 13.7°C | 0% | 0hPa | 0V | 00:00:00 | 00:00:00 | 00:00:00 | |
| LZ4TU-5 | 2026-09-02 04:59:32 | 43.30621 | 22.84771 | 0° | 0km/h | 1644m | 0.0m/s | 13.4°C | 89.7% | 0hPa | 0V | 00:00:00 | 00:00:00 | 00:00:00 | |
| LZ4TU-5 | 2026-09-02 04:58:37 | 43.30621 | 22.84771 | 0° | 0km/h | 1644m | 0.0m/s | 13.3°C | 90.8% | 0hPa | 0V | 00:00:00 | 00:00:00 | 00:00:00 | |
| LZ4TU-5 | 2026-09-02 04:58:33 | 43.30621 | 22.84771 | 0° | 0km/h | 1644m | 0.0m/s | 13.1°C | 91.0% | 0hPa | 0V | 00:00:00 | 00:00:00 | 00:00:00 | |
| LZ4TU-5 | 2026-09-02 04:58:27 | 43.30621 | 22.84771 | 0° | 0km/h | 1644m | 0.0m/s | 13.1°C | 91.2% | 0hPa | 0V | 00:00:00 | 00:00:00 | 00:00:00 | |
| LZ4TU-5 | 2026-09-02 04:58:22 | 43.30621 | 22.84771 | 0° | 0km/h | 1644m | 0.0m/s | 13.1°C | 91.3% | 0hPa | 0V | 00:00:00 | 00:00:00 | 00:00:00 | |
| LZ4TU-5 | 2026-09-02 04:58:17 | 43.30621 | 22.84771 | 0° | 0km/h | 1644m | -0.0m/s | 13.1°C | 0% | 0hPa | 0V | 00:00:00 | 00:00:00 | 00:00:00 | |
| LZ4TU-5 | 2026-09-02 04:57:20 | 43.30621 | 22.84771 | 0° | 0km/h | 1644m | 0.0m/s | 12.6°C | 92.7% | 0hPa | 0V | 00:00:00 | 00:00:00 | 00:00:00 | |
| LZ4TU-5 | 2026-09-02 04:57:16 | 43.30621 | 22.84771 | 0° | 0km/h | 1644m | 0.0m/s | 12.8°C | 93.1% | 0hPa | 0V | 00:00:00 | 00:00:00 | 00:00:00 | |
| LZ4TU-5 | 2026-09-02 04:56:20 | 43.30621 | 22.84771 | 0° | 0km/h | 1644m | 0.0m/s | 12.7°C | 93.7% | 0hPa | 0V | 00:00:00 | 00:00:00 | 00:00:00 | |
| LZ4TU-5 | 2026-09-02 04:56:16 | 43.30621 | 22.84771 | 0° | 0km/h | 1644m | 0.0m/s | 12.4°C | 0% | 0hPa | 0V | 00:00:00 | 00:00:00 | 00:00:00 | |
| LZ4TU-5 | 2026-09-02 04:55:19 | 43.30621 | 22.84771 | 0° | 0km/h | 1644m | 0.0m/s | 12.1°C | 93.1% | 0hPa | 0V | 00:00:00 | 00:00:00 | 00:00:00 | |
| LZ4TU-5 | 2026-09-02 04:55:14 | 43.30621 | 22.84771 | 0° | 0km/h | 1644m | 0.0m/s | 12.1°C | 93.1% | 0hPa | 0V | 00:00:00 | 00:00:00 | 00:00:00 | |
| LZ4TU-5 | 2026-09-02 04:54:18 | 43.30621 | 22.84771 | 0° | 0km/h | 1644m | 0.0m/s | 12.0°C | 93.7% | 0hPa | 0V | 00:00:00 | 00:00:00 | 00:00:00 | |
| LZ4TU-5 | 2026-09-02 04:54:14 | 43.30621 | 22.84771 | 0° | 0km/h | 1644m | 0.0m/s | 12.2°C | 93.9% | 0hPa | 0V | 00:00:00 | 00:00:00 | 00:00:00 | |
| LZ4TU-5 | 2026-09-02 04:54:09 | 43.30621 | 22.84771 | 0° | 0km/h | 1644m | 0.0m/s | 12.2°C | 94.0% | 0hPa | 0V | 00:00:00 | 00:00:00 | 00:00:00 | |
| LZ4TU-5 | 2026-09-02 04:53:54 | 43.30621 | 22.84771 | 0° | 0km/h | 1644m | 0.0m/s | 12.1°C | 93.9% | 0hPa | 0V | 00:00:00 | 00:00:00 | 00:00:00 | |
| LZ4TU-5 | 2026-09-02 04:53:47 | 43.30621 | 22.84771 | 0° | 0km/h | 1644m | 0.0m/s | 12.4°C | 94.0% | 0hPa | 0V | 00:00:00 | 00:00:00 | 00:00:00 | |
| LZ4TU-5 | 2026-09-02 04:51:33 | 43.30621 | 22.84771 | 0° | 0km/h | 1644m | 0.0m/s | 11.7°C | 94.0% | 0hPa | 0V | 00:00:00 | 00:00:00 | 00:00:00 | |
| LZ4TU-5 | 2026-09-02 04:51:28 | 43.30621 | 22.84771 | 0° | 0km/h | 1644m | 0.0m/s | 11.8°C | 0% | 0hPa | 0V | 00:00:00 | 00:00:00 | 00:00:00 | |
| LZ4TU-5 | 2026-09-02 04:50:31 | 43.30621 | 22.84771 | 0° | 0km/h | 1644m | 0.0m/s | 11.8°C | 94.2% | 0hPa | 0V | 00:00:00 | 00:00:00 | 00:00:00 | |
| LZ4TU-5 | 2026-09-02 04:50:26 | 43.30621 | 22.84771 | 0° | 0km/h | 1644m | 0.0m/s | 11.8°C | 94.2% | 0hPa | 0V | 00:00:00 | 00:00:00 | 00:00:00 | |
| LZ4TU-5 | 2026-09-02 04:49:29 | 43.30621 | 22.84771 | 0° | 0km/h | 1644m | 0.0m/s | 11.6°C | 93.7% | 0hPa | 0V | 00:00:00 | 00:00:00 | 00:00:00 | |
| LZ4TU-5 | 2026-09-02 04:49:25 | 43.30621 | 22.84771 | 0° | 0km/h | 1644m | 0.0m/s | 11.6°C | 0% | 0hPa | 0V | 00:00:00 | 00:00:00 | 00:00:00 | |
| LZ4TU-5 | 2026-09-02 04:48:29 | 43.30621 | 22.84771 | 0° | 0km/h | 1644m | 0.0m/s | 11.7°C | 93.8% | 0hPa | 0V | 00:00:00 | 00:00:00 | 00:00:00 | |
| LZ4TU-5 | 2026-09-02 04:48:25 | 43.30621 | 22.84771 | 0° | 0km/h | 1644m | 0.0m/s | 11.7°C | 93.8% | 0hPa | 0V | 00:00:00 | 00:00:00 | 00:00:00 | |
| LZ4TU-5 | 2026-09-02 04:47:29 | 43.30621 | 22.84771 | 0° | 0km/h | 1644m | 0.0m/s | 11.6°C | 93.5% | 0hPa | 0V | 00:00:00 | 00:00:00 | 00:00:00 | |
| LZ4TU-5 | 2026-09-02 04:47:24 | 43.30621 | 22.84771 | 0° | 0km/h | 1644m | 0.0m/s | 11.7°C | 0% | 0hPa | 0V | 00:00:00 | 00:00:00 | 00:00:00 | |
| LZ4TU-5 | 2026-09-02 04:46:27 | 43.30621 | 22.84771 | 0° | 0km/h | 1644m | 0.0m/s | 11.7°C | 93.6% | 0hPa | 0V | 00:00:00 | 00:00:00 | 00:00:00 | |
| LZ4TU-5 | 2026-09-02 04:46:22 | 43.30621 | 22.84771 | 0° | 0km/h | 1644m | 0.0m/s | 11.7°C | 93.7% | 0hPa | 0V | 00:00:00 | 00:00:00 | 00:00:00 | |
| LZ4TU-5 | 2026-09-02 04:45:26 | 43.30621 | 22.84771 | 0° | 0km/h | 1644m | 0.0m/s | 11.7°C | 93.8% | 0hPa | 0V | 00:00:00 | 00:00:00 | 00:00:00 | |
| LZ4TU-5 | 2026-09-02 04:45:21 | 43.30621 | 22.84771 | 0° | 0km/h | 1644m | 0.0m/s | 11.7°C | 0% | 0hPa | 0V | 00:00:00 | 00:00:00 | 00:00:00 | |
| LZ4TU-5 | 2026-09-02 04:44:24 | 43.30621 | 22.84771 | 0° | 0km/h | 1644m | 0.0m/s | 11.7°C | 94.2% | 0hPa | 0V | 00:00:00 | 00:00:00 | 00:00:00 | |
| LZ4TU-5 | 2026-09-02 04:44:20 | 43.30621 | 22.84771 | 0° | 0km/h | 1644m | -0.0m/s | 11.6°C | 94.2% | 0hPa | 0V | 00:00:00 | 00:00:00 | 00:00:00 | |
| LZ4TU-5 | 2026-09-02 04:43:22 | 43.30621 | 22.84771 | 0° | 0km/h | 1644m | 0.0m/s | 11.5°C | 93.9% | 0hPa | 0V | 00:00:00 | 00:00:00 | 00:00:00 | |
| LZ4TU-5 | 2026-09-02 04:43:18 | 43.30621 | 22.84771 | 0° | 0km/h | 1644m | -0.0m/s | 11.5°C | 0% | 0hPa | 0V | 00:00:00 | 00:00:00 | 00:00:00 | |
| LZ4TU-5 | 2026-09-02 04:42:22 | 43.30621 | 22.84771 | 0° | 0km/h | 1644m | 0.0m/s | 11.6°C | 93.7% | 0hPa | 0V | 00:00:00 | 00:00:00 | 00:00:00 | |
| LZ4TU-5 | 2026-09-02 04:42:18 | 43.30621 | 22.84771 | 0° | 0km/h | 1644m | 0.0m/s | 11.5°C | 93.6% | 0hPa | 0V | 00:00:00 | 00:00:00 | 00:00:00 | |
| LZ4TU-5 | 2026-09-02 04:41:22 | 43.30621 | 22.84771 | 0° | 0km/h | 1644m | 0.0m/s | 11.6°C | 93.3% | 0hPa | 0V | 00:00:00 | 00:00:00 | 00:00:00 | |
| LZ4TU-5 | 2026-09-02 04:41:18 | 43.30621 | 22.84771 | 0° | 0km/h | 1644m | 0.0m/s | 11.6°C | 93.3% | 0hPa | 0V | 00:00:00 | 00:00:00 | 00:00:00 | |
| LZ4TU-5 | 2026-09-02 04:41:14 | 43.30621 | 22.84771 | 0° | 0km/h | 1644m | 0.0m/s | 11.6°C | 93.3% | 0hPa | 0V | 00:00:00 | 00:00:00 | 00:00:00 | |
| LZ4TU-5 | 2026-09-02 04:41:09 | 43.30621 | 22.84771 | 0° | 0km/h | 1644m | -0.0m/s | 11.6°C | 0% | 0hPa | 0V | 00:00:00 | 00:00:00 | 00:00:00 | |
| LZ4TU-5 | 2026-09-02 04:40:07 | 43.30621 | 22.84771 | 0° | 0km/h | 1644m | 0.0m/s | 11.6°C | 93.2% | 0hPa | 0V | 00:00:00 | 00:00:00 | 00:00:00 | |
| LZ4TU-5 | 2026-09-02 04:40:02 | 43.30621 | 22.84771 | 0° | 0km/h | 1644m | 0.0m/s | 11.6°C | 93.2% | 0hPa | 0V | 00:00:00 | 00:00:00 | 00:00:00 | |
| LZ4TU-5 | 2026-09-02 04:37:51 | 43.30621 | 22.84771 | 0° | 0km/h | 1644m | 0.0m/s | 11.6°C | 93.1% | 0hPa | 0V | 00:00:00 | 00:00:00 | 00:00:00 | |
| LZ4TU-5 | 2026-09-02 04:37:46 | 43.30621 | 22.84771 | 0° | 0km/h | 1644m | 0.0m/s | 11.6°C | 93.1% | 0hPa | 0V | 00:00:00 | 00:00:00 | 00:00:00 | |
| LZ4TU-5 | 2026-09-02 04:36:46 | 43.30621 | 22.84771 | 0° | 0km/h | 1644m | 0.0m/s | 11.5°C | 93.3% | 0hPa | 0V | 00:00:00 | 00:00:00 | 00:00:00 | |
| LZ4TU-5 | 2026-09-02 04:36:41 | 43.30621 | 22.84771 | 0° | 0km/h | 1644m | 0.0m/s | 11.6°C | 0% | 0hPa | 0V | 00:00:00 | 00:00:00 | 00:00:00 | |
| LZ4TU-5 | 2026-09-02 04:35:42 | 43.30621 | 22.84771 | 0° | 0km/h | 1644m | -0.0m/s | 11.5°C | 93.2% | 0hPa | 0V | 00:00:00 | 00:00:00 | 00:00:00 | |
| LZ4TU-5 | 2026-09-02 04:35:38 | 43.30621 | 22.84771 | 0° | 0km/h | 1644m | 0.0m/s | 11.5°C | 93.2% | 0hPa | 0V | 00:00:00 | 00:00:00 | 00:00:00 | |
| LZ4TU-5 | 2026-09-02 04:35:32 | 43.30621 | 22.84771 | 0° | 0km/h | 1644m | 0.0m/s | 11.5°C | 93.2% | 0hPa | 0V | 00:00:00 | 00:00:00 | 00:00:00 | |
| LZ4TU-5 | 2026-09-02 04:32:19 | 43.30621 | 22.84771 | 0° | 0km/h | 1644m | 0.0m/s | 11.4°C | 0% | 0hPa | 0V | 00:00:00 | 00:00:00 | 00:00:00 | |
| LZ4TU-5 | 2026-09-02 04:31:19 | 43.30621 | 22.84771 | 0° | 0km/h | 1644m | 0.0m/s | 11.2°C | 93.6% | 0hPa | 0V | 00:00:00 | 00:00:00 | 00:00:00 | |
| LZ4TU-5 | 2026-09-02 04:31:15 | 43.30621 | 22.84771 | 0° | 0km/h | 1644m | 0.0m/s | 11.3°C | 93.6% | 0hPa | 0V | 00:00:00 | 00:00:00 | 00:00:00 | |
| LZ4TU-5 | 2026-09-02 04:30:16 | 43.30621 | 22.84771 | 0° | 0km/h | 1644m | 0.0m/s | 11.3°C | 93.7% | 0hPa | 0V | 00:00:00 | 00:00:00 | 00:00:00 | |
| LZ4TU-5 | 2026-09-02 04:30:12 | 43.30621 | 22.84771 | 0° | 0km/h | 1644m | 0.0m/s | 11.3°C | 93.7% | 0hPa | 0V | 00:00:00 | 00:00:00 | 00:00:00 | |
| LZ4TU-5 | 2026-09-02 04:30:07 | 43.30621 | 22.84771 | 0° | 0km/h | 1644m | 0.0m/s | 11.2°C | 93.6% | 0hPa | 0V | 00:00:00 | 00:00:00 | 00:00:00 | |
| LZ4TU-5 | 2026-09-02 04:30:03 | 43.30621 | 22.84771 | 0° | 0km/h | 1644m | 0.0m/s | 11.2°C | 93.6% | 0hPa | 0V | 00:00:00 | 00:00:00 | 00:00:00 | |
| LZ4TU-5 | 2026-09-02 04:29:58 | 43.30621 | 22.84771 | 0° | 0km/h | 1644m | -0.0m/s | 11.2°C | 93.6% | 0hPa | 0V | 00:00:00 | 00:00:00 | 00:00:00 | |
| LZ4TU-5 | 2026-09-02 04:29:53 | 43.30621 | 22.84771 | 0° | 0km/h | 1644m | 0.0m/s | 11.2°C | 93.7% | 0hPa | 0V | 00:00:00 | 00:00:00 | 00:00:00 | |
| LZ4TU-5 | 2026-09-02 04:29:49 | 43.30621 | 22.84771 | 0° | 0km/h | 1644m | 0.0m/s | 11.2°C | 93.7% | 0hPa | 0V | 00:00:00 | 00:00:00 | 00:00:00 | |
| LZ4TU-5 | 2026-09-02 04:29:45 | 43.30621 | 22.84771 | 0° | 0km/h | 1644m | 0.0m/s | 11.2°C | 93.7% | 0hPa | 0V | 00:00:00 | 00:00:00 | 00:00:00 | |
| LZ4TU-5 | 2026-09-02 04:28:45 | 43.30621 | 22.84771 | 0° | 0km/h | 1644m | 0.0m/s | 11.2°C | 93.7% | 0hPa | 0V | 00:00:00 | 00:00:00 | 00:00:00 | |
| LZ4TU-5 | 2026-09-02 04:28:40 | 43.30621 | 22.84771 | 0° | 0km/h | 1644m | 0.0m/s | 11.2°C | 0% | 0hPa | 0V | 00:00:00 | 00:00:00 | 00:00:00 | |
| LZ4TU-5 | 2026-09-02 04:27:40 | 43.30621 | 22.84771 | 0° | 0km/h | 1644m | 0.0m/s | 11.2°C | 93.7% | 0hPa | 0V | 00:00:00 | 00:00:00 | 00:00:00 | |
| LZ4TU-5 | 2026-09-02 04:27:36 | 43.30621 | 22.84771 | 0° | 0km/h | 1644m | 0.0m/s | 11.2°C | 93.7% | 0hPa | 0V | 00:00:00 | 00:00:00 | 00:00:00 | |
| LZ4TU-5 | 2026-09-02 04:26:36 | 43.30621 | 22.84771 | 0° | 0km/h | 1644m | 0.0m/s | 11.2°C | 94.0% | 0hPa | 0V | 00:00:00 | 00:00:00 | 00:00:00 | |
| LZ4TU-5 | 2026-09-02 04:26:31 | 43.30621 | 22.84771 | 0° | 0km/h | 1644m | 0.0m/s | 11.3°C | 0% | 0hPa | 0V | 00:00:00 | 00:00:00 | 00:00:00 | |
| LZ4TU-5 | 2026-09-02 04:25:31 | 43.30621 | 22.84771 | 0° | 0km/h | 1644m | 0.0m/s | 11.2°C | 94.5% | 0hPa | 0V | 00:00:00 | 00:00:00 | 00:00:00 | |
| LZ4TU-5 | 2026-09-02 04:25:26 | 43.30621 | 22.84771 | 0° | 0km/h | 1644m | 0.0m/s | 11.2°C | 94.4% | 0hPa | 0V | 00:00:00 | 00:00:00 | 00:00:00 | |
| LZ4TU-5 | 2026-09-02 04:24:26 | 43.30621 | 22.84771 | 0° | 0km/h | 1644m | 0.0m/s | 11.1°C | 94.2% | 0hPa | 0V | 00:00:00 | 00:00:00 | 00:00:00 | |
| LZ4TU-5 | 2026-09-02 04:24:21 | 43.30621 | 22.84771 | 0° | 0km/h | 1644m | 0.0m/s | 11.1°C | 0% | 0hPa | 0V | 00:00:00 | 00:00:00 | 00:00:00 | |
| LZ4TU-5 | 2026-09-02 04:23:21 | 43.30621 | 22.84771 | 0° | 0km/h | 1644m | 0.0m/s | 11.1°C | 94.3% | 0hPa | 0V | 00:00:00 | 00:00:00 | 00:00:00 | |
| LZ4TU-5 | 2026-09-02 04:23:16 | 43.30621 | 22.84771 | 0° | 0km/h | 1644m | 0.0m/s | 11.1°C | 94.3% | 0hPa | 0V | 00:00:00 | 00:00:00 | 00:00:00 | |
| LZ4TU-5 | 2026-09-02 04:22:16 | 43.30621 | 22.84771 | 0° | 0km/h | 1644m | -0.0m/s | 11.1°C | 94.6% | 0hPa | 0V | 00:00:00 | 00:00:00 | 00:00:00 | |
| LZ4TU-5 | 2026-09-02 04:22:12 | 43.30621 | 22.84771 | 0° | 0km/h | 1644m | 0.0m/s | 11.1°C | 0% | 0hPa | 0V | 00:00:00 | 00:00:00 | 00:00:00 | |
| LZ4TU-5 | 2026-09-02 04:21:12 | 43.30621 | 22.84771 | 0° | 0km/h | 1644m | 0.0m/s | 11.1°C | 94.7% | 0hPa | 0V | 00:00:00 | 00:00:00 | 00:00:00 | |
| LZ4TU-5 | 2026-09-02 04:21:07 | 43.30621 | 22.84771 | 0° | 0km/h | 1644m | 0.0m/s | 11.1°C | 94.7% | 0hPa | 0V | 00:00:00 | 00:00:00 | 00:00:00 | |
| LZ4TU-5 | 2026-09-02 04:20:07 | 43.30621 | 22.84771 | 0° | 0km/h | 1644m | 0.0m/s | 11.0°C | 94.7% | 0hPa | 0V | 00:00:00 | 00:00:00 | 00:00:00 | |
| LZ4TU-5 | 2026-09-02 04:20:03 | 43.30621 | 22.84771 | 0° | 0km/h | 1644m | 0.0m/s | 11.1°C | 0% | 0hPa | 0V | 00:00:00 | 00:00:00 | 00:00:00 | |
| LZ4TU-5 | 2026-09-02 04:19:04 | 43.30621 | 22.84771 | 0° | 0km/h | 1644m | 0.0m/s | 11.0°C | 94.7% | 0hPa | 0V | 00:00:00 | 00:00:00 | 00:00:00 | |
| LZ4TU-5 | 2026-09-02 04:18:59 | 43.30621 | 22.84771 | 0° | 0km/h | 1644m | 0.0m/s | 11.0°C | 94.6% | 0hPa | 0V | 00:00:00 | 00:00:00 | 00:00:00 | |
| LZ4TU-5 | 2026-09-02 04:17:59 | 43.30621 | 22.84771 | 0° | 0km/h | 1644m | -0.0m/s | 11.1°C | 94.8% | 0hPa | 0V | 00:00:00 | 00:00:00 | 00:00:00 | |
| LZ4TU-5 | 2026-09-02 04:17:54 | 43.30621 | 22.84771 | 0° | 0km/h | 1644m | 0.0m/s | 11.1°C | 0% | 0hPa | 0V | 00:00:00 | 00:00:00 | 00:00:00 | |
| LZ4TU-5 | 2026-09-02 04:16:54 | 43.30621 | 22.84771 | 0° | 0km/h | 1644m | 0.0m/s | 11.1°C | 94.8% | 0hPa | 0V | 00:00:00 | 00:00:00 | 00:00:00 | |
| LZ4TU-5 | 2026-09-02 04:16:50 | 43.30621 | 22.84771 | 0° | 0km/h | 1644m | 0.0m/s | 11.1°C | 94.8% | 0hPa | 0V | 00:00:00 | 00:00:00 | 00:00:00 | |
| LZ4TU-5 | 2026-09-02 04:15:51 | 43.30621 | 22.84771 | 0° | 0km/h | 1644m | 0.0m/s | 11.1°C | 94.5% | 0hPa | 0V | 00:00:00 | 00:00:00 | 00:00:00 | |
| LZ4TU-5 | 2026-09-02 04:15:47 | 43.30621 | 22.84771 | 0° | 0km/h | 1644m | 0.0m/s | 11.1°C | 94.4% | 0hPa | 0V | 00:00:00 | 00:00:00 | 00:00:00 | |
| LZ4TU-5 | 2026-09-02 04:15:42 | 43.30621 | 22.84771 | 0° | 0km/h | 1644m | 0.0m/s | 11.1°C | 0% | 0hPa | 0V | 00:00:00 | 00:00:00 | 00:00:00 | |
| LZ4TU-5 | 2026-09-02 04:14:42 | 43.30621 | 22.84771 | 0° | 0km/h | 1644m | 0.0m/s | 11.2°C | 94.2% | 0hPa | 0V | 00:00:00 | 00:00:00 | 00:00:00 | |
| LZ4TU-5 | 2026-09-02 04:14:37 | 43.30621 | 22.84771 | 0° | 0km/h | 1644m | 0.0m/s | 11.1°C | 94.2% | 0hPa | 0V | 00:00:00 | 00:00:00 | 00:00:00 | |
| LZ4TU-5 | 2026-09-02 04:13:38 | 43.30621 | 22.84771 | 0° | 0km/h | 1644m | 0.0m/s | 11.3°C | 94.5% | 0hPa | 0V | 00:00:00 | 00:00:00 | 00:00:00 | |
| LZ4TU-5 | 2026-09-02 04:13:33 | 43.30621 | 22.84771 | 0° | 0km/h | 1644m | 0.0m/s | 11.3°C | 0% | 0hPa | 0V | 00:00:00 | 00:00:00 | 00:00:00 | |
| LZ4TU-5 | 2026-09-02 04:12:34 | 43.30621 | 22.84771 | 0° | 0km/h | 1644m | -0.0m/s | 11.3°C | 94.8% | 0hPa | 0V | 00:00:00 | 00:00:00 | 00:00:00 | |
| LZ4TU-5 | 2026-09-02 04:12:29 | 43.30621 | 22.84771 | 0° | 0km/h | 1644m | 0.0m/s | 11.3°C | 94.8% | 0hPa | 0V | 00:00:00 | 00:00:00 | 00:00:00 | |
| LZ4TU-5 | 2026-09-02 04:11:29 | 43.30621 | 22.84771 | 0° | 0km/h | 1644m | -0.0m/s | 11.3°C | 95.2% | 0hPa | 0V | 00:00:00 | 00:00:00 | 00:00:00 | |
| LZ4TU-5 | 2026-09-02 04:11:24 | 43.30621 | 22.84771 | 0° | 0km/h | 1644m | 0.0m/s | 11.3°C | 0% | 0hPa | 0V | 00:00:00 | 00:00:00 | 00:00:00 | |
| LZ4TU-5 | 2026-09-02 04:10:21 | 43.30621 | 22.84771 | 0° | 0km/h | 1644m | 0.0m/s | 11.3°C | 95.2% | 0hPa | 0V | 00:00:00 | 00:00:00 | 00:00:00 | |
| LZ4TU-5 | 2026-09-02 04:10:16 | 43.30621 | 22.84771 | 0° | 0km/h | 1644m | 0.0m/s | 11.2°C | 95.1% | 0hPa | 0V | 00:00:00 | 00:00:00 | 00:00:00 | |
| LZ4TU-5 | 2026-09-02 04:09:15 | 43.30621 | 22.84771 | 0° | 0km/h | 1644m | 0.0m/s | 11.2°C | 95.1% | 0hPa | 0V | 00:00:00 | 00:00:00 | 00:00:00 | |
| LZ4TU-5 | 2026-09-02 04:09:10 | 43.30621 | 22.84771 | 0° | 0km/h | 1644m | 0.0m/s | 11.2°C | 95.1% | 0hPa | 0V | 00:00:00 | 00:00:00 | 00:00:00 | |
| LZ4TU-5 | 2026-09-02 04:09:05 | 43.30621 | 22.84771 | 0° | 0km/h | 1644m | 0.0m/s | 11.1°C | 0% | 0hPa | 0V | 00:00:00 | 00:00:00 | 00:00:00 | |
| LZ4TU-5 | 2026-09-02 04:08:05 | 43.30621 | 22.84771 | 0° | 0km/h | 1644m | 0.0m/s | 11.2°C | 95.7% | 0hPa | 0V | 00:00:00 | 00:00:00 | 00:00:00 | |
| LZ4TU-5 | 2026-09-02 04:08:01 | 43.30621 | 22.84771 | 0° | 0km/h | 1644m | 0.0m/s | 11.2°C | 95.7% | 0hPa | 0V | 00:00:00 | 00:00:00 | 00:00:00 | |
| LZ4TU-5 | 2026-09-02 04:07:01 | 43.30621 | 22.84771 | 0° | 0km/h | 1644m | 0.0m/s | 11.1°C | 95.7% | 0hPa | 0V | 00:00:00 | 00:00:00 | 00:00:00 | |
| LZ4TU-5 | 2026-09-02 04:06:56 | 43.30621 | 22.84771 | 0° | 0km/h | 1644m | 0.0m/s | 11.1°C | 0% | 0hPa | 0V | 00:00:00 | 00:00:00 | 00:00:00 | |
| LZ4TU-5 | 2026-09-02 04:05:56 | 43.30621 | 22.84771 | 0° | 0km/h | 1644m | 0.0m/s | 11.0°C | 96.0% | 0hPa | 0V | 00:00:00 | 00:00:00 | 00:00:00 | |
| LZ4TU-5 | 2026-09-02 04:05:51 | 43.30621 | 22.84771 | 0° | 0km/h | 1644m | 0.0m/s | 11.1°C | 96.0% | 0hPa | 0V | 00:00:00 | 00:00:00 | 00:00:00 | |
| LZ4TU-5 | 2026-09-02 04:04:51 | 43.30621 | 22.84771 | 0° | 0km/h | 1644m | 0.0m/s | 11.0°C | 96.0% | 0hPa | 0V | 00:00:00 | 00:00:00 | 00:00:00 | |
| LZ4TU-5 | 2026-09-02 04:04:47 | 43.30621 | 22.84771 | 0° | 0km/h | 1644m | 0.0m/s | 11.0°C | 0% | 0hPa | 0V | 00:00:00 | 00:00:00 | 00:00:00 | |
| LZ4TU-5 | 2026-09-02 04:03:46 | 43.30621 | 22.84771 | 0° | 0km/h | 1644m | 0.0m/s | 10.9°C | 95.7% | 0hPa | 0V | 00:00:00 | 00:00:00 | 00:00:00 | |
| LZ4TU-5 | 2026-09-02 04:03:41 | 43.30621 | 22.84771 | 0° | 0km/h | 1644m | 0.0m/s | 10.9°C | 95.7% | 0hPa | 0V | 00:00:00 | 00:00:00 | 00:00:00 | |
| LZ4TU-5 | 2026-09-02 04:02:39 | 43.30621 | 22.84771 | 0° | 0km/h | 1644m | 0.0m/s | 10.9°C | 95.6% | 0hPa | 0V | 00:00:00 | 00:00:00 | 00:00:00 | |
| LZ4TU-5 | 2026-09-02 04:02:34 | 43.30621 | 22.84771 | 0° | 0km/h | 1644m | 0.0m/s | 10.9°C | 0% | 0hPa | 0V | 00:00:00 | 00:00:00 | 00:00:00 | |
| LZ4TU-5 | 2026-09-02 04:01:31 | 43.30621 | 22.84771 | 0° | 0km/h | 1644m | 0.0m/s | 10.9°C | 95.9% | 0hPa | 0V | 00:00:00 | 00:00:00 | 00:00:00 | |
| LZ4TU-5 | 2026-09-02 04:01:26 | 43.30621 | 22.84771 | 0° | 0km/h | 1644m | 0.0m/s | 10.9°C | 95.9% | 0hPa | 0V | 00:00:00 | 00:00:00 | 00:00:00 | |
| LZ4TU-5 | 2026-09-02 04:01:22 | 43.30621 | 22.84771 | 0° | 0km/h | 1644m | 0.0m/s | 10.9°C | 95.9% | 0hPa | 0V | 00:00:00 | 00:00:00 | 00:00:00 | |
| LZ4TU-5 | 2026-09-02 04:01:18 | 43.30621 | 22.84771 | 0° | 0km/h | 1644m | 0.0m/s | 10.8°C | 0% | 0hPa | 0V | 00:00:00 | 00:00:00 | 00:00:00 | |
| LZ4TU-5 | 2026-09-02 04:00:17 | 43.30621 | 22.84771 | 0° | 0km/h | 1644m | 0.0m/s | 10.9°C | 96.4% | 0hPa | 0V | 00:00:00 | 00:00:00 | 00:00:00 | |
| LZ4TU-5 | 2026-09-02 04:00:12 | 43.30621 | 22.84771 | 0° | 0km/h | 1644m | 0.0m/s | 10.9°C | 96.3% | 0hPa | 0V | 00:00:00 | 00:00:00 | 00:00:00 | |
| LZ4TU-5 | 2026-09-02 03:59:13 | 43.30621 | 22.84771 | 0° | 0km/h | 1644m | 0.0m/s | 10.8°C | 96.2% | 0hPa | 0V | 00:00:00 | 00:00:00 | 00:00:00 | |
| LZ4TU-5 | 2026-09-02 03:59:08 | 43.30621 | 22.84771 | 0° | 0km/h | 1644m | 0.0m/s | 10.8°C | 0% | 0hPa | 0V | 00:00:00 | 00:00:00 | 00:00:00 | |
| LZ4TU-5 | 2026-09-02 03:58:08 | 43.30621 | 22.84771 | 0° | 0km/h | 1644m | 0.0m/s | 10.7°C | 96.2% | 0hPa | 0V | 00:00:00 | 00:00:00 | 00:00:00 | |
| LZ4TU-5 | 2026-09-02 03:58:04 | 43.30621 | 22.84771 | 0° | 0km/h | 1644m | 0.0m/s | 10.7°C | 96.2% | 0hPa | 0V | 00:00:00 | 00:00:00 | 00:00:00 | |
| LZ4TU-5 | 2026-09-02 03:57:05 | 43.30621 | 22.84771 | 0° | 0km/h | 1644m | 0.0m/s | 10.7°C | 96.3% | 0hPa | 0V | 00:00:00 | 00:00:00 | 00:00:00 | |
| LZ4TU-5 | 2026-09-02 03:57:00 | 43.30621 | 22.84771 | 0° | 0km/h | 1644m | 0.0m/s | 10.7°C | 0% | 0hPa | 0V | 00:00:00 | 00:00:00 | 00:00:00 | |
| LZ4TU-5 | 2026-09-02 03:56:01 | 43.30621 | 22.84771 | 0° | 0km/h | 1644m | 0.0m/s | 10.8°C | 96.7% | 0hPa | 0V | 00:00:00 | 00:00:00 | 00:00:00 | |
| LZ4TU-5 | 2026-09-02 03:55:57 | 43.30621 | 22.84771 | 0° | 0km/h | 1644m | 0.0m/s | 10.7°C | 96.7% | 0hPa | 0V | 00:00:00 | 00:00:00 | 00:00:00 | |
| LZ4TU-5 | 2026-09-02 03:55:51 | 43.30621 | 22.84771 | 0° | 0km/h | 1644m | 0.0m/s | 10.7°C | 96.7% | 0hPa | 0V | 00:00:00 | 00:00:00 | 00:00:00 | |
| LZ4TU-5 | 2026-09-02 03:54:51 | 43.30621 | 22.84771 | 0° | 0km/h | 1644m | 0.0m/s | 10.6°C | 96.7% | 0hPa | 0V | 00:00:00 | 00:00:00 | 00:00:00 | |
| LZ4TU-5 | 2026-09-02 03:54:47 | 43.30621 | 22.84771 | 0° | 0km/h | 1644m | 0.0m/s | 10.6°C | 0% | 0hPa | 0V | 00:00:00 | 00:00:00 | 00:00:00 | |
| LZ4TU-5 | 2026-09-02 03:53:44 | 43.30621 | 22.84771 | 0° | 0km/h | 1644m | 0.0m/s | 10.6°C | 96.8% | 0hPa | 0V | 00:00:00 | 00:00:00 | 00:00:00 | |
| LZ4TU-5 | 2026-09-02 03:53:39 | 43.30621 | 22.84771 | 0° | 0km/h | 1644m | 0.0m/s | 10.7°C | 96.8% | 0hPa | 0V | 00:00:00 | 00:00:00 | 00:00:00 | |
| LZ4TU-5 | 2026-09-02 03:53:34 | 43.30621 | 22.84771 | 0° | 0km/h | 1644m | 0.0m/s | 10.7°C | 96.9% | 0hPa | 0V | 00:00:00 | 00:00:00 | 00:00:00 | |
| LZ4TU-5 | 2026-09-02 03:52:33 | 43.30621 | 22.84771 | 0° | 0km/h | 1644m | 0.0m/s | 10.7°C | 96.4% | 0hPa | 0V | 00:00:00 | 00:00:00 | 00:00:00 | |
| LZ4TU-5 | 2026-09-02 03:52:28 | 43.30621 | 22.84771 | 0° | 0km/h | 1644m | 0.0m/s | 10.7°C | 0% | 0hPa | 0V | 00:00:00 | 00:00:00 | 00:00:00 | |
| LZ4TU-5 | 2026-09-02 03:51:26 | 43.30621 | 22.84771 | 0° | 0km/h | 1644m | 0.0m/s | 10.6°C | 96.1% | 0hPa | 0V | 00:00:00 | 00:00:00 | 00:00:00 | |
| LZ4TU-5 | 2026-09-02 03:51:21 | 43.30621 | 22.84771 | 0° | 0km/h | 1644m | 0.0m/s | 10.7°C | 96.2% | 0hPa | 0V | 00:00:00 | 00:00:00 | 00:00:00 | |
| LZ4TU-5 | 2026-09-02 03:51:13 | 43.30621 | 22.84771 | 0° | 0km/h | 1644m | 0.0m/s | 10.7°C | 96.2% | 0hPa | 0V | 00:00:00 | 00:00:00 | 00:00:00 | |
| LZ4TU-5 | 2026-09-02 03:51:09 | 43.30621 | 22.84771 | 0° | 0km/h | 1644m | 0.0m/s | 10.6°C | 96.2% | 0hPa | 0V | 00:00:00 | 00:00:00 | 00:00:00 | |
| LZ4TU-5 | 2026-09-02 03:51:04 | 43.30621 | 22.84771 | 0° | 0km/h | 1644m | 0.0m/s | 10.6°C | 96.2% | 0hPa | 0V | 00:00:00 | 00:00:00 | 00:00:00 | |
| LZ4TU-5 | 2026-09-02 03:50:56 | 43.30621 | 22.84771 | 0° | 0km/h | 1644m | 0.0m/s | 10.6°C | 96.2% | 0hPa | 0V | 00:00:00 | 00:00:00 | 00:00:00 | |
| LZ4TU-5 | 2026-09-02 03:49:56 | 43.30621 | 22.84771 | 0° | 0km/h | 1644m | 0.0m/s | 10.6°C | 96.0% | 0hPa | 0V | 00:00:00 | 00:00:00 | 00:00:00 | |
| LZ4TU-5 | 2026-09-02 03:49:51 | 43.30621 | 22.84771 | 0° | 0km/h | 1644m | 0.0m/s | 10.6°C | 0% | 0hPa | 0V | 00:00:00 | 00:00:00 | 00:00:00 | |
| LZ4TU-5 | 2026-09-02 03:48:52 | 43.30621 | 22.84771 | 0° | 0km/h | 1644m | 0.0m/s | 10.6°C | 96.3% | 0hPa | 0V | 00:00:00 | 00:00:00 | 00:00:00 | |
| LZ4TU-5 | 2026-09-02 03:48:47 | 43.30621 | 22.84771 | 0° | 0km/h | 1644m | 0.0m/s | 10.6°C | 96.3% | 0hPa | 0V | 00:00:00 | 00:00:00 | 00:00:00 | |
| LZ4TU-5 | 2026-09-02 03:47:47 | 43.30621 | 22.84771 | 0° | 0km/h | 1644m | 0.0m/s | 10.6°C | 96.2% | 0hPa | 0V | 00:00:00 | 00:00:00 | 00:00:00 | |
| LZ4TU-5 | 2026-09-02 03:47:43 | 43.30621 | 22.84771 | 0° | 0km/h | 1644m | 0.0m/s | 10.6°C | 0% | 0hPa | 0V | 00:00:00 | 00:00:00 | 00:00:00 | |
| LZ4TU-5 | 2026-09-02 03:46:44 | 43.30621 | 22.84771 | 0° | 0km/h | 1644m | 0.0m/s | 10.5°C | 95.9% | 0hPa | 0V | 00:00:00 | 00:00:00 | 00:00:00 | |
| LZ4TU-5 | 2026-09-02 03:46:39 | 43.30621 | 22.84771 | 0° | 0km/h | 1644m | 0.0m/s | 10.5°C | 95.9% | 0hPa | 0V | 00:00:00 | 00:00:00 | 00:00:00 | |
| LZ4TU-5 | 2026-09-02 03:45:39 | 43.30621 | 22.84771 | 0° | 0km/h | 1644m | 0.0m/s | 10.4°C | 95.8% | 0hPa | 0V | 00:00:00 | 00:00:00 | 00:00:00 | |
| LZ4TU-5 | 2026-09-02 03:45:34 | 43.30621 | 22.84771 | 0° | 0km/h | 1644m | 0.0m/s | 10.4°C | 0% | 0hPa | 0V | 00:00:00 | 00:00:00 | 00:00:00 | |
| LZ4TU-5 | 2026-09-02 03:44:34 | 43.30621 | 22.84771 | 0° | 0km/h | 1644m | 0.0m/s | 10.5°C | 96.0% | 0hPa | 0V | 00:00:00 | 00:00:00 | 00:00:00 | |
| LZ4TU-5 | 2026-09-02 03:44:30 | 43.30621 | 22.84771 | 0° | 0km/h | 1644m | 0.0m/s | 10.5°C | 96.0% | 0hPa | 0V | 00:00:00 | 00:00:00 | 00:00:00 | |
| LZ4TU-5 | 2026-09-02 03:43:30 | 43.30621 | 22.84771 | 0° | 0km/h | 1644m | 0.0m/s | 10.4°C | 95.6% | 0hPa | 0V | 00:00:00 | 00:00:00 | 00:00:00 | |
| LZ4TU-5 | 2026-09-02 03:43:26 | 43.30621 | 22.84771 | 0° | 0km/h | 1644m | 0.0m/s | 10.4°C | 95.6% | 0hPa | 0V | 00:00:00 | 00:00:00 | 00:00:00 | |
| LZ4TU-5 | 2026-09-02 03:43:21 | 43.30621 | 22.84771 | 0° | 0km/h | 1644m | 0.0m/s | 10.4°C | 95.7% | 0hPa | 0V | 00:00:00 | 00:00:00 | 00:00:00 | |
| LZ4TU-5 | 2026-09-02 03:42:21 | 43.30621 | 22.84771 | 0° | 0km/h | 1644m | 0.0m/s | 10.4°C | 95.7% | 0hPa | 0V | 00:00:00 | 00:00:00 | 00:00:00 | |
| LZ4TU-5 | 2026-09-02 03:42:17 | 43.30621 | 22.84771 | 0° | 0km/h | 1644m | 0.0m/s | 10.4°C | 95.7% | 0hPa | 0V | 00:00:00 | 00:00:00 | 00:00:00 | |
| LZ4TU-5 | 2026-09-02 03:41:17 | 43.30621 | 22.84771 | 0° | 0km/h | 1644m | 0.0m/s | 10.3°C | 95.6% | 0hPa | 0V | 00:00:00 | 00:00:00 | 00:00:00 | |
| LZ4TU-5 | 2026-09-02 03:41:13 | 43.30621 | 22.84771 | 0° | 0km/h | 1644m | 0.0m/s | 10.3°C | 95.6% | 0hPa | 0V | 00:00:00 | 00:00:00 | 00:00:00 | |
| LZ4TU-5 | 2026-09-02 03:40:13 | 43.30621 | 22.84771 | 0° | 0km/h | 1644m | 0.0m/s | 10.3°C | 95.6% | 0hPa | 0V | 00:00:00 | 00:00:00 | 00:00:00 | |
| LZ4TU-5 | 2026-09-02 03:40:08 | 43.30621 | 22.84771 | 0° | 0km/h | 1644m | 0.0m/s | 10.3°C | 95.6% | 0hPa | 0V | 00:00:00 | 00:00:00 | 00:00:00 | |
| LZ4TU-5 | 2026-09-02 03:39:08 | 43.30621 | 22.84771 | 0° | 0km/h | 1644m | 0.0m/s | 10.3°C | 95.6% | 0hPa | 0V | 00:00:00 | 00:00:00 | 00:00:00 | |
| LZ4TU-5 | 2026-09-02 03:39:03 | 43.30621 | 22.84771 | 0° | 0km/h | 1644m | 0.0m/s | 10.3°C | 95.6% | 0hPa | 0V | 00:00:00 | 00:00:00 | 00:00:00 | |
| LZ4TU-5 | 2026-09-02 03:38:03 | 43.30621 | 22.84771 | 0° | 0km/h | 1644m | 0.0m/s | 10.2°C | 95.5% | 0hPa | 0V | 00:00:00 | 00:00:00 | 00:00:00 | |
| LZ4TU-5 | 2026-09-02 03:37:58 | 43.30621 | 22.84771 | 0° | 0km/h | 1644m | 0.0m/s | 10.2°C | 95.5% | 0hPa | 0V | 00:00:00 | 00:00:00 | 00:00:00 | |
| LZ4TU-5 | 2026-09-02 03:36:56 | 43.30621 | 22.84771 | 0° | 0km/h | 1644m | -0.0m/s | 10.3°C | 95.5% | 0hPa | 0V | 00:00:00 | 00:00:00 | 00:00:00 | |
| LZ4TU-5 | 2026-09-02 03:36:51 | 43.30621 | 22.84771 | 0° | 0km/h | 1644m | 0.0m/s | 10.3°C | 95.4% | 0hPa | 0V | 00:00:00 | 00:00:00 | 00:00:00 | |
| LZ4TU-5 | 2026-09-02 03:35:51 | 43.30621 | 22.84771 | 0° | 0km/h | 1644m | 0.0m/s | 10.3°C | 95.3% | 0hPa | 0V | 00:00:00 | 00:00:00 | 00:00:00 | |
| LZ4TU-5 | 2026-09-02 03:35:47 | 43.30621 | 22.84771 | 0° | 0km/h | 1644m | 0.0m/s | 10.3°C | 95.3% | 0hPa | 0V | 00:00:00 | 00:00:00 | 00:00:00 | |
| LZ4TU-5 | 2026-09-02 03:35:43 | 43.30621 | 22.84771 | 0° | 0km/h | 1644m | 0.0m/s | 10.3°C | 95.2% | 0hPa | 0V | 00:00:00 | 00:00:00 | 00:00:00 | |
| LZ4TU-5 | 2026-09-02 03:35:38 | 43.30621 | 22.84771 | 0° | 0km/h | 1644m | 0.0m/s | 10.3°C | 0% | 0hPa | 0V | 00:00:00 | 00:00:00 | 00:00:00 | |
| LZ4TU-5 | 2026-09-02 03:34:38 | 43.30621 | 22.84771 | 0° | 0km/h | 1644m | 0.0m/s | 10.3°C | 95.2% | 0hPa | 0V | 00:00:00 | 00:00:00 | 00:00:00 | |
| LZ4TU-5 | 2026-09-02 03:34:33 | 43.30621 | 22.84771 | 0° | 0km/h | 1644m | 0.0m/s | 10.3°C | 95.2% | 0hPa | 0V | 00:00:00 | 00:00:00 | 00:00:00 | |
| LZ4TU-5 | 2026-09-02 03:33:33 | 43.30621 | 22.84771 | 0° | 0km/h | 1644m | 0.0m/s | 10.4°C | 95.1% | 0hPa | 0V | 00:00:00 | 00:00:00 | 00:00:00 | |
| LZ4TU-5 | 2026-09-02 03:33:29 | 43.30621 | 22.84771 | 0° | 0km/h | 1644m | 0.0m/s | 10.3°C | 0% | 0hPa | 0V | 00:00:00 | 00:00:00 | 00:00:00 | |
| LZ4TU-5 | 2026-09-02 03:32:29 | 43.30621 | 22.84771 | 0° | 0km/h | 1644m | 0.0m/s | 10.4°C | 95.1% | 0hPa | 0V | 00:00:00 | 00:00:00 | 00:00:00 | |
| LZ4TU-5 | 2026-09-02 03:32:25 | 43.30621 | 22.84771 | 0° | 0km/h | 1644m | 0.0m/s | 10.4°C | 95.1% | 0hPa | 0V | 00:00:00 | 00:00:00 | 00:00:00 | |
| LZ4TU-5 | 2026-09-02 03:31:24 | 43.30621 | 22.84771 | 0° | 0km/h | 1644m | 0.0m/s | 10.4°C | 95.1% | 0hPa | 0V | 00:00:00 | 00:00:00 | 00:00:00 | |
| LZ4TU-5 | 2026-09-02 03:31:19 | 43.30621 | 22.84771 | 0° | 0km/h | 1644m | 0.0m/s | 10.4°C | 95.1% | 0hPa | 0V | 00:00:00 | 00:00:00 | 00:00:00 | |
| LZ4TU-5 | 2026-09-02 03:31:14 | 43.30621 | 22.84771 | 0° | 0km/h | 1644m | 0.0m/s | 10.4°C | 0% | 0hPa | 0V | 00:00:00 | 00:00:00 | 00:00:00 | |
| LZ4TU-5 | 2026-09-02 03:30:14 | 43.30621 | 22.84771 | 0° | 0km/h | 1644m | 0.0m/s | 10.4°C | 95.1% | 0hPa | 0V | 00:00:00 | 00:00:00 | 00:00:00 | |
| LZ4TU-5 | 2026-09-02 03:30:09 | 43.30621 | 22.84771 | 0° | 0km/h | 1644m | 0.0m/s | 10.4°C | 95.1% | 0hPa | 0V | 00:00:00 | 00:00:00 | 00:00:00 | |
| LZ4TU-5 | 2026-09-02 03:29:09 | 43.30621 | 22.84771 | 0° | 0km/h | 1644m | 0.0m/s | 10.4°C | 95.1% | 0hPa | 0V | 00:00:00 | 00:00:00 | 00:00:00 | |
| LZ4TU-5 | 2026-09-02 03:29:04 | 43.30621 | 22.84771 | 0° | 0km/h | 1644m | 0.0m/s | 10.5°C | 0% | 0hPa | 0V | 00:00:00 | 00:00:00 | 00:00:00 | |
| LZ4TU-5 | 2026-09-02 03:28:04 | 43.30621 | 22.84771 | 0° | 0km/h | 1644m | 0.0m/s | 10.5°C | 95.0% | 0hPa | 0V | 00:00:00 | 00:00:00 | 00:00:00 | |
| LZ4TU-5 | 2026-09-02 03:27:59 | 43.30621 | 22.84771 | 0° | 0km/h | 1644m | 0.0m/s | 10.5°C | 94.9% | 0hPa | 0V | 00:00:00 | 00:00:00 | 00:00:00 | |
| LZ4TU-5 | 2026-09-02 03:26:59 | 43.30621 | 22.84771 | 0° | 0km/h | 1644m | 0.0m/s | 10.6°C | 95.0% | 0hPa | 0V | 00:00:00 | 00:00:00 | 00:00:00 | |
| LZ4TU-5 | 2026-09-02 03:26:55 | 43.30621 | 22.84771 | 0° | 0km/h | 1644m | 0.0m/s | 10.5°C | 95.0% | 0hPa | 0V | 00:00:00 | 00:00:00 | 00:00:00 | |
| LZ4TU-5 | 2026-09-02 03:26:50 | 43.30621 | 22.84771 | 0° | 0km/h | 1644m | 0.0m/s | 10.6°C | 0% | 0hPa | 0V | 00:00:00 | 00:00:00 | 00:00:00 | |
| LZ4TU-5 | 2026-09-02 03:25:51 | 43.30621 | 22.84771 | 0° | 0km/h | 1644m | 0.0m/s | 10.6°C | 95.1% | 0hPa | 0V | 00:00:00 | 00:00:00 | 00:00:00 | |
| LZ4TU-5 | 2026-09-02 03:25:46 | 43.30621 | 22.84771 | 0° | 0km/h | 1644m | 0.0m/s | 10.6°C | 95.2% | 0hPa | 0V | 00:00:00 | 00:00:00 | 00:00:00 | |
| LZ4TU-5 | 2026-09-02 03:24:46 | 43.30621 | 22.84771 | 0° | 0km/h | 1644m | 0.0m/s | 10.6°C | 95.1% | 0hPa | 0V | 00:00:00 | 00:00:00 | 00:00:00 | |
| LZ4TU-5 | 2026-09-02 03:24:41 | 43.30621 | 22.84771 | 0° | 0km/h | 1644m | 0.0m/s | 10.6°C | 0% | 0hPa | 0V | 00:00:00 | 00:00:00 | 00:00:00 | |
| LZ4TU-5 | 2026-09-02 03:23:41 | 43.30621 | 22.84771 | 0° | 0km/h | 1644m | 0.0m/s | 10.6°C | 95.3% | 0hPa | 0V | 00:00:00 | 00:00:00 | 00:00:00 | |
| LZ4TU-5 | 2026-09-02 03:23:37 | 43.30621 | 22.84771 | 0° | 0km/h | 1644m | 0.0m/s | 10.6°C | 95.4% | 0hPa | 0V | 00:00:00 | 00:00:00 | 00:00:00 | |
| LZ4TU-5 | 2026-09-02 03:22:37 | 43.30621 | 22.84771 | 0° | 0km/h | 1644m | 0.0m/s | 10.6°C | 95.5% | 0hPa | 0V | 00:00:00 | 00:00:00 | 00:00:00 | |
| LZ4TU-5 | 2026-09-02 03:22:32 | 43.30621 | 22.84771 | 0° | 0km/h | 1644m | 0.0m/s | 10.6°C | 0% | 0hPa | 0V | 00:00:00 | 00:00:00 | 00:00:00 | |
| LZ4TU-5 | 2026-09-02 03:21:33 | 43.30621 | 22.84771 | 0° | 0km/h | 1644m | 0.0m/s | 10.5°C | 95.4% | 0hPa | 0V | 00:00:00 | 00:00:00 | 00:00:00 | |
| LZ4TU-5 | 2026-09-02 03:21:29 | 43.30621 | 22.84771 | 0° | 0km/h | 1644m | 0.0m/s | 10.5°C | 95.4% | 0hPa | 0V | 00:00:00 | 00:00:00 | 00:00:00 | |
| LZ4TU-5 | 2026-09-02 03:21:24 | 43.30621 | 22.84771 | 0° | 0km/h | 1644m | 0.0m/s | 10.5°C | 95.4% | 0hPa | 0V | 00:00:00 | 00:00:00 | 00:00:00 | |
| LZ4TU-5 | 2026-09-02 03:21:19 | 43.30621 | 22.84771 | 0° | 0km/h | 1644m | 0.0m/s | 10.5°C | 95.4% | 0hPa | 0V | 00:00:00 | 00:00:00 | 00:00:00 | |
| LZ4TU-5 | 2026-09-02 03:21:14 | 43.30621 | 22.84771 | 0° | 0km/h | 1644m | 0.0m/s | 10.5°C | 95.4% | 0hPa | 0V | 00:00:00 | 00:00:00 | 00:00:00 | |
| LZ4TU-5 | 2026-09-02 03:20:15 | 43.30621 | 22.84771 | 0° | 0km/h | 1644m | 0.0m/s | 10.5°C | 95.3% | 0hPa | 0V | 00:00:00 | 00:00:00 | 00:00:00 | |
| LZ4TU-5 | 2026-09-02 03:20:10 | 43.30621 | 22.84771 | 0° | 0km/h | 1644m | 0.0m/s | 10.5°C | 0% | 0hPa | 0V | 00:00:00 | 00:00:00 | 00:00:00 | |
| LZ4TU-5 | 2026-09-02 03:19:06 | 43.30621 | 22.84771 | 0° | 0km/h | 1644m | 0.0m/s | 10.4°C | 95.4% | 0hPa | 0V | 00:00:00 | 00:00:00 | 00:00:00 | |
| LZ4TU-5 | 2026-09-02 03:19:01 | 43.30621 | 22.84771 | 0° | 0km/h | 1644m | 0.0m/s | 10.5°C | 95.4% | 0hPa | 0V | 00:00:00 | 00:00:00 | 00:00:00 | |
| LZ4TU-5 | 2026-09-02 03:17:58 | 43.30621 | 22.84771 | 0° | 0km/h | 1644m | 0.0m/s | 10.4°C | 95.6% | 0hPa | 0V | 00:00:00 | 00:00:00 | 00:00:00 | |
| LZ4TU-5 | 2026-09-02 03:17:53 | 43.30621 | 22.84771 | 0° | 0km/h | 1644m | 0.0m/s | 10.4°C | 0% | 0hPa | 0V | 00:00:00 | 00:00:00 | 00:00:00 | |
| LZ4TU-5 | 2026-09-02 03:16:50 | 43.30621 | 22.84771 | 0° | 0km/h | 1644m | 0.0m/s | 10.4°C | 95.6% | 0hPa | 0V | 00:00:00 | 00:00:00 | 00:00:00 | |
| LZ4TU-5 | 2026-09-02 03:16:45 | 43.30621 | 22.84771 | 0° | 0km/h | 1644m | 0.0m/s | 10.4°C | 0% | 0hPa | 0V | 00:00:00 | 00:00:00 | 00:00:00 | |
| LZ4TU-5 | 2026-09-02 03:15:42 | 43.30621 | 22.84771 | 0° | 0km/h | 1644m | 0.0m/s | 10.4°C | 95.7% | 0hPa | 0V | 00:00:00 | 00:00:00 | 00:00:00 | |
| LZ4TU-5 | 2026-09-02 03:15:38 | 43.30621 | 22.84771 | 0° | 0km/h | 1644m | 0.0m/s | 10.3°C | 95.8% | 0hPa | 0V | 00:00:00 | 00:00:00 | 00:00:00 | |
| LZ4TU-5 | 2026-09-02 03:14:35 | 43.30621 | 22.84771 | 0° | 0km/h | 1644m | 0.0m/s | 10.3°C | 95.7% | 0hPa | 0V | 00:00:00 | 00:00:00 | 00:00:00 | |
| LZ4TU-5 | 2026-09-02 03:14:30 | 43.30621 | 22.84771 | 0° | 0km/h | 1644m | 0.0m/s | 10.3°C | 0% | 0hPa | 0V | 00:00:00 | 00:00:00 | 00:00:00 | |
| LZ4TU-5 | 2026-09-02 03:13:27 | 43.30621 | 22.84771 | 0° | 0km/h | 1644m | 0.0m/s | 10.2°C | 95.6% | 0hPa | 0V | 00:00:00 | 00:00:00 | 00:00:00 | |
| LZ4TU-5 | 2026-09-02 03:13:23 | 43.30621 | 22.84771 | 0° | 0km/h | 1644m | 0.0m/s | 10.3°C | 95.6% | 0hPa | 0V | 00:00:00 | 00:00:00 | 00:00:00 | |
| LZ4TU-5 | 2026-09-02 03:12:20 | 43.30621 | 22.84771 | 0° | 0km/h | 1644m | 0.0m/s | 10.3°C | 95.5% | 0hPa | 0V | 00:00:00 | 00:00:00 | 00:00:00 | |
| LZ4TU-5 | 2026-09-02 03:12:16 | 43.30621 | 22.84771 | 0° | 0km/h | 1644m | 0.0m/s | 10.3°C | 0% | 0hPa | 0V | 00:00:00 | 00:00:00 | 00:00:00 | |
| LZ4TU-5 | 2026-09-01 23:24:19 | 43.30621 | 22.84770 | 0° | 0km/h | 1644m | 0.0m/s | 11.5°C | 95.8% | 0hPa | 0V | 00:00:00 | 00:00:00 | 00:00:00 | |
| LZ4TU-5 | 2026-09-01 23:24:15 | 43.30621 | 22.84770 | 0° | 0km/h | 1644m | 0.0m/s | 11.5°C | 0% | 0hPa | 0V | 00:00:00 | 00:00:00 | 00:00:00 | |
| LZ4TU-5 | 2026-09-01 23:21:51 | 43.30621 | 22.84770 | 0° | 0km/h | 1644m | 0.0m/s | 11.6°C | 96.3% | 0hPa | 0V | 00:00:00 | 00:00:00 | 00:00:00 | |
| LZ4TU-5 | 2026-09-01 23:21:46 | 43.30621 | 22.84770 | 0° | 0km/h | 1644m | 0.0m/s | 11.6°C | 96.4% | 0hPa | 0V | 00:00:00 | 00:00:00 | 00:00:00 | |
| LZ4TU-5 | 2026-09-01 23:20:37 | 43.30621 | 22.84770 | 0° | 0km/h | 1644m | 0.0m/s | 11.6°C | 96.1% | 0hPa | 0V | 00:00:00 | 00:00:00 | 00:00:00 | |
| LZ4TU-5 | 2026-09-01 23:20:32 | 43.30621 | 22.84770 | 0° | 0km/h | 1644m | 0.0m/s | 11.6°C | 96.0% | 0hPa | 0V | 00:00:00 | 00:00:00 | 00:00:00 | |
| LZ4TU-5 | 2026-09-01 23:19:24 | 43.30621 | 22.84770 | 0° | 0km/h | 1644m | 0.0m/s | 11.6°C | 96.2% | 0hPa | 0V | 00:00:00 | 00:00:00 | 00:00:00 | |
| LZ4TU-5 | 2026-09-01 23:19:19 | 43.30621 | 22.84770 | 0° | 0km/h | 1644m | -0.0m/s | 11.6°C | 96.2% | 0hPa | 0V | 00:00:00 | 00:00:00 | 00:00:00 | |
| LZ4TU-5 | 2026-09-01 23:18:12 | 43.30621 | 22.84770 | 0° | 0km/h | 1644m | 0.0m/s | 11.6°C | 95.7% | 0hPa | 0V | 00:00:00 | 00:00:00 | 00:00:00 | |
| LZ4TU-5 | 2026-09-01 23:18:07 | 43.30621 | 22.84770 | 0° | 0km/h | 1644m | 0.0m/s | 11.6°C | 95.6% | 0hPa | 0V | 00:00:00 | 00:00:00 | 00:00:00 | |
| LZ4TU-5 | 2026-09-01 23:17:04 | 43.30621 | 22.84770 | 0° | 0km/h | 1644m | 0.0m/s | 11.6°C | 95.6% | 0hPa | 0V | 00:00:00 | 00:00:00 | 00:00:00 | |
| LZ4TU-5 | 2026-09-01 23:16:59 | 43.30621 | 22.84770 | 0° | 0km/h | 1644m | 0.0m/s | 11.6°C | 95.5% | 0hPa | 0V | 00:00:00 | 00:00:00 | 00:00:00 | |
| LZ4TU-5 | 2026-09-01 23:15:57 | 43.30621 | 22.84770 | 0° | 0km/h | 1644m | 0.0m/s | 11.6°C | 95.6% | 0hPa | 0V | 00:00:00 | 00:00:00 | 00:00:00 | |
| LZ4TU-5 | 2026-09-01 23:15:52 | 43.30621 | 22.84770 | 0° | 0km/h | 1644m | 0.0m/s | 11.6°C | 95.6% | 0hPa | 0V | 00:00:00 | 00:00:00 | 00:00:00 | |
| LZ4TU-5 | 2026-09-01 23:14:50 | 43.30621 | 22.84770 | 0° | 0km/h | 1644m | 0.0m/s | 11.6°C | 95.7% | 0hPa | 0V | 00:00:00 | 00:00:00 | 00:00:00 | |
| LZ4TU-5 | 2026-09-01 23:14:46 | 43.30621 | 22.84770 | 0° | 0km/h | 1644m | 0.0m/s | 11.5°C | 95.7% | 0hPa | 0V | 00:00:00 | 00:00:00 | 00:00:00 | |
| LZ4TU-5 | 2026-09-01 23:13:44 | 43.30621 | 22.84770 | 0° | 0km/h | 1644m | 0.0m/s | 11.5°C | 95.9% | 0hPa | 0V | 00:00:00 | 00:00:00 | 00:00:00 | |
| LZ4TU-5 | 2026-09-01 23:13:39 | 43.30621 | 22.84770 | 0° | 0km/h | 1644m | 0.0m/s | 11.4°C | 0% | 0hPa | 0V | 00:00:00 | 00:00:00 | 00:00:00 | |
| LZ4TU-5 | 2026-09-01 23:12:36 | 43.30621 | 22.84770 | 0° | 0km/h | 1644m | 0.0m/s | 11.3°C | 95.9% | 0hPa | 0V | 00:00:00 | 00:00:00 | 00:00:00 | |
| LZ4TU-5 | 2026-09-01 23:12:32 | 43.30621 | 22.84770 | 0° | 0km/h | 1644m | 0.0m/s | 11.3°C | 95.9% | 0hPa | 0V | 00:00:00 | 00:00:00 | 00:00:00 | |
| LZ4TU-5 | 2026-09-01 23:11:30 | 43.30621 | 22.84770 | 0° | 0km/h | 1644m | 0.0m/s | 11.2°C | 96.1% | 0hPa | 0V | 00:00:00 | 00:00:00 | 00:00:00 | |
| LZ4TU-5 | 2026-09-01 23:11:26 | 43.30621 | 22.84770 | 0° | 0km/h | 1644m | 0.0m/s | 11.2°C | 0% | 0hPa | 0V | 00:00:00 | 00:00:00 | 00:00:00 | |
| LZ4TU-5 | 2026-09-01 23:10:24 | 43.30621 | 22.84770 | 0° | 0km/h | 1644m | 0.0m/s | 11.2°C | 96.3% | 0hPa | 0V | 00:00:00 | 00:00:00 | 00:00:00 | |
| LZ4TU-5 | 2026-09-01 23:10:20 | 43.30621 | 22.84770 | 0° | 0km/h | 1644m | 0.0m/s | 11.2°C | 96.4% | 0hPa | 0V | 00:00:00 | 00:00:00 | 00:00:00 | |
| LZ4TU-5 | 2026-09-01 23:09:18 | 43.30621 | 22.84770 | 0° | 0km/h | 1644m | 0.0m/s | 11.2°C | 96.7% | 0hPa | 0V | 00:00:00 | 00:00:00 | 00:00:00 | |
| LZ4TU-5 | 2026-09-01 23:09:14 | 43.30621 | 22.84770 | 0° | 0km/h | 1644m | 0.0m/s | 11.2°C | 0% | 0hPa | 0V | 00:00:00 | 00:00:00 | 00:00:00 | |
| LZ4TU-5 | 2026-09-01 23:08:12 | 43.30621 | 22.84770 | 0° | 0km/h | 1644m | 0.0m/s | 11.2°C | 96.4% | 0hPa | 0V | 00:00:00 | 00:00:00 | 00:00:00 | |
| LZ4TU-5 | 2026-09-01 23:08:07 | 43.30621 | 22.84770 | 0° | 0km/h | 1644m | 0.0m/s | 11.1°C | 96.4% | 0hPa | 0V | 00:00:00 | 00:00:00 | 00:00:00 | |
| LZ4TU-5 | 2026-09-01 23:06:59 | 43.30621 | 22.84770 | 0° | 0km/h | 1644m | 0.0m/s | 11.1°C | 96.8% | 0hPa | 0V | 00:00:00 | 00:00:00 | 00:00:00 | |
| LZ4TU-5 | 2026-09-01 23:06:54 | 43.30621 | 22.84770 | 0° | 0km/h | 1644m | 0.0m/s | 11.1°C | 96.7% | 0hPa | 0V | 00:00:00 | 00:00:00 | 00:00:00 | |
| LZ4TU-5 | 2026-09-01 23:05:52 | 43.30621 | 22.84770 | 0° | 0km/h | 1644m | 0.0m/s | 11.2°C | 96.7% | 0hPa | 0V | 00:00:00 | 00:00:00 | 00:00:00 | |
| LZ4TU-5 | 2026-09-01 23:05:47 | 43.30621 | 22.84770 | 0° | 0km/h | 1644m | 0.0m/s | 11.1°C | 96.6% | 0hPa | 0V | 00:00:00 | 00:00:00 | 00:00:00 | |
| LZ4TU-5 | 2026-09-01 23:04:45 | 43.30621 | 22.84770 | 0° | 0km/h | 1644m | 0.0m/s | 11.0°C | 96.1% | 0hPa | 0V | 00:00:00 | 00:00:00 | 00:00:00 | |
| LZ4TU-5 | 2026-09-01 23:04:40 | 43.30621 | 22.84770 | 0° | 0km/h | 1644m | 0.0m/s | 11.0°C | 96.1% | 0hPa | 0V | 00:00:00 | 00:00:00 | 00:00:00 | |
| LZ4TU-5 | 2026-09-01 23:03:44 | 43.30621 | 22.84770 | 0° | 0km/h | 1644m | 0.0m/s | 11.0°C | 96.2% | 0hPa | 0V | 00:00:00 | 00:00:00 | 00:00:00 | |
| LZ4TU-5 | 2026-09-01 23:03:40 | 43.30621 | 22.84770 | 0° | 0km/h | 1644m | 0.0m/s | 11.1°C | 0% | 0hPa | 0V | 00:00:00 | 00:00:00 | 00:00:00 | |
| LZ4TU-5 | 2026-09-01 23:02:44 | 43.30621 | 22.84770 | 0° | 0km/h | 1644m | 0.0m/s | 11.1°C | 96.3% | 0hPa | 0V | 00:00:00 | 00:00:00 | 00:00:00 | |
| LZ4TU-5 | 2026-09-01 23:02:40 | 43.30621 | 22.84770 | 0° | 0km/h | 1644m | 0.0m/s | 11.1°C | 96.3% | 0hPa | 0V | 00:00:00 | 00:00:00 | 00:00:00 | |
| LZ4TU-5 | 2026-09-01 23:01:42 | 43.30621 | 22.84770 | 0° | 0km/h | 1644m | 0.0m/s | 11.0°C | 96.2% | 0hPa | 0V | 00:00:00 | 00:00:00 | 00:00:00 | |
| LZ4TU-5 | 2026-09-01 23:01:37 | 43.30621 | 22.84770 | 0° | 0km/h | 1644m | 0.0m/s | 11.0°C | 96.3% | 0hPa | 0V | 00:00:00 | 00:00:00 | 00:00:00 | |
| LZ4TU-5 | 2026-09-01 23:01:33 | 43.30621 | 22.84770 | 0° | 0km/h | 1644m | 0.0m/s | 11.0°C | 0% | 0hPa | 0V | 00:00:00 | 00:00:00 | 00:00:00 | |
| LZ4TU-5 | 2026-09-01 23:00:34 | 43.30621 | 22.84770 | 0° | 0km/h | 1644m | 0.0m/s | 11.0°C | 96.6% | 0hPa | 0V | 00:00:00 | 00:00:00 | 00:00:00 | |
| LZ4TU-5 | 2026-09-01 23:00:29 | 43.30621 | 22.84770 | 0° | 0km/h | 1644m | 0.0m/s | 11.0°C | 96.5% | 0hPa | 0V | 00:00:00 | 00:00:00 | 00:00:00 | |
| LZ4TU-5 | 2026-09-01 22:59:33 | 43.30621 | 22.84770 | 0° | 0km/h | 1644m | 0.0m/s | 11.0°C | 96.0% | 0hPa | 0V | 00:00:00 | 00:00:00 | 00:00:00 | |
| LZ4TU-5 | 2026-09-01 22:59:28 | 43.30621 | 22.84770 | 0° | 0km/h | 1644m | 0.0m/s | 11.0°C | 96.0% | 0hPa | 0V | 00:00:00 | 00:00:00 | 00:00:00 | |
| LZ4TU-5 | 2026-09-01 22:58:32 | 43.30621 | 22.84770 | 0° | 0km/h | 1644m | 0.0m/s | 10.9°C | 95.9% | 0hPa | 0V | 00:00:00 | 00:00:00 | 00:00:00 | |
| LZ4TU-5 | 2026-09-01 22:58:27 | 43.30621 | 22.84770 | 0° | 0km/h | 1644m | 0.0m/s | 10.9°C | 95.9% | 0hPa | 0V | 00:00:00 | 00:00:00 | 00:00:00 | |
| LZ4TU-5 | 2026-09-01 22:57:28 | 43.30621 | 22.84770 | 0° | 0km/h | 1644m | 0.0m/s | 10.9°C | 96.1% | 0hPa | 0V | 00:00:00 | 00:00:00 | 00:00:00 | |
| LZ4TU-5 | 2026-09-01 22:57:23 | 43.30621 | 22.84770 | 0° | 0km/h | 1644m | 0.0m/s | 10.9°C | 96.2% | 0hPa | 0V | 00:00:00 | 00:00:00 | 00:00:00 | |
| LZ4TU-5 | 2026-09-01 22:56:28 | 43.30621 | 22.84770 | 0° | 0km/h | 1644m | 0.0m/s | 10.9°C | 96.0% | 0hPa | 0V | 00:00:00 | 00:00:00 | 00:00:00 | |
| LZ4TU-5 | 2026-09-01 22:56:23 | 43.30621 | 22.84770 | 0° | 0km/h | 1644m | 0.0m/s | 10.9°C | 96.0% | 0hPa | 0V | 00:00:00 | 00:00:00 | 00:00:00 | |
| LZ4TU-5 | 2026-09-01 22:55:29 | 43.30621 | 22.84770 | 0° | 0km/h | 1644m | 0.0m/s | 10.8°C | 95.5% | 0hPa | 0V | 00:00:00 | 00:00:00 | 00:00:00 | |
| LZ4TU-5 | 2026-09-01 22:55:22 | 43.30621 | 22.84770 | 0° | 0km/h | 1644m | 0.0m/s | 10.8°C | 95.4% | 0hPa | 0V | 00:00:00 | 00:00:00 | 00:00:00 | |
| LZ4TU-5 | 2026-09-01 22:54:27 | 43.30621 | 22.84770 | 0° | 0km/h | 1644m | 0.0m/s | 10.8°C | 95.0% | 0hPa | 0V | 00:00:00 | 00:00:00 | 00:00:00 | |
| LZ4TU-5 | 2026-09-01 22:54:21 | 43.30621 | 22.84770 | 0° | 0km/h | 1644m | 0.0m/s | 10.8°C | 0% | 0hPa | 0V | 00:00:00 | 00:00:00 | 00:00:00 | |
| LZ4TU-5 | 2026-09-01 22:53:25 | 43.30621 | 22.84770 | 0° | 0km/h | 1644m | 0.0m/s | 10.8°C | 94.8% | 0hPa | 0V | 00:00:00 | 00:00:00 | 00:00:00 | |
| LZ4TU-5 | 2026-09-01 22:53:22 | 43.30621 | 22.84770 | 0° | 0km/h | 1644m | 0.0m/s | 10.9°C | 94.9% | 0hPa | 0V | 00:00:00 | 00:00:00 | 00:00:00 | |
| LZ4TU-5 | 2026-09-01 22:52:25 | 43.30621 | 22.84770 | 0° | 0km/h | 1644m | 0.0m/s | 10.9°C | 95.0% | 0hPa | 0V | 00:00:00 | 00:00:00 | 00:00:00 | |
| LZ4TU-5 | 2026-09-01 22:52:21 | 43.30621 | 22.84770 | 0° | 0km/h | 1644m | 0.0m/s | 10.9°C | 0% | 0hPa | 0V | 00:00:00 | 00:00:00 | 00:00:00 | |
| LZ4TU-5 | 2026-09-01 22:51:24 | 43.30621 | 22.84770 | 0° | 0km/h | 1644m | 0.0m/s | 10.9°C | 95.3% | 0hPa | 0V | 00:00:00 | 00:00:00 | 00:00:00 | |
| LZ4TU-5 | 2026-09-01 22:51:19 | 43.30621 | 22.84770 | 0° | 0km/h | 1644m | 0.0m/s | 10.9°C | 95.3% | 0hPa | 0V | 00:00:00 | 00:00:00 | 00:00:00 | |
| LZ4TU-5 | 2026-09-01 22:50:23 | 43.30621 | 22.84770 | 0° | 0km/h | 1644m | 0.0m/s | 10.9°C | 95.5% | 0hPa | 0V | 00:00:00 | 00:00:00 | 00:00:00 | |
| LZ4TU-5 | 2026-09-01 22:50:18 | 43.30621 | 22.84770 | 0° | 0km/h | 1644m | 0.0m/s | 11.0°C | 0% | 0hPa | 0V | 00:00:00 | 00:00:00 | 00:00:00 | |
| LZ4TU-5 | 2026-09-01 22:49:23 | 43.30621 | 22.84770 | 0° | 0km/h | 1644m | 0.0m/s | 11.0°C | 95.7% | 0hPa | 0V | 00:00:00 | 00:00:00 | 00:00:00 | |
| LZ4TU-5 | 2026-09-01 22:49:18 | 43.30621 | 22.84770 | 0° | 0km/h | 1644m | 0.0m/s | 11.0°C | 95.6% | 0hPa | 0V | 00:00:00 | 00:00:00 | 00:00:00 | |
| LZ4TU-5 | 2026-09-01 22:48:23 | 43.30621 | 22.84770 | 0° | 0km/h | 1644m | 0.0m/s | 10.9°C | 95.2% | 0hPa | 0V | 00:00:00 | 00:00:00 | 00:00:00 | |
| LZ4TU-5 | 2026-09-01 22:48:18 | 43.30621 | 22.84770 | 0° | 0km/h | 1644m | 0.0m/s | 10.9°C | 0% | 0hPa | 0V | 00:00:00 | 00:00:00 | 00:00:00 | |
| LZ4TU-5 | 2026-09-01 22:47:21 | 43.30621 | 22.84770 | 0° | 0km/h | 1644m | 0.0m/s | 11.0°C | 95.0% | 0hPa | 0V | 00:00:00 | 00:00:00 | 00:00:00 | |
| LZ4TU-5 | 2026-09-01 22:47:17 | 43.30621 | 22.84770 | 0° | 0km/h | 1644m | 0.0m/s | 10.9°C | 95.1% | 0hPa | 0V | 00:00:00 | 00:00:00 | 00:00:00 | |
| LZ4TU-5 | 2026-09-01 22:46:21 | 43.30621 | 22.84770 | 0° | 0km/h | 1644m | 0.0m/s | 11.0°C | 94.9% | 0hPa | 0V | 00:00:00 | 00:00:00 | 00:00:00 | |
| LZ4TU-5 | 2026-09-01 22:46:16 | 43.30621 | 22.84770 | 0° | 0km/h | 1644m | 0.0m/s | 11.0°C | 0% | 0hPa | 0V | 00:00:00 | 00:00:00 | 00:00:00 | |
| LZ4TU-5 | 2026-09-01 22:45:18 | 43.30621 | 22.84770 | 0° | 0km/h | 1644m | 0.0m/s | 11.0°C | 95.2% | 0hPa | 0V | 00:00:00 | 00:00:00 | 00:00:00 | |
| LZ4TU-5 | 2026-09-01 22:45:13 | 43.30621 | 22.84770 | 0° | 0km/h | 1644m | 0.0m/s | 11.0°C | 95.2% | 0hPa | 0V | 00:00:00 | 00:00:00 | 00:00:00 | |
| LZ4TU-5 | 2026-09-01 22:45:08 | 43.30621 | 22.84770 | 0° | 0km/h | 1644m | 0.0m/s | 11.0°C | 95.3% | 0hPa | 0V | 00:00:00 | 00:00:00 | 00:00:00 | |
| LZ4TU-5 | 2026-09-01 22:44:12 | 43.30621 | 22.84770 | 0° | 0km/h | 1644m | 0.0m/s | 11.0°C | 95.1% | 0hPa | 0V | 00:00:00 | 00:00:00 | 00:00:00 | |
| LZ4TU-5 | 2026-09-01 22:44:07 | 43.30621 | 22.84770 | 0° | 0km/h | 1644m | 0.0m/s | 11.0°C | 0% | 0hPa | 0V | 00:00:00 | 00:00:00 | 00:00:00 | |
| LZ4TU-5 | 2026-09-01 22:43:11 | 43.30621 | 22.84770 | 0° | 0km/h | 1644m | 0.0m/s | 11.0°C | 94.7% | 0hPa | 0V | 00:00:00 | 00:00:00 | 00:00:00 | |
| LZ4TU-5 | 2026-09-01 22:43:06 | 43.30621 | 22.84770 | 0° | 0km/h | 1644m | 0.0m/s | 11.0°C | 94.7% | 0hPa | 0V | 00:00:00 | 00:00:00 | 00:00:00 | |
| LZ4TU-5 | 2026-09-01 22:42:09 | 43.30621 | 22.84770 | 0° | 0km/h | 1644m | 0.0m/s | 11.0°C | 94.8% | 0hPa | 0V | 00:00:00 | 00:00:00 | 00:00:00 | |
| LZ4TU-5 | 2026-09-01 22:42:04 | 43.30621 | 22.84770 | 0° | 0km/h | 1644m | 0.0m/s | 11.0°C | 0% | 0hPa | 0V | 00:00:00 | 00:00:00 | 00:00:00 | |
| LZ4TU-5 | 2026-09-01 22:41:09 | 43.30621 | 22.84770 | 0° | 0km/h | 1644m | 0.0m/s | 11.0°C | 94.9% | 0hPa | 0V | 00:00:00 | 00:00:00 | 00:00:00 | |
| LZ4TU-5 | 2026-09-01 22:41:04 | 43.30621 | 22.84770 | 0° | 0km/h | 1644m | 0.0m/s | 11.0°C | 94.9% | 0hPa | 0V | 00:00:00 | 00:00:00 | 00:00:00 | |
| LZ4TU-5 | 2026-09-01 22:40:08 | 43.30621 | 22.84770 | 0° | 0km/h | 1644m | 0.0m/s | 11.0°C | 94.8% | 0hPa | 0V | 00:00:00 | 00:00:00 | 00:00:00 | |
| LZ4TU-5 | 2026-09-01 22:40:03 | 43.30621 | 22.84770 | 0° | 0km/h | 1644m | 0.0m/s | 11.0°C | 0% | 0hPa | 0V | 00:00:00 | 00:00:00 | 00:00:00 | |
| LZ4TU-5 | 2026-09-01 22:39:07 | 43.30621 | 22.84770 | 0° | 0km/h | 1644m | 0.0m/s | 11.0°C | 94.6% | 0hPa | 0V | 00:00:00 | 00:00:00 | 00:00:00 | |
| LZ4TU-5 | 2026-09-01 22:39:03 | 43.30621 | 22.84770 | 0° | 0km/h | 1644m | 0.0m/s | 11.1°C | 94.6% | 0hPa | 0V | 00:00:00 | 00:00:00 | 00:00:00 | |
| LZ4TU-5 | 2026-09-01 22:38:07 | 43.30621 | 22.84770 | 0° | 0km/h | 1644m | 0.0m/s | 11.1°C | 94.7% | 0hPa | 0V | 00:00:00 | 00:00:00 | 00:00:00 | |
| LZ4TU-5 | 2026-09-01 22:38:03 | 43.30621 | 22.84770 | 0° | 0km/h | 1644m | 0.0m/s | 11.1°C | 0% | 0hPa | 0V | 00:00:00 | 00:00:00 | 00:00:00 | |
| LZ4TU-5 | 2026-09-01 22:37:07 | 43.30621 | 22.84770 | 0° | 0km/h | 1644m | 0.0m/s | 11.2°C | 95.0% | 0hPa | 0V | 00:00:00 | 00:00:00 | 00:00:00 | |
| LZ4TU-5 | 2026-09-01 22:37:02 | 43.30621 | 22.84770 | 0° | 0km/h | 1644m | 0.0m/s | 11.2°C | 95.0% | 0hPa | 0V | 00:00:00 | 00:00:00 | 00:00:00 | |
| LZ4TU-5 | 2026-09-01 22:36:05 | 43.30621 | 22.84770 | 0° | 0km/h | 1644m | 0.0m/s | 11.2°C | 95.4% | 0hPa | 0V | 00:00:00 | 00:00:00 | 00:00:00 | |
| LZ4TU-5 | 2026-09-01 22:36:00 | 43.30621 | 22.84770 | 0° | 0km/h | 1644m | 0.0m/s | 11.2°C | 0% | 0hPa | 0V | 00:00:00 | 00:00:00 | 00:00:00 | |
| LZ4TU-5 | 2026-09-01 22:35:04 | 43.30621 | 22.84770 | 0° | 0km/h | 1644m | 0.0m/s | 11.2°C | 95.8% | 0hPa | 0V | 00:00:00 | 00:00:00 | 00:00:00 | |
| LZ4TU-5 | 2026-09-01 22:34:59 | 43.30621 | 22.84770 | 0° | 0km/h | 1644m | 0.0m/s | 11.2°C | 95.9% | 0hPa | 0V | 00:00:00 | 00:00:00 | 00:00:00 | |
| LZ4TU-5 | 2026-09-01 22:33:58 | 43.30621 | 22.84770 | 0° | 0km/h | 1644m | 0.0m/s | 11.2°C | 95.8% | 0hPa | 0V | 00:00:00 | 00:00:00 | 00:00:00 | |
| LZ4TU-5 | 2026-09-01 22:33:03 | 43.30621 | 22.84770 | 0° | 0km/h | 1644m | 0.0m/s | 11.1°C | 95.2% | 0hPa | 0V | 00:00:00 | 00:00:00 | 00:00:00 | |
| LZ4TU-5 | 2026-09-01 22:32:58 | 43.30621 | 22.84770 | 0° | 0km/h | 1644m | 0.0m/s | 11.1°C | 95.2% | 0hPa | 0V | 00:00:00 | 00:00:00 | 00:00:00 | |
| LZ4TU-5 | 2026-09-01 22:32:02 | 43.30621 | 22.84770 | 0° | 0km/h | 1644m | 0.0m/s | 11.1°C | 95.0% | 0hPa | 0V | 00:00:00 | 00:00:00 | 00:00:00 | |
| LZ4TU-5 | 2026-09-01 22:31:57 | 43.30621 | 22.84770 | 0° | 0km/h | 1644m | 0.0m/s | 11.1°C | 95.0% | 0hPa | 0V | 00:00:00 | 00:00:00 | 00:00:00 | |
| LZ4TU-5 | 2026-09-01 22:31:01 | 43.30621 | 22.84770 | 0° | 0km/h | 1644m | 0.0m/s | 11.1°C | 94.8% | 0hPa | 0V | 00:00:00 | 00:00:00 | 00:00:00 | |
| LZ4TU-5 | 2026-09-01 22:30:56 | 43.30621 | 22.84770 | 0° | 0km/h | 1644m | 0.0m/s | 11.1°C | 0% | 0hPa | 0V | 00:00:00 | 00:00:00 | 00:00:00 | |
| LZ4TU-5 | 2026-09-01 22:30:00 | 43.30621 | 22.84770 | 0° | 0km/h | 1644m | 0.0m/s | 11.1°C | 94.5% | 0hPa | 0V | 00:00:00 | 00:00:00 | 00:00:00 | |
| LZ4TU-5 | 2026-09-01 22:29:55 | 43.30621 | 22.84770 | 0° | 0km/h | 1644m | 0.0m/s | 11.1°C | 94.5% | 0hPa | 0V | 00:00:00 | 00:00:00 | 00:00:00 | |
| LZ4TU-5 | 2026-09-01 22:28:58 | 43.30621 | 22.84770 | 0° | 0km/h | 1644m | 0.0m/s | 11.1°C | 94.3% | 0hPa | 0V | 00:00:00 | 00:00:00 | 00:00:00 | |
| LZ4TU-5 | 2026-09-01 22:28:53 | 43.30621 | 22.84770 | 0° | 0km/h | 1644m | 0.0m/s | 11.1°C | 0% | 0hPa | 0V | 00:00:00 | 00:00:00 | 00:00:00 | |
| LZ4TU-5 | 2026-09-01 22:27:57 | 43.30621 | 22.84770 | 0° | 0km/h | 1644m | 0.0m/s | 11.1°C | 94.4% | 0hPa | 0V | 00:00:00 | 00:00:00 | 00:00:00 | |
| LZ4TU-5 | 2026-09-01 22:27:52 | 43.30621 | 22.84770 | 0° | 0km/h | 1644m | 0.0m/s | 11.1°C | 94.3% | 0hPa | 0V | 00:00:00 | 00:00:00 | 00:00:00 | |
| LZ4TU-5 | 2026-09-01 22:26:56 | 43.30621 | 22.84770 | 0° | 0km/h | 1644m | 0.0m/s | 11.1°C | 94.2% | 0hPa | 0V | 00:00:00 | 00:00:00 | 00:00:00 | |
| LZ4TU-5 | 2026-09-01 22:26:51 | 43.30621 | 22.84770 | 0° | 0km/h | 1644m | 0.0m/s | 11.1°C | 0% | 0hPa | 0V | 00:00:00 | 00:00:00 | 00:00:00 | |
| LZ4TU-5 | 2026-09-01 22:25:55 | 43.30621 | 22.84770 | 0° | 0km/h | 1644m | 0.0m/s | 11.1°C | 94.2% | 0hPa | 0V | 00:00:00 | 00:00:00 | 00:00:00 | |
| LZ4TU-5 | 2026-09-01 22:25:50 | 43.30621 | 22.84770 | 0° | 0km/h | 1644m | 0.0m/s | 11.2°C | 94.2% | 0hPa | 0V | 00:00:00 | 00:00:00 | 00:00:00 | |
| LZ4TU-5 | 2026-09-01 22:24:54 | 43.30621 | 22.84770 | 0° | 0km/h | 1644m | 0.0m/s | 11.2°C | 94.2% | 0hPa | 0V | 00:00:00 | 00:00:00 | 00:00:00 | |
| LZ4TU-5 | 2026-09-01 22:24:50 | 43.30621 | 22.84770 | 0° | 0km/h | 1644m | 0.0m/s | 11.2°C | 0% | 0hPa | 0V | 00:00:00 | 00:00:00 | 00:00:00 | |
| LZ4TU-5 | 2026-09-01 22:23:54 | 43.30621 | 22.84770 | 0° | 0km/h | 1644m | 0.0m/s | 11.2°C | 94.1% | 0hPa | 0V | 00:00:00 | 00:00:00 | 00:00:00 | |
| LZ4TU-5 | 2026-09-01 22:23:49 | 43.30621 | 22.84770 | 0° | 0km/h | 1644m | 0.0m/s | 11.2°C | 94.2% | 0hPa | 0V | 00:00:00 | 00:00:00 | 00:00:00 | |
| LZ4TU-5 | 2026-09-01 22:22:53 | 43.30621 | 22.84770 | 0° | 0km/h | 1644m | 0.0m/s | 11.2°C | 94.1% | 0hPa | 0V | 00:00:00 | 00:00:00 | 00:00:00 | |
| LZ4TU-5 | 2026-09-01 22:22:48 | 43.30621 | 22.84770 | 0° | 0km/h | 1644m | 0.0m/s | 11.2°C | 0% | 0hPa | 0V | 00:00:00 | 00:00:00 | 00:00:00 | |
| LZ4TU-5 | 2026-09-01 22:21:53 | 43.30621 | 22.84770 | 0° | 0km/h | 1644m | 0.0m/s | 11.3°C | 94.1% | 0hPa | 0V | 00:00:00 | 00:00:00 | 00:00:00 | |
| LZ4TU-5 | 2026-09-01 22:21:48 | 43.30621 | 22.84770 | 0° | 0km/h | 1644m | 0.0m/s | 11.3°C | 94.1% | 0hPa | 0V | 00:00:00 | 00:00:00 | 00:00:00 | |
| LZ4TU-5 | 2026-09-01 22:20:51 | 43.30621 | 22.84770 | 0° | 0km/h | 1644m | 0.0m/s | 11.3°C | 94.0% | 0hPa | 0V | 00:00:00 | 00:00:00 | 00:00:00 | |
| LZ4TU-5 | 2026-09-01 22:20:46 | 43.30621 | 22.84770 | 0° | 0km/h | 1644m | 0.0m/s | 11.3°C | 0% | 0hPa | 0V | 00:00:00 | 00:00:00 | 00:00:00 | |
| LZ4TU-5 | 2026-09-01 22:19:50 | 43.30621 | 22.84770 | 0° | 0km/h | 1644m | 0.0m/s | 11.4°C | 93.9% | 0hPa | 0V | 00:00:00 | 00:00:00 | 00:00:00 | |
| LZ4TU-5 | 2026-09-01 22:19:45 | 43.30621 | 22.84770 | 0° | 0km/h | 1644m | 0.0m/s | 11.4°C | 93.9% | 0hPa | 0V | 00:00:00 | 00:00:00 | 00:00:00 | |
| LZ4TU-5 | 2026-09-01 22:18:49 | 43.30621 | 22.84770 | 0° | 0km/h | 1644m | 0.0m/s | 11.5°C | 93.9% | 0hPa | 0V | 00:00:00 | 00:00:00 | 00:00:00 | |
| LZ4TU-5 | 2026-09-01 22:18:44 | 43.30621 | 22.84770 | 0° | 0km/h | 1644m | 0.0m/s | 11.5°C | 0% | 0hPa | 0V | 00:00:00 | 00:00:00 | 00:00:00 | |
| LZ4TU-5 | 2026-09-01 22:17:49 | 43.30621 | 22.84770 | 0° | 0km/h | 1644m | 0.0m/s | 11.5°C | 94.1% | 0hPa | 0V | 00:00:00 | 00:00:00 | 00:00:00 | |
| LZ4TU-5 | 2026-09-01 22:17:44 | 43.30621 | 22.84770 | 0° | 0km/h | 1644m | 0.0m/s | 11.6°C | 94.1% | 0hPa | 0V | 00:00:00 | 00:00:00 | 00:00:00 | |
| LZ4TU-5 | 2026-09-01 22:16:49 | 43.30621 | 22.84770 | 0° | 0km/h | 1644m | 0.0m/s | 11.6°C | 94.2% | 0hPa | 0V | 00:00:00 | 00:00:00 | 00:00:00 | |
| LZ4TU-5 | 2026-09-01 22:16:44 | 43.30621 | 22.84770 | 0° | 0km/h | 1644m | 0.0m/s | 11.6°C | 0% | 0hPa | 0V | 00:00:00 | 00:00:00 | 00:00:00 | |
| LZ4TU-5 | 2026-09-01 22:15:48 | 43.30621 | 22.84770 | 0° | 0km/h | 1644m | 0.0m/s | 11.6°C | 94.2% | 0hPa | 0V | 00:00:00 | 00:00:00 | 00:00:00 | |
| LZ4TU-5 | 2026-09-01 22:15:44 | 43.30621 | 22.84770 | 0° | 0km/h | 1644m | 0.0m/s | 11.6°C | 94.3% | 0hPa | 0V | 00:00:00 | 00:00:00 | 00:00:00 | |
| LZ4TU-5 | 2026-09-01 22:14:48 | 43.30621 | 22.84770 | 0° | 0km/h | 1644m | 0.0m/s | 11.7°C | 94.2% | 0hPa | 0V | 00:00:00 | 00:00:00 | 00:00:00 | |
| LZ4TU-5 | 2026-09-01 22:14:43 | 43.30621 | 22.84770 | 0° | 0km/h | 1644m | 0.0m/s | 11.7°C | 0% | 0hPa | 0V | 00:00:00 | 00:00:00 | 00:00:00 | |
| LZ4TU-5 | 2026-09-01 22:13:47 | 43.30621 | 22.84770 | 0° | 0km/h | 1644m | 0.0m/s | 11.7°C | 94.2% | 0hPa | 0V | 00:00:00 | 00:00:00 | 00:00:00 | |
| LZ4TU-5 | 2026-09-01 22:13:42 | 43.30621 | 22.84770 | 0° | 0km/h | 1644m | 0.0m/s | 11.7°C | 94.2% | 0hPa | 0V | 00:00:00 | 00:00:00 | 00:00:00 | |
| LZ4TU-5 | 2026-09-01 22:12:46 | 43.30621 | 22.84770 | 0° | 0km/h | 1644m | 0.0m/s | 11.7°C | 94.1% | 0hPa | 0V | 00:00:00 | 00:00:00 | 00:00:00 | |
| LZ4TU-5 | 2026-09-01 22:12:41 | 43.30621 | 22.84770 | 0° | 0km/h | 1644m | 0.0m/s | 11.7°C | 94.1% | 0hPa | 0V | 00:00:00 | 00:00:00 | 00:00:00 | |
| LZ4TU-5 | 2026-09-01 22:11:45 | 43.30621 | 22.84770 | 0° | 0km/h | 1644m | 0.0m/s | 11.7°C | 93.9% | 0hPa | 0V | 00:00:00 | 00:00:00 | 00:00:00 | |
| LZ4TU-5 | 2026-09-01 22:11:40 | 43.30621 | 22.84770 | 0° | 0km/h | 1644m | 0.0m/s | 11.8°C | 93.8% | 0hPa | 0V | 00:00:00 | 00:00:00 | 00:00:00 | |
| LZ4TU-5 | 2026-09-01 22:10:43 | 43.30621 | 22.84770 | 0° | 0km/h | 1644m | 0.0m/s | 11.8°C | 93.7% | 0hPa | 0V | 00:00:00 | 00:00:00 | 00:00:00 | |
| LZ4TU-5 | 2026-09-01 22:10:39 | 43.30621 | 22.84770 | 0° | 0km/h | 1644m | 0.0m/s | 11.8°C | 93.7% | 0hPa | 0V | 00:00:00 | 00:00:00 | 00:00:00 | |
| LZ4TU-5 | 2026-09-01 22:09:43 | 43.30621 | 22.84770 | 0° | 0km/h | 1644m | 0.0m/s | 11.9°C | 93.6% | 0hPa | 0V | 00:00:00 | 00:00:00 | 00:00:00 | |
| LZ4TU-5 | 2026-09-01 22:09:39 | 43.30621 | 22.84770 | 0° | 0km/h | 1644m | 0.0m/s | 11.9°C | 0% | 0hPa | 0V | 00:00:00 | 00:00:00 | 00:00:00 | |
| LZ4TU-5 | 2026-09-01 22:08:43 | 43.30621 | 22.84770 | 0° | 0km/h | 1644m | 0.0m/s | 12.0°C | 93.7% | 0hPa | 0V | 00:00:00 | 00:00:00 | 00:00:00 | |
| LZ4TU-5 | 2026-09-01 22:08:39 | 43.30621 | 22.84770 | 0° | 0km/h | 1644m | 0.0m/s | 12.0°C | 93.7% | 0hPa | 0V | 00:00:00 | 00:00:00 | 00:00:00 | |
| LZ4TU-5 | 2026-09-01 22:07:43 | 43.30621 | 22.84770 | 0° | 0km/h | 1644m | 0.0m/s | 12.0°C | 94.0% | 0hPa | 0V | 00:00:00 | 00:00:00 | 00:00:00 | |
| LZ4TU-5 | 2026-09-01 22:07:39 | 43.30621 | 22.84770 | 0° | 0km/h | 1644m | 0.0m/s | 12.0°C | 0% | 0hPa | 0V | 00:00:00 | 00:00:00 | 00:00:00 | |
| LZ4TU-5 | 2026-09-01 22:06:43 | 43.30621 | 22.84770 | 0° | 0km/h | 1644m | 0.0m/s | 12.0°C | 94.3% | 0hPa | 0V | 00:00:00 | 00:00:00 | 00:00:00 | |
| LZ4TU-5 | 2026-09-01 22:06:39 | 43.30621 | 22.84770 | 0° | 0km/h | 1644m | 0.0m/s | 12.0°C | 94.3% | 0hPa | 0V | 00:00:00 | 00:00:00 | 00:00:00 | |
| LZ4TU-5 | 2026-09-01 22:05:43 | 43.30621 | 22.84770 | 0° | 0km/h | 1644m | 0.0m/s | 11.9°C | 94.2% | 0hPa | 0V | 00:00:00 | 00:00:00 | 00:00:00 | |
| LZ4TU-5 | 2026-09-01 22:05:38 | 43.30621 | 22.84770 | 0° | 0km/h | 1644m | 0.0m/s | 11.9°C | 0% | 0hPa | 0V | 00:00:00 | 00:00:00 | 00:00:00 | |
| LZ4TU-5 | 2026-09-01 22:04:42 | 43.30621 | 22.84770 | 0° | 0km/h | 1644m | 0.0m/s | 11.8°C | 94.0% | 0hPa | 0V | 00:00:00 | 00:00:00 | 00:00:00 | |
| LZ4TU-5 | 2026-09-01 22:04:37 | 43.30621 | 22.84770 | 0° | 0km/h | 1644m | 0.0m/s | 11.8°C | 94.0% | 0hPa | 0V | 00:00:00 | 00:00:00 | 00:00:00 | |
| LZ4TU-5 | 2026-09-01 22:03:41 | 43.30621 | 22.84770 | 0° | 0km/h | 1644m | 0.0m/s | 11.8°C | 93.8% | 0hPa | 0V | 00:00:00 | 00:00:00 | 00:00:00 | |
| LZ4TU-5 | 2026-09-01 22:03:36 | 43.30621 | 22.84770 | 0° | 0km/h | 1644m | 0.0m/s | 11.7°C | 0% | 0hPa | 0V | 00:00:00 | 00:00:00 | 00:00:00 | |
| LZ4TU-5 | 2026-09-01 22:02:40 | 43.30621 | 22.84770 | 0° | 0km/h | 1644m | 0.0m/s | 11.7°C | 93.7% | 0hPa | 0V | 00:00:00 | 00:00:00 | 00:00:00 | |
| LZ4TU-5 | 2026-09-01 22:02:35 | 43.30621 | 22.84770 | 0° | 0km/h | 1644m | 0.0m/s | 11.7°C | 93.7% | 0hPa | 0V | 00:00:00 | 00:00:00 | 00:00:00 | |
| LZ4TU-5 | 2026-09-01 22:01:38 | 43.30621 | 22.84770 | 0° | 0km/h | 1644m | 0.0m/s | 11.6°C | 93.7% | 0hPa | 0V | 00:00:00 | 00:00:00 | 00:00:00 | |
| LZ4TU-5 | 2026-09-01 22:01:33 | 43.30621 | 22.84770 | 0° | 0km/h | 1644m | 0.0m/s | 11.6°C | 0% | 0hPa | 0V | 00:00:00 | 00:00:00 | 00:00:00 | |
| LZ4TU-5 | 2026-09-01 22:00:37 | 43.30621 | 22.84770 | 0° | 0km/h | 1644m | 0.0m/s | 11.6°C | 93.7% | 0hPa | 0V | 00:00:00 | 00:00:00 | 00:00:00 | |
| LZ4TU-5 | 2026-09-01 22:00:32 | 43.30621 | 22.84770 | 0° | 0km/h | 1644m | 0.0m/s | 11.6°C | 93.7% | 0hPa | 0V | 00:00:00 | 00:00:00 | 00:00:00 | |
| LZ4TU-5 | 2026-09-01 21:59:36 | 43.30621 | 22.84770 | 0° | 0km/h | 1644m | 0.0m/s | 11.5°C | 93.7% | 0hPa | 0V | 00:00:00 | 00:00:00 | 00:00:00 | |
| LZ4TU-5 | 2026-09-01 21:59:32 | 43.30621 | 22.84770 | 0° | 0km/h | 1644m | -0.0m/s | 11.6°C | 0% | 0hPa | 0V | 00:00:00 | 00:00:00 | 00:00:00 | |
| LZ4TU-5 | 2026-09-01 21:58:35 | 43.30621 | 22.84770 | 0° | 0km/h | 1644m | 0.0m/s | 11.5°C | 94.0% | 0hPa | 0V | 00:00:00 | 00:00:00 | 00:00:00 | |
| LZ4TU-5 | 2026-09-01 21:58:31 | 43.30621 | 22.84770 | 0° | 0km/h | 1644m | 0.0m/s | 11.5°C | 94.0% | 0hPa | 0V | 00:00:00 | 00:00:00 | 00:00:00 | |
| LZ4TU-5 | 2026-09-01 21:57:36 | 43.30621 | 22.84770 | 0° | 0km/h | 1644m | -0.0m/s | 11.4°C | 94.1% | 0hPa | 0V | 00:00:00 | 00:00:00 | 00:00:00 | |
| LZ4TU-5 | 2026-09-01 21:57:32 | 43.30621 | 22.84770 | 0° | 0km/h | 1644m | 0.0m/s | 11.4°C | 94.1% | 0hPa | 0V | 00:00:00 | 00:00:00 | 00:00:00 | |
| LZ4TU-5 | 2026-09-01 21:57:27 | 43.30621 | 22.84770 | 0° | 0km/h | 1644m | 0.0m/s | 11.4°C | 0% | 0hPa | 0V | 00:00:00 | 00:00:00 | 00:00:00 | |
| LZ4TU-5 | 2026-09-01 21:56:31 | 43.30621 | 22.84770 | 0° | 0km/h | 1644m | 0.0m/s | 11.4°C | 94.3% | 0hPa | 0V | 00:00:00 | 00:00:00 | 00:00:00 | |
| LZ4TU-5 | 2026-09-01 21:56:26 | 43.30621 | 22.84770 | 0° | 0km/h | 1644m | 0.0m/s | 11.3°C | 94.3% | 0hPa | 0V | 00:00:00 | 00:00:00 | 00:00:00 | |
| LZ4TU-5 | 2026-09-01 21:55:30 | 43.30621 | 22.84770 | 0° | 0km/h | 1644m | 0.0m/s | 11.3°C | 94.6% | 0hPa | 0V | 00:00:00 | 00:00:00 | 00:00:00 | |
| LZ4TU-5 | 2026-09-01 21:55:25 | 43.30621 | 22.84770 | 0° | 0km/h | 1644m | 0.0m/s | 11.2°C | 0% | 0hPa | 0V | 00:00:00 | 00:00:00 | 00:00:00 | |
| LZ4TU-5 | 2026-09-01 21:54:29 | 43.30621 | 22.84770 | 0° | 0km/h | 1644m | 0.0m/s | 11.2°C | 94.6% | 0hPa | 0V | 00:00:00 | 00:00:00 | 00:00:00 | |
| LZ4TU-5 | 2026-09-01 21:54:24 | 43.30621 | 22.84770 | 0° | 0km/h | 1644m | 0.0m/s | 11.1°C | 94.7% | 0hPa | 0V | 00:00:00 | 00:00:00 | 00:00:00 | |
| LZ4TU-5 | 2026-09-01 21:53:28 | 43.30621 | 22.84770 | 0° | 0km/h | 1644m | 0.0m/s | 11.0°C | 94.6% | 0hPa | 0V | 00:00:00 | 00:00:00 | 00:00:00 | |
| LZ4TU-5 | 2026-09-01 21:53:23 | 43.30621 | 22.84770 | 0° | 0km/h | 1644m | 0.0m/s | 11.0°C | 0% | 0hPa | 0V | 00:00:00 | 00:00:00 | 00:00:00 | |
| LZ4TU-5 | 2026-09-01 21:52:26 | 43.30621 | 22.84770 | 0° | 0km/h | 1644m | 0.0m/s | 10.9°C | 94.4% | 0hPa | 0V | 00:00:00 | 00:00:00 | 00:00:00 | |
| LZ4TU-5 | 2026-09-01 21:52:21 | 43.30621 | 22.84770 | 0° | 0km/h | 1644m | 0.0m/s | 10.9°C | 94.4% | 0hPa | 0V | 00:00:00 | 00:00:00 | 00:00:00 | |
| LZ4TU-5 | 2026-09-01 21:51:25 | 43.30621 | 22.84770 | 0° | 0km/h | 1644m | 0.0m/s | 10.8°C | 94.3% | 0hPa | 0V | 00:00:00 | 00:00:00 | 00:00:00 | |
| LZ4TU-5 | 2026-09-01 21:51:20 | 43.30621 | 22.84770 | 0° | 0km/h | 1644m | 0.0m/s | 10.8°C | 0% | 0hPa | 0V | 00:00:00 | 00:00:00 | 00:00:00 | |
| LZ4TU-5 | 2026-09-01 21:50:24 | 43.30621 | 22.84770 | 0° | 0km/h | 1644m | 0.0m/s | 10.7°C | 94.1% | 0hPa | 0V | 00:00:00 | 00:00:00 | 00:00:00 | |
| LZ4TU-5 | 2026-09-01 21:50:19 | 43.30621 | 22.84770 | 0° | 0km/h | 1644m | 0.0m/s | 10.7°C | 94.1% | 0hPa | 0V | 00:00:00 | 00:00:00 | 00:00:00 | |
| LZ4TU-5 | 2026-09-01 21:49:23 | 43.30621 | 22.84770 | 0° | 0km/h | 1644m | 0.0m/s | 10.7°C | 93.9% | 0hPa | 0V | 00:00:00 | 00:00:00 | 00:00:00 | |
| LZ4TU-5 | 2026-09-01 21:49:19 | 43.30621 | 22.84770 | 0° | 0km/h | 1644m | 0.0m/s | 10.7°C | 93.9% | 0hPa | 0V | 00:00:00 | 00:00:00 | 00:00:00 | |
| LZ4TU-5 | 2026-09-01 21:48:24 | 43.30621 | 22.84770 | 0° | 0km/h | 1644m | 0.0m/s | 10.7°C | 93.6% | 0hPa | 0V | 00:00:00 | 00:00:00 | 00:00:00 | |
| LZ4TU-5 | 2026-09-01 21:48:19 | 43.30621 | 22.84770 | 0° | 0km/h | 1644m | 0.0m/s | 10.7°C | 93.6% | 0hPa | 0V | 00:00:00 | 00:00:00 | 00:00:00 | |
| LZ4TU-5 | 2026-09-01 21:47:21 | 43.30621 | 22.84770 | 0° | 0km/h | 1644m | 0.0m/s | 10.8°C | 94.2% | 0hPa | 0V | 00:00:00 | 00:00:00 | 00:00:00 | |
| LZ4TU-5 | 2026-09-01 21:47:16 | 43.30621 | 22.84770 | 0° | 0km/h | 1644m | 0.0m/s | 10.7°C | 94.4% | 0hPa | 0V | 00:00:00 | 00:00:00 | 00:00:00 | |
| LZ4TU-5 | 2026-09-01 21:46:19 | 43.30621 | 22.84770 | 0° | 0km/h | 1644m | 0.0m/s | 10.8°C | 95.5% | 0hPa | 0V | 00:00:00 | 00:00:00 | 00:00:00 | |
| LZ4TU-5 | 2026-09-01 21:46:14 | 43.30621 | 22.84770 | 0° | 0km/h | 1644m | 0.0m/s | 10.8°C | 95.5% | 0hPa | 0V | 00:00:00 | 00:00:00 | 00:00:00 | |
| LZ4TU-5 | 2026-09-01 21:45:16 | 43.30621 | 22.84770 | 0° | 0km/h | 1644m | 0.0m/s | 10.8°C | 95.2% | 0hPa | 0V | 00:00:00 | 00:00:00 | 00:00:00 | |
| LZ4TU-5 | 2026-09-01 21:45:11 | 43.30621 | 22.84770 | 0° | 0km/h | 1644m | 0.0m/s | 10.8°C | 95.1% | 0hPa | 0V | 00:00:00 | 00:00:00 | 00:00:00 | |
| LZ4TU-5 | 2026-09-01 21:44:15 | 43.30621 | 22.84770 | 0° | 0km/h | 1644m | 0.0m/s | 10.8°C | 94.5% | 0hPa | 0V | 00:00:00 | 00:00:00 | 00:00:00 | |
| LZ4TU-5 | 2026-09-01 21:44:10 | 43.30621 | 22.84770 | 0° | 0km/h | 1644m | 0.0m/s | 10.9°C | 0% | 0hPa | 0V | 00:00:00 | 00:00:00 | 00:00:00 | |
| LZ4TU-5 | 2026-09-01 21:43:14 | 43.30621 | 22.84770 | 0° | 0km/h | 1644m | 0.0m/s | 10.9°C | 94.7% | 0hPa | 0V | 00:00:00 | 00:00:00 | 00:00:00 | |
| LZ4TU-5 | 2026-09-01 21:43:10 | 43.30621 | 22.84770 | 0° | 0km/h | 1644m | 0.0m/s | 10.9°C | 94.7% | 0hPa | 0V | 00:00:00 | 00:00:00 | 00:00:00 | |
| LZ4TU-5 | 2026-09-01 21:42:14 | 43.30621 | 22.84770 | 0° | 0km/h | 1644m | 0.0m/s | 10.9°C | 94.8% | 0hPa | 0V | 00:00:00 | 00:00:00 | 00:00:00 | |
| LZ4TU-5 | 2026-09-01 21:42:09 | 43.30621 | 22.84770 | 0° | 0km/h | 1644m | 0.0m/s | 10.9°C | 0% | 0hPa | 0V | 00:00:00 | 00:00:00 | 00:00:00 | |
| LZ4TU-5 | 2026-09-01 21:41:13 | 43.30621 | 22.84770 | 0° | 0km/h | 1644m | 0.0m/s | 10.9°C | 94.9% | 0hPa | 0V | 00:00:00 | 00:00:00 | 00:00:00 | |
| LZ4TU-5 | 2026-09-01 21:41:09 | 43.30621 | 22.84770 | 0° | 0km/h | 1644m | 0.0m/s | 10.9°C | 95.0% | 0hPa | 0V | 00:00:00 | 00:00:00 | 00:00:00 | |
| LZ4TU-5 | 2026-09-01 21:40:14 | 43.30621 | 22.84770 | 0° | 0km/h | 1644m | 0.0m/s | 10.9°C | 94.9% | 0hPa | 0V | 00:00:00 | 00:00:00 | 00:00:00 | |
| LZ4TU-5 | 2026-09-01 21:40:10 | 43.30621 | 22.84770 | 0° | 0km/h | 1644m | 0.0m/s | 11.0°C | 94.9% | 0hPa | 0V | 00:00:00 | 00:00:00 | 00:00:00 | |
| LZ4TU-5 | 2026-09-01 21:40:05 | 43.30621 | 22.84770 | 0° | 0km/h | 1644m | 0.0m/s | 10.9°C | 94.9% | 0hPa | 0V | 00:00:00 | 00:00:00 | 00:00:00 | |
| LZ4TU-5 | 2026-09-01 21:40:00 | 43.30621 | 22.84770 | 0° | 0km/h | 1644m | 0.0m/s | 11.0°C | 0% | 0hPa | 0V | 00:00:00 | 00:00:00 | 00:00:00 | |
| LZ4TU-5 | 2026-09-01 21:39:04 | 43.30621 | 22.84770 | 0° | 0km/h | 1644m | 0.0m/s | 10.9°C | 94.9% | 0hPa | 0V | 00:00:00 | 00:00:00 | 00:00:00 | |
| LZ4TU-5 | 2026-09-01 21:39:00 | 43.30621 | 22.84770 | 0° | 0km/h | 1644m | 0.0m/s | 11.0°C | 94.9% | 0hPa | 0V | 00:00:00 | 00:00:00 | 00:00:00 | |
| LZ4TU-5 | 2026-09-01 21:38:03 | 43.30621 | 22.84770 | 0° | 0km/h | 1644m | 0.0m/s | 11.0°C | 95.0% | 0hPa | 0V | 00:00:00 | 00:00:00 | 00:00:00 | |
| LZ4TU-5 | 2026-09-01 21:37:59 | 43.30621 | 22.84770 | 0° | 0km/h | 1644m | 0.0m/s | 10.9°C | 0% | 0hPa | 0V | 00:00:00 | 00:00:00 | 00:00:00 | |
| LZ4TU-5 | 2026-09-01 21:37:03 | 43.30621 | 22.84770 | 0° | 0km/h | 1644m | 0.0m/s | 11.0°C | 94.9% | 0hPa | 0V | 00:00:00 | 00:00:00 | 00:00:00 | |
| LZ4TU-5 | 2026-09-01 21:36:59 | 43.30621 | 22.84769 | 0° | 0km/h | 1644m | 0.0m/s | 10.9°C | 94.9% | 0hPa | 0V | 00:00:00 | 00:00:00 | 00:00:00 | |
| LZ4TU-5 | 2026-09-01 21:36:00 | 43.30621 | 22.84769 | 0° | 0km/h | 1644m | 0.0m/s | 11.0°C | 94.9% | 0hPa | 0V | 00:00:00 | 00:00:00 | 00:00:00 | |
| LZ4TU-5 | 2026-09-01 21:35:55 | 43.30621 | 22.84769 | 0° | 0km/h | 1644m | 0.0m/s | 11.0°C | 94.9% | 0hPa | 0V | 00:00:00 | 00:00:00 | 00:00:00 | |
| LZ4TU-5 | 2026-09-01 21:35:50 | 43.30621 | 22.84769 | 0° | 0km/h | 1644m | 0.0m/s | 11.0°C | 0% | 0hPa | 0V | 00:00:00 | 00:00:00 | 00:00:00 | |
| LZ4TU-5 | 2026-09-01 21:34:54 | 43.30621 | 22.84769 | 0° | 0km/h | 1644m | 0.0m/s | 11.0°C | 94.9% | 0hPa | 0V | 00:00:00 | 00:00:00 | 00:00:00 | |
| LZ4TU-5 | 2026-09-01 21:34:50 | 43.30621 | 22.84769 | 0° | 0km/h | 1644m | 0.0m/s | 11.0°C | 94.9% | 0hPa | 0V | 00:00:00 | 00:00:00 | 00:00:00 | |
| LZ4TU-5 | 2026-09-01 21:33:54 | 43.30621 | 22.84769 | 0° | 0km/h | 1644m | 0.0m/s | 11.1°C | 95.0% | 0hPa | 0V | 00:00:00 | 00:00:00 | 00:00:00 | |
| LZ4TU-5 | 2026-09-01 21:33:50 | 43.30621 | 22.84769 | 0° | 0km/h | 1644m | 0.0m/s | 11.1°C | 0% | 0hPa | 0V | 00:00:00 | 00:00:00 | 00:00:00 | |
| LZ4TU-5 | 2026-09-01 21:32:51 | 43.30621 | 22.84769 | 0° | 0km/h | 1644m | 0.0m/s | 11.1°C | 95.0% | 0hPa | 0V | 00:00:00 | 00:00:00 | 00:00:00 | |
| LZ4TU-5 | 2026-09-01 21:32:46 | 43.30621 | 22.84769 | 0° | 0km/h | 1644m | 0.0m/s | 11.1°C | 95.0% | 0hPa | 0V | 00:00:00 | 00:00:00 | 00:00:00 | |
| LZ4TU-5 | 2026-09-01 21:31:51 | 43.30621 | 22.84769 | 0° | 0km/h | 1644m | 0.0m/s | 11.1°C | 95.2% | 0hPa | 0V | 00:00:00 | 00:00:00 | 00:00:00 | |
| LZ4TU-5 | 2026-09-01 21:31:46 | 43.30621 | 22.84769 | 0° | 0km/h | 1644m | 0.0m/s | 11.0°C | 0% | 0hPa | 0V | 00:00:00 | 00:00:00 | 00:00:00 | |
| LZ4TU-5 | 2026-09-01 21:30:49 | 43.30621 | 22.84769 | 0° | 0km/h | 1644m | 0.0m/s | 11.0°C | 95.2% | 0hPa | 0V | 00:00:00 | 00:00:00 | 00:00:00 | |
| LZ4TU-5 | 2026-09-01 21:30:44 | 43.30621 | 22.84769 | 0° | 0km/h | 1644m | 0.0m/s | 11.0°C | 95.2% | 0hPa | 0V | 00:00:00 | 00:00:00 | 00:00:00 | |
| LZ4TU-5 | 2026-09-01 21:29:47 | 43.30621 | 22.84769 | 0° | 0km/h | 1644m | 0.0m/s | 11.0°C | 95.2% | 0hPa | 0V | 00:00:00 | 00:00:00 | 00:00:00 | |
| LZ4TU-5 | 2026-09-01 21:29:43 | 43.30621 | 22.84769 | 0° | 0km/h | 1644m | 0.0m/s | 11.0°C | 0% | 0hPa | 0V | 00:00:00 | 00:00:00 | 00:00:00 | |
| LZ4TU-5 | 2026-09-01 21:28:47 | 43.30621 | 22.84769 | 0° | 0km/h | 1644m | 0.0m/s | 11.0°C | 95.1% | 0hPa | 0V | 00:00:00 | 00:00:00 | 00:00:00 | |
| LZ4TU-5 | 2026-09-01 21:28:43 | 43.30621 | 22.84769 | 0° | 0km/h | 1644m | 0.0m/s | 11.0°C | 95.1% | 0hPa | 0V | 00:00:00 | 00:00:00 | 00:00:00 | |
| LZ4TU-5 | 2026-09-01 21:27:47 | 43.30621 | 22.84769 | 0° | 0km/h | 1644m | 0.0m/s | 11.0°C | 95.0% | 0hPa | 0V | 00:00:00 | 00:00:00 | 00:00:00 | |
| LZ4TU-5 | 2026-09-01 21:27:43 | 43.30621 | 22.84769 | 0° | 0km/h | 1644m | 0.0m/s | 11.0°C | 0% | 0hPa | 0V | 00:00:00 | 00:00:00 | 00:00:00 | |
| LZ4TU-5 | 2026-09-01 21:26:47 | 43.30621 | 22.84769 | 0° | 0km/h | 1644m | 0.0m/s | 11.0°C | 94.7% | 0hPa | 0V | 00:00:00 | 00:00:00 | 00:00:00 | |
| LZ4TU-5 | 2026-09-01 21:26:42 | 43.30621 | 22.84769 | 0° | 0km/h | 1644m | 0.0m/s | 11.0°C | 94.8% | 0hPa | 0V | 00:00:00 | 00:00:00 | 00:00:00 | |
| LZ4TU-5 | 2026-09-01 21:25:45 | 43.30621 | 22.84769 | 0° | 0km/h | 1644m | 0.0m/s | 11.0°C | 94.7% | 0hPa | 0V | 00:00:00 | 00:00:00 | 00:00:00 | |
| LZ4TU-5 | 2026-09-01 21:25:40 | 43.30621 | 22.84769 | 0° | 0km/h | 1644m | 0.0m/s | 11.0°C | 0% | 0hPa | 0V | 00:00:00 | 00:00:00 | 00:00:00 | |
| LZ4TU-5 | 2026-09-01 21:24:44 | 43.30621 | 22.84769 | 0° | 0km/h | 1644m | 0.0m/s | 11.0°C | 94.9% | 0hPa | 0V | 00:00:00 | 00:00:00 | 00:00:00 | |
| LZ4TU-5 | 2026-09-01 21:24:39 | 43.30621 | 22.84769 | 0° | 0km/h | 1644m | 0.0m/s | 11.0°C | 94.9% | 0hPa | 0V | 00:00:00 | 00:00:00 | 00:00:00 | |
| LZ4TU-5 | 2026-09-01 21:23:42 | 43.30621 | 22.84769 | 0° | 0km/h | 1644m | 0.0m/s | 11.0°C | 95.0% | 0hPa | 0V | 00:00:00 | 00:00:00 | 00:00:00 | |
| LZ4TU-5 | 2026-09-01 21:23:38 | 43.30621 | 22.84769 | 0° | 0km/h | 1644m | 0.0m/s | 11.0°C | 0% | 0hPa | 0V | 00:00:00 | 00:00:00 | 00:00:00 | |
| LZ4TU-5 | 2026-09-01 21:22:42 | 43.30621 | 22.84769 | 0° | 0km/h | 1644m | 0.0m/s | 11.0°C | 94.9% | 0hPa | 0V | 00:00:00 | 00:00:00 | 00:00:00 | |
| LZ4TU-5 | 2026-09-01 21:22:38 | 43.30621 | 22.84769 | 0° | 0km/h | 1644m | 0.0m/s | 11.0°C | 94.9% | 0hPa | 0V | 00:00:00 | 00:00:00 | 00:00:00 | |
| LZ4TU-5 | 2026-09-01 21:21:42 | 43.30621 | 22.84769 | 0° | 0km/h | 1644m | 0.0m/s | 11.1°C | 94.7% | 0hPa | 0V | 00:00:00 | 00:00:00 | 00:00:00 | |
| LZ4TU-5 | 2026-09-01 21:21:38 | 43.30621 | 22.84769 | 0° | 0km/h | 1644m | 0.0m/s | 11.1°C | 94.7% | 0hPa | 0V | 00:00:00 | 00:00:00 | 00:00:00 | |
| LZ4TU-5 | 2026-09-01 21:20:41 | 43.30621 | 22.84769 | 0° | 0km/h | 1644m | 0.0m/s | 11.1°C | 94.8% | 0hPa | 0V | 00:00:00 | 00:00:00 | 00:00:00 | |
| LZ4TU-5 | 2026-09-01 21:20:36 | 43.30621 | 22.84769 | 0° | 0km/h | 1644m | 0.0m/s | 11.0°C | 94.7% | 0hPa | 0V | 00:00:00 | 00:00:00 | 00:00:00 | |
| LZ4TU-5 | 2026-09-01 21:19:39 | 43.30621 | 22.84769 | 0° | 0km/h | 1644m | 0.0m/s | 11.1°C | 94.8% | 0hPa | 0V | 00:00:00 | 00:00:00 | 00:00:00 | |
| LZ4TU-5 | 2026-09-01 21:19:35 | 43.30621 | 22.84769 | 0° | 0km/h | 1644m | 0.0m/s | 11.1°C | 94.8% | 0hPa | 0V | 00:00:00 | 00:00:00 | 00:00:00 | |
| LZ4TU-5 | 2026-09-01 21:18:40 | 43.30621 | 22.84769 | 0° | 0km/h | 1644m | 0.0m/s | 11.1°C | 95.1% | 0hPa | 0V | 00:00:00 | 00:00:00 | 00:00:00 | |
| LZ4TU-5 | 2026-09-01 21:18:35 | 43.30621 | 22.84769 | 0° | 0km/h | 1644m | 0.0m/s | 11.1°C | 0% | 0hPa | 0V | 00:00:00 | 00:00:00 | 00:00:00 | |
| LZ4TU-5 | 2026-09-01 21:17:38 | 43.30621 | 22.84769 | 0° | 0km/h | 1644m | 0.0m/s | 11.0°C | 94.9% | 0hPa | 0V | 00:00:00 | 00:00:00 | 00:00:00 | |
| LZ4TU-5 | 2026-09-01 21:17:33 | 43.30621 | 22.84769 | 0° | 0km/h | 1644m | 0.0m/s | 11.0°C | 94.9% | 0hPa | 0V | 00:00:00 | 00:00:00 | 00:00:00 | |
| LZ4TU-5 | 2026-09-01 21:16:37 | 43.30621 | 22.84769 | 0° | 0km/h | 1644m | 0.0m/s | 11.1°C | 95.0% | 0hPa | 0V | 00:00:00 | 00:00:00 | 00:00:00 | |
| LZ4TU-5 | 2026-09-01 21:16:32 | 43.30621 | 22.84769 | 0° | 0km/h | 1644m | -0.0m/s | 11.0°C | 0% | 0hPa | 0V | 00:00:00 | 00:00:00 | 00:00:00 | |
| LZ4TU-5 | 2026-09-01 21:15:35 | 43.30621 | 22.84769 | 0° | 0km/h | 1644m | 0.0m/s | 11.1°C | 95.3% | 0hPa | 0V | 00:00:00 | 00:00:00 | 00:00:00 | |
| LZ4TU-5 | 2026-09-01 21:15:30 | 43.30621 | 22.84769 | 0° | 0km/h | 1644m | 0.0m/s | 11.2°C | 95.3% | 0hPa | 0V | 00:00:00 | 00:00:00 | 00:00:00 | |
| LZ4TU-5 | 2026-09-01 21:14:34 | 43.30621 | 22.84769 | 0° | 0km/h | 1644m | 0.0m/s | 11.1°C | 94.6% | 0hPa | 0V | 00:00:00 | 00:00:00 | 00:00:00 | |
| LZ4TU-5 | 2026-09-01 21:14:29 | 43.30621 | 22.84769 | 0° | 0km/h | 1644m | 0.0m/s | 11.0°C | 0% | 0hPa | 0V | 00:00:00 | 00:00:00 | 00:00:00 | |
| LZ4TU-5 | 2026-09-01 21:13:34 | 43.30621 | 22.84769 | 0° | 0km/h | 1644m | 0.0m/s | 11.0°C | 94.5% | 0hPa | 0V | 00:00:00 | 00:00:00 | 00:00:00 | |
| LZ4TU-5 | 2026-09-01 21:13:29 | 43.30621 | 22.84769 | 0° | 0km/h | 1644m | 0.0m/s | 11.0°C | 94.5% | 0hPa | 0V | 00:00:00 | 00:00:00 | 00:00:00 | |
| LZ4TU-5 | 2026-09-01 21:12:32 | 43.30621 | 22.84769 | 0° | 0km/h | 1644m | 0.0m/s | 11.0°C | 94.4% | 0hPa | 0V | 00:00:00 | 00:00:00 | 00:00:00 | |
| LZ4TU-5 | 2026-09-01 21:12:27 | 43.30621 | 22.84769 | 0° | 0km/h | 1644m | 0.0m/s | 11.0°C | 0% | 0hPa | 0V | 00:00:00 | 00:00:00 | 00:00:00 | |
| LZ4TU-5 | 2026-09-01 21:11:32 | 43.30621 | 22.84769 | 0° | 0km/h | 1644m | 0.0m/s | 11.0°C | 94.6% | 0hPa | 0V | 00:00:00 | 00:00:00 | 00:00:00 | |
| LZ4TU-5 | 2026-09-01 21:11:27 | 43.30621 | 22.84769 | 0° | 0km/h | 1644m | 0.0m/s | 11.0°C | 94.6% | 0hPa | 0V | 00:00:00 | 00:00:00 | 00:00:00 | |
| LZ4TU-5 | 2026-09-01 21:10:31 | 43.30621 | 22.84769 | 0° | 0km/h | 1644m | 0.0m/s | 11.0°C | 94.4% | 0hPa | 0V | 00:00:00 | 00:00:00 | 00:00:00 | |
| LZ4TU-5 | 2026-09-01 21:10:26 | 43.30621 | 22.84769 | 0° | 0km/h | 1644m | 0.0m/s | 10.9°C | 0% | 0hPa | 0V | 00:00:00 | 00:00:00 | 00:00:00 | |
| LZ4TU-5 | 2026-09-01 21:09:29 | 43.30621 | 22.84769 | 0° | 0km/h | 1644m | 0.0m/s | 11.0°C | 94.4% | 0hPa | 0V | 00:00:00 | 00:00:00 | 00:00:00 | |
| LZ4TU-5 | 2026-09-01 21:09:25 | 43.30621 | 22.84769 | 0° | 0km/h | 1644m | 0.0m/s | 11.0°C | 94.4% | 0hPa | 0V | 00:00:00 | 00:00:00 | 00:00:00 | |
| LZ4TU-5 | 2026-09-01 21:08:25 | 43.30621 | 22.84769 | 0° | 0km/h | 1644m | 0.0m/s | 11.0°C | 94.0% | 0hPa | 0V | 00:00:00 | 00:00:00 | 00:00:00 | |
| LZ4TU-5 | 2026-09-01 21:08:19 | 43.30621 | 22.84769 | 0° | 0km/h | 1644m | 0.0m/s | 11.0°C | 0% | 0hPa | 0V | 00:00:00 | 00:00:00 | 00:00:00 | |
| LZ4TU-5 | 2026-09-01 21:07:23 | 43.30621 | 22.84769 | 0° | 0km/h | 1644m | 0.0m/s | 11.0°C | 94.6% | 0hPa | 0V | 00:00:00 | 00:00:00 | 00:00:00 | |
| LZ4TU-5 | 2026-09-01 21:07:19 | 43.30621 | 22.84769 | 0° | 0km/h | 1644m | 0.0m/s | 11.0°C | 94.7% | 0hPa | 0V | 00:00:00 | 00:00:00 | 00:00:00 | |
| LZ4TU-5 | 2026-09-01 21:06:23 | 43.30621 | 22.84769 | 0° | 0km/h | 1644m | 0.0m/s | 11.0°C | 94.1% | 0hPa | 0V | 00:00:00 | 00:00:00 | 00:00:00 | |
| LZ4TU-5 | 2026-09-01 21:06:18 | 43.30621 | 22.84769 | 0° | 0km/h | 1644m | 0.0m/s | 11.0°C | 0% | 0hPa | 0V | 00:00:00 | 00:00:00 | 00:00:00 | |
| LZ4TU-5 | 2026-09-01 21:05:21 | 43.30621 | 22.84769 | 0° | 0km/h | 1644m | 0.0m/s | 11.0°C | 94.7% | 0hPa | 0V | 00:00:00 | 00:00:00 | 00:00:00 | |
| LZ4TU-5 | 2026-09-01 21:05:17 | 43.30621 | 22.84769 | 0° | 0km/h | 1644m | 0.0m/s | 11.0°C | 94.7% | 0hPa | 0V | 00:00:00 | 00:00:00 | 00:00:00 | |
| LZ4TU-5 | 2026-09-01 21:04:20 | 43.30621 | 22.84769 | 0° | 0km/h | 1644m | 0.0m/s | 11.0°C | 94.1% | 0hPa | 0V | 00:00:00 | 00:00:00 | 00:00:00 | |
| LZ4TU-5 | 2026-09-01 21:04:16 | 43.30621 | 22.84769 | 0° | 0km/h | 1644m | 0.0m/s | 11.0°C | 0% | 0hPa | 0V | 00:00:00 | 00:00:00 | 00:00:00 | |
| LZ4TU-5 | 2026-09-01 21:03:20 | 43.30621 | 22.84769 | 0° | 0km/h | 1644m | 0.0m/s | 11.1°C | 94.0% | 0hPa | 0V | 00:00:00 | 00:00:00 | 00:00:00 | |
| LZ4TU-5 | 2026-09-01 21:03:15 | 43.30621 | 22.84769 | 0° | 0km/h | 1644m | 0.0m/s | 11.1°C | 94.0% | 0hPa | 0V | 00:00:00 | 00:00:00 | 00:00:00 | |
| LZ4TU-5 | 2026-09-01 21:02:19 | 43.30621 | 22.84769 | 0° | 0km/h | 1644m | 0.0m/s | 11.0°C | 93.6% | 0hPa | 0V | 00:00:00 | 00:00:00 | 00:00:00 | |
| LZ4TU-5 | 2026-09-01 21:02:14 | 43.30621 | 22.84769 | 0° | 0km/h | 1644m | 0.0m/s | 11.0°C | 0% | 0hPa | 0V | 00:00:00 | 00:00:00 | 00:00:00 | |
| LZ4TU-5 | 2026-09-01 21:01:17 | 43.30621 | 22.84769 | 0° | 0km/h | 1644m | 0.0m/s | 11.0°C | 94.7% | 0hPa | 0V | 00:00:00 | 00:00:00 | 00:00:00 | |
| LZ4TU-5 | 2026-09-01 21:01:13 | 43.30621 | 22.84769 | 0° | 0km/h | 1644m | 0.0m/s | 11.0°C | 94.8% | 0hPa | 0V | 00:00:00 | 00:00:00 | 00:00:00 | |
| LZ4TU-5 | 2026-09-01 21:00:16 | 43.30621 | 22.84769 | 0° | 0km/h | 1644m | 0.0m/s | 11.0°C | 94.7% | 0hPa | 0V | 00:00:00 | 00:00:00 | 00:00:00 | |
| LZ4TU-5 | 2026-09-01 21:00:11 | 43.30621 | 22.84769 | 0° | 0km/h | 1644m | 0.0m/s | 11.1°C | 0% | 0hPa | 0V | 00:00:00 | 00:00:00 | 00:00:00 | |
| LZ4TU-5 | 2026-09-01 20:59:15 | 43.30621 | 22.84769 | 0° | 0km/h | 1644m | 0.0m/s | 11.0°C | 94.0% | 0hPa | 0V | 00:00:00 | 00:00:00 | 00:00:00 | |
| LZ4TU-5 | 2026-09-01 20:59:11 | 43.30621 | 22.84769 | 0° | 0km/h | 1644m | 0.0m/s | 11.0°C | 94.0% | 0hPa | 0V | 00:00:00 | 00:00:00 | 00:00:00 | |
| LZ4TU-5 | 2026-09-01 20:58:15 | 43.30621 | 22.84769 | 0° | 0km/h | 1644m | 0.0m/s | 11.0°C | 94.5% | 0hPa | 0V | 00:00:00 | 00:00:00 | 00:00:00 | |
| LZ4TU-5 | 2026-09-01 20:58:11 | 43.30621 | 22.84769 | 0° | 0km/h | 1644m | 0.0m/s | 11.0°C | 94.4% | 0hPa | 0V | 00:00:00 | 00:00:00 | 00:00:00 | |
| LZ4TU-5 | 2026-09-01 20:58:06 | 43.30621 | 22.84769 | 0° | 0km/h | 1644m | 0.0m/s | 11.0°C | 94.4% | 0hPa | 0V | 00:00:00 | 00:00:00 | 00:00:00 | |
| LZ4TU-5 | 2026-09-01 20:58:01 | 43.30621 | 22.84769 | 0° | 0km/h | 1644m | 0.0m/s | 11.0°C | 0% | 0hPa | 0V | 00:00:00 | 00:00:00 | 00:00:00 | |
| LZ4TU-5 | 2026-09-01 20:57:05 | 43.30621 | 22.84769 | 0° | 0km/h | 1644m | 0.0m/s | 11.0°C | 94.1% | 0hPa | 0V | 00:00:00 | 00:00:00 | 00:00:00 | |
| LZ4TU-5 | 2026-09-01 20:57:01 | 43.30621 | 22.84769 | 0° | 0km/h | 1644m | 0.0m/s | 11.0°C | 94.1% | 0hPa | 0V | 00:00:00 | 00:00:00 | 00:00:00 | |
| LZ4TU-5 | 2026-09-01 20:56:05 | 43.30621 | 22.84769 | 0° | 0km/h | 1644m | 0.0m/s | 11.0°C | 93.9% | 0hPa | 0V | 00:00:00 | 00:00:00 | 00:00:00 | |
| LZ4TU-5 | 2026-09-01 20:56:00 | 43.30621 | 22.84769 | 0° | 0km/h | 1644m | 0.0m/s | 11.0°C | 0% | 0hPa | 0V | 00:00:00 | 00:00:00 | 00:00:00 | |
| LZ4TU-5 | 2026-09-01 20:55:02 | 43.30621 | 22.84769 | 0° | 0km/h | 1644m | 0.0m/s | 11.0°C | 93.8% | 0hPa | 0V | 00:00:00 | 00:00:00 | 00:00:00 | |
| LZ4TU-5 | 2026-09-01 20:54:57 | 43.30621 | 22.84769 | 0° | 0km/h | 1644m | 0.0m/s | 11.0°C | 93.8% | 0hPa | 0V | 00:00:00 | 00:00:00 | 00:00:00 | |
| LZ4TU-5 | 2026-09-01 20:54:01 | 43.30621 | 22.84769 | 0° | 0km/h | 1644m | 0.0m/s | 11.0°C | 93.8% | 0hPa | 0V | 00:00:00 | 00:00:00 | 00:00:00 | |
| LZ4TU-5 | 2026-09-01 20:53:57 | 43.30621 | 22.84769 | 0° | 0km/h | 1644m | 0.0m/s | 11.0°C | 93.8% | 0hPa | 0V | 00:00:00 | 00:00:00 | 00:00:00 | |
| LZ4TU-5 | 2026-09-01 20:53:52 | 43.30621 | 22.84769 | 0° | 0km/h | 1644m | 0.0m/s | 11.0°C | 0% | 0hPa | 0V | 00:00:00 | 00:00:00 | 00:00:00 | |
| LZ4TU-5 | 2026-09-01 20:52:55 | 43.30621 | 22.84769 | 0° | 0km/h | 1644m | 0.0m/s | 11.0°C | 93.6% | 0hPa | 0V | 00:00:00 | 00:00:00 | 00:00:00 | |
| LZ4TU-5 | 2026-09-01 20:52:50 | 43.30621 | 22.84769 | 0° | 0km/h | 1644m | 0.0m/s | 11.0°C | 93.5% | 0hPa | 0V | 00:00:00 | 00:00:00 | 00:00:00 | |
| LZ4TU-5 | 2026-09-01 20:51:53 | 43.30621 | 22.84769 | 0° | 0km/h | 1644m | 0.0m/s | 11.1°C | 93.7% | 0hPa | 0V | 00:00:00 | 00:00:00 | 00:00:00 | |
| LZ4TU-5 | 2026-09-01 20:51:48 | 43.30621 | 22.84769 | 0° | 0km/h | 1644m | 0.0m/s | 11.0°C | 93.7% | 0hPa | 0V | 00:00:00 | 00:00:00 | 00:00:00 | |
| LZ4TU-5 | 2026-09-01 20:50:51 | 43.30621 | 22.84769 | 0° | 0km/h | 1644m | 0.0m/s | 11.1°C | 0% | 0hPa | 0V | 00:00:00 | 00:00:00 | 00:00:00 | |
| LZ4TU-5 | 2026-09-01 20:50:46 | 43.30621 | 22.84769 | 0° | 0km/h | 1644m | 0.0m/s | 11.1°C | 94.4% | 0hPa | 0V | 00:00:00 | 00:00:00 | 00:00:00 | |
| LZ4TU-5 | 2026-09-01 20:50:41 | 43.30621 | 22.84769 | 0° | 0km/h | 1644m | 0.0m/s | 11.1°C | 94.4% | 0hPa | 0V | 00:00:00 | 00:00:00 | 00:00:00 | |
| LZ4TU-5 | 2026-09-01 20:50:36 | 43.30621 | 22.84769 | 0° | 0km/h | 1644m | 0.0m/s | 11.1°C | 94.5% | 0hPa | 0V | 00:00:00 | 00:00:00 | 00:00:00 | |
| LZ4TU-5 | 2026-09-01 20:49:37 | 43.30621 | 22.84769 | 0° | 0km/h | 1644m | 0.0m/s | 11.1°C | 94.6% | 0hPa | 0V | 00:00:00 | 00:00:00 | 00:00:00 | |
| LZ4TU-5 | 2026-09-01 20:49:27 | 43.30621 | 22.84769 | 0° | 0km/h | 1644m | 0.0m/s | 11.1°C | 94.4% | 0hPa | 0V | 00:00:00 | 00:00:00 | 00:00:00 | |
| LZ4TU-5 | 2026-09-01 20:49:22 | 43.30621 | 22.84769 | 0° | 0km/h | 1644m | 0.0m/s | 11.1°C | 94.3% | 0hPa | 0V | 00:00:00 | 00:00:00 | 00:00:00 | |
| LZ4TU-5 | 2026-09-01 20:49:17 | 43.30621 | 22.84769 | 0° | 0km/h | 1644m | 0.0m/s | 11.1°C | 0% | 0hPa | 0V | 00:00:00 | 00:00:00 | 00:00:00 | |
| LZ4TU-5 | 2026-09-01 20:48:21 | 43.30621 | 22.84769 | 0° | 0km/h | 1644m | 0.0m/s | 11.1°C | 93.5% | 0hPa | 0V | 00:00:00 | 00:00:00 | 00:00:00 | |
| LZ4TU-5 | 2026-09-01 20:48:16 | 43.30621 | 22.84769 | 0° | 0km/h | 1644m | 0.0m/s | 11.1°C | 93.6% | 0hPa | 0V | 00:00:00 | 00:00:00 | 00:00:00 | |
| LZ4TU-5 | 2026-09-01 20:47:20 | 43.30621 | 22.84769 | 0° | 0km/h | 1644m | 0.0m/s | 11.2°C | 94.4% | 0hPa | 0V | 00:00:00 | 00:00:00 | 00:00:00 | |
| LZ4TU-5 | 2026-09-01 20:47:15 | 43.30621 | 22.84769 | 0° | 0km/h | 1644m | 0.0m/s | 11.2°C | 0% | 0hPa | 0V | 00:00:00 | 00:00:00 | 00:00:00 | |
| LZ4TU-5 | 2026-09-01 20:46:19 | 43.30621 | 22.84769 | 0° | 0km/h | 1644m | 0.0m/s | 11.2°C | 94.8% | 0hPa | 0V | 00:00:00 | 00:00:00 | 00:00:00 | |
| LZ4TU-5 | 2026-09-01 20:46:14 | 43.30621 | 22.84769 | 0° | 0km/h | 1644m | 0.0m/s | 11.2°C | 94.8% | 0hPa | 0V | 00:00:00 | 00:00:00 | 00:00:00 | |
| LZ4TU-5 | 2026-09-01 20:45:18 | 43.30621 | 22.84769 | 0° | 0km/h | 1644m | 0.0m/s | 11.2°C | 94.4% | 0hPa | 0V | 00:00:00 | 00:00:00 | 00:00:00 | |
| LZ4TU-5 | 2026-09-01 20:45:14 | 43.30621 | 22.84769 | 0° | 0km/h | 1644m | 0.0m/s | 11.2°C | 94.4% | 0hPa | 0V | 00:00:00 | 00:00:00 | 00:00:00 | |
| LZ4TU-5 | 2026-09-01 20:45:07 | 43.30621 | 22.84769 | 0° | 0km/h | 1644m | 0.0m/s | 11.2°C | 0% | 0hPa | 0V | 00:00:00 | 00:00:00 | 00:00:00 | |
| LZ4TU-5 | 2026-09-01 20:44:10 | 43.30621 | 22.84769 | 0° | 0km/h | 1644m | 0.0m/s | 11.2°C | 94.6% | 0hPa | 0V | 00:00:00 | 00:00:00 | 00:00:00 | |
| LZ4TU-5 | 2026-09-01 20:44:05 | 43.30621 | 22.84769 | 0° | 0km/h | 1644m | 0.0m/s | 11.2°C | 94.8% | 0hPa | 0V | 00:00:00 | 00:00:00 | 00:00:00 | |
| LZ4TU-5 | 2026-09-01 20:43:09 | 43.30621 | 22.84769 | 0° | 0km/h | 1644m | 0.0m/s | 11.3°C | 95.3% | 0hPa | 0V | 00:00:00 | 00:00:00 | 00:00:00 | |
| LZ4TU-5 | 2026-09-01 20:43:05 | 43.30621 | 22.84769 | 0° | 0km/h | 1644m | 0.0m/s | 11.3°C | 95.3% | 0hPa | 0V | 00:00:00 | 00:00:00 | 00:00:00 | |
| LZ4TU-5 | 2026-09-01 20:43:00 | 43.30621 | 22.84769 | 0° | 0km/h | 1644m | 0.0m/s | 11.3°C | 95.2% | 0hPa | 0V | 00:00:00 | 00:00:00 | 00:00:00 | |
| LZ4TU-5 | 2026-09-01 20:42:55 | 43.30621 | 22.84769 | 0° | 0km/h | 1644m | 0.0m/s | 11.3°C | 0% | 0hPa | 0V | 00:00:00 | 00:00:00 | 00:00:00 | |
| LZ4TU-5 | 2026-09-01 20:41:58 | 43.30621 | 22.84769 | 0° | 0km/h | 1644m | 0.0m/s | 11.3°C | 94.1% | 0hPa | 0V | 00:00:00 | 00:00:00 | 00:00:00 | |
| LZ4TU-5 | 2026-09-01 20:41:54 | 43.30621 | 22.84769 | 0° | 0km/h | 1644m | 0.0m/s | 11.3°C | 94.1% | 0hPa | 0V | 00:00:00 | 00:00:00 | 00:00:00 | |
| LZ4TU-5 | 2026-09-01 20:41:49 | 43.30621 | 22.84769 | 0° | 0km/h | 1644m | 0.0m/s | 11.3°C | 94.1% | 0hPa | 0V | 00:00:00 | 00:00:00 | 00:00:00 | |
| LZ4TU-5 | 2026-09-01 20:40:53 | 43.30621 | 22.84769 | 0° | 0km/h | 1644m | 0.0m/s | 11.3°C | 94.1% | 0hPa | 0V | 00:00:00 | 00:00:00 | 00:00:00 | |
| LZ4TU-5 | 2026-09-01 20:40:49 | 43.30621 | 22.84769 | 0° | 0km/h | 1644m | 0.0m/s | 11.3°C | 0% | 0hPa | 0V | 00:00:00 | 00:00:00 | 00:00:00 | |
| LZ4TU-5 | 2026-09-01 20:39:53 | 43.30621 | 22.84769 | 0° | 0km/h | 1644m | 0.0m/s | 11.4°C | 94.2% | 0hPa | 0V | 00:00:00 | 00:00:00 | 00:00:00 | |
| LZ4TU-5 | 2026-09-01 20:39:48 | 43.30621 | 22.84769 | 0° | 0km/h | 1644m | 0.0m/s | 11.4°C | 94.3% | 0hPa | 0V | 00:00:00 | 00:00:00 | 00:00:00 | |
| LZ4TU-5 | 2026-09-01 20:38:50 | 43.30621 | 22.84769 | 0° | 0km/h | 1644m | 0.0m/s | 11.4°C | 94.3% | 0hPa | 0V | 00:00:00 | 00:00:00 | 00:00:00 | |
| LZ4TU-5 | 2026-09-01 20:38:46 | 43.30621 | 22.84769 | 0° | 0km/h | 1644m | 0.0m/s | 11.4°C | 94.3% | 0hPa | 0V | 00:00:00 | 00:00:00 | 00:00:00 | |
| LZ4TU-5 | 2026-09-01 20:38:40 | 43.30621 | 22.84769 | 0° | 0km/h | 1644m | 0.0m/s | 11.4°C | 94.4% | 0hPa | 0V | 00:00:00 | 00:00:00 | 00:00:00 | |
| LZ4TU-5 | 2026-09-01 20:38:36 | 43.30621 | 22.84769 | 0° | 0km/h | 1644m | 0.0m/s | 11.4°C | 94.4% | 0hPa | 0V | 00:00:00 | 00:00:00 | 00:00:00 | |
| LZ4TU-5 | 2026-09-01 20:38:31 | 43.30621 | 22.84769 | 0° | 0km/h | 1644m | 0.0m/s | 11.4°C | 0% | 0hPa | 0V | 00:00:00 | 00:00:00 | 00:00:00 | |
| LZ4TU-5 | 2026-09-01 20:37:35 | 43.30621 | 22.84769 | 0° | 0km/h | 1644m | 0.0m/s | 11.4°C | 94.3% | 0hPa | 0V | 00:00:00 | 00:00:00 | 00:00:00 | |
| LZ4TU-5 | 2026-09-01 20:37:30 | 43.30621 | 22.84769 | 0° | 0km/h | 1644m | 0.0m/s | 11.4°C | 94.3% | 0hPa | 0V | 00:00:00 | 00:00:00 | 00:00:00 | |
| LZ4TU-5 | 2026-09-01 20:36:34 | 43.30621 | 22.84769 | 0° | 0km/h | 1644m | 0.0m/s | 11.4°C | 94.2% | 0hPa | 0V | 00:00:00 | 00:00:00 | 00:00:00 | |
| LZ4TU-5 | 2026-09-01 20:36:29 | 43.30621 | 22.84769 | 0° | 0km/h | 1644m | 0.0m/s | 11.3°C | 0% | 0hPa | 0V | 00:00:00 | 00:00:00 | 00:00:00 | |
| LZ4TU-5 | 2026-09-01 20:35:32 | 43.30621 | 22.84769 | 0° | 0km/h | 1644m | 0.0m/s | 11.4°C | 94.3% | 0hPa | 0V | 00:00:00 | 00:00:00 | 00:00:00 | |
| LZ4TU-5 | 2026-09-01 20:35:27 | 43.30621 | 22.84769 | 0° | 0km/h | 1644m | 0.0m/s | 11.4°C | 94.3% | 0hPa | 0V | 00:00:00 | 00:00:00 | 00:00:00 | |
| LZ4TU-5 | 2026-09-01 20:34:28 | 43.30621 | 22.84769 | 0° | 0km/h | 1644m | 0.0m/s | 11.4°C | 94.1% | 0hPa | 0V | 00:00:00 | 00:00:00 | 00:00:00 | |
| LZ4TU-5 | 2026-09-01 20:34:23 | 43.30621 | 22.84769 | 0° | 0km/h | 1644m | 0.0m/s | 11.4°C | 0% | 0hPa | 0V | 00:00:00 | 00:00:00 | 00:00:00 | |
| LZ4TU-5 | 2026-09-01 20:33:27 | 43.30621 | 22.84769 | 0° | 0km/h | 1644m | 0.0m/s | 11.3°C | 94.0% | 0hPa | 0V | 00:00:00 | 00:00:00 | 00:00:00 | |
| LZ4TU-5 | 2026-09-01 20:33:22 | 43.30621 | 22.84769 | 0° | 0km/h | 1644m | 0.0m/s | 11.3°C | 94.1% | 0hPa | 0V | 00:00:00 | 00:00:00 | 00:00:00 | |
| LZ4TU-5 | 2026-09-01 20:32:26 | 43.30621 | 22.84769 | 0° | 0km/h | 1644m | 0.0m/s | 11.3°C | 93.9% | 0hPa | 0V | 00:00:00 | 00:00:00 | 00:00:00 | |
| LZ4TU-5 | 2026-09-01 20:32:21 | 43.30621 | 22.84769 | 0° | 0km/h | 1644m | 0.0m/s | 11.3°C | 0% | 0hPa | 0V | 00:00:00 | 00:00:00 | 00:00:00 | |
| LZ4TU-5 | 2026-09-01 20:31:25 | 43.30621 | 22.84769 | 0° | 0km/h | 1644m | 0.0m/s | 11.3°C | 93.8% | 0hPa | 0V | 00:00:00 | 00:00:00 | 00:00:00 | |
| LZ4TU-5 | 2026-09-01 20:31:20 | 43.30621 | 22.84769 | 0° | 0km/h | 1644m | 0.0m/s | 11.3°C | 93.8% | 0hPa | 0V | 00:00:00 | 00:00:00 | 00:00:00 | |
| LZ4TU-5 | 2026-09-01 20:30:24 | 43.30621 | 22.84769 | 0° | 0km/h | 1644m | 0.0m/s | 11.3°C | 93.8% | 0hPa | 0V | 00:00:00 | 00:00:00 | 00:00:00 | |
| LZ4TU-5 | 2026-09-01 20:30:20 | 43.30621 | 22.84769 | 0° | 0km/h | 1644m | 0.0m/s | 11.3°C | 0% | 0hPa | 0V | 00:00:00 | 00:00:00 | 00:00:00 | |
| LZ4TU-5 | 2026-09-01 20:29:24 | 43.30621 | 22.84769 | 0° | 0km/h | 1644m | 0.0m/s | 11.3°C | 93.9% | 0hPa | 0V | 00:00:00 | 00:00:00 | 00:00:00 | |
| LZ4TU-5 | 2026-09-01 20:29:20 | 43.30621 | 22.84769 | 0° | 0km/h | 1644m | 0.0m/s | 11.4°C | 93.9% | 0hPa | 0V | 00:00:00 | 00:00:00 | 00:00:00 | |
| LZ4TU-5 | 2026-09-01 20:29:15 | 43.30621 | 22.84769 | 0° | 0km/h | 1644m | 0.0m/s | 11.3°C | 93.9% | 0hPa | 0V | 00:00:00 | 00:00:00 | 00:00:00 | |
| LZ4TU-5 | 2026-09-01 20:29:10 | 43.30621 | 22.84769 | 0° | 0km/h | 1644m | 0.0m/s | 11.4°C | 93.9% | 0hPa | 0V | 00:00:00 | 00:00:00 | 00:00:00 | |
| LZ4TU-5 | 2026-09-01 20:28:13 | 43.30621 | 22.84769 | 0° | 0km/h | 1644m | 0.0m/s | 11.4°C | 93.8% | 0hPa | 0V | 00:00:00 | 00:00:00 | 00:00:00 | |
| LZ4TU-5 | 2026-09-01 20:28:09 | 43.30621 | 22.84769 | 0° | 0km/h | 1644m | 0.0m/s | 11.3°C | 0% | 0hPa | 0V | 00:00:00 | 00:00:00 | 00:00:00 | |
| LZ4TU-5 | 2026-09-01 20:27:13 | 43.30621 | 22.84769 | 0° | 0km/h | 1644m | 0.0m/s | 11.4°C | 93.6% | 0hPa | 0V | 00:00:00 | 00:00:00 | 00:00:00 | |
| LZ4TU-5 | 2026-09-01 20:27:08 | 43.30621 | 22.84769 | 0° | 0km/h | 1644m | 0.0m/s | 11.4°C | 93.7% | 0hPa | 0V | 00:00:00 | 00:00:00 | 00:00:00 | |
| LZ4TU-5 | 2026-09-01 20:26:13 | 43.30621 | 22.84769 | 0° | 0km/h | 1644m | 0.0m/s | 11.4°C | 93.9% | 0hPa | 0V | 00:00:00 | 00:00:00 | 00:00:00 | |
| LZ4TU-5 | 2026-09-01 20:26:09 | 43.30621 | 22.84769 | 0° | 0km/h | 1644m | 0.0m/s | 11.4°C | 93.9% | 0hPa | 0V | 00:00:00 | 00:00:00 | 00:00:00 | |
| LZ4TU-5 | 2026-09-01 20:26:04 | 43.30621 | 22.84769 | 0° | 0km/h | 1644m | 0.0m/s | 11.4°C | 0% | 0hPa | 0V | 00:00:00 | 00:00:00 | 00:00:00 | |
| LZ4TU-5 | 2026-09-01 20:25:08 | 43.30621 | 22.84769 | 0° | 0km/h | 1644m | 0.0m/s | 11.4°C | 93.9% | 0hPa | 0V | 00:00:00 | 00:00:00 | 00:00:00 | |
| LZ4TU-5 | 2026-09-01 20:25:03 | 43.30621 | 22.84769 | 0° | 0km/h | 1643m | 0.0m/s | 11.4°C | 93.9% | 0hPa | 0V | 00:00:00 | 00:00:00 | 00:00:00 | |
| LZ4TU-5 | 2026-09-01 20:24:07 | 43.30621 | 22.84769 | 0° | 0km/h | 1644m | 0.0m/s | 11.4°C | 94.4% | 0hPa | 0V | 00:00:00 | 00:00:00 | 00:00:00 | |
| LZ4TU-5 | 2026-09-01 20:24:02 | 43.30621 | 22.84769 | 0° | 0km/h | 1644m | 0.0m/s | 11.4°C | 0% | 0hPa | 0V | 00:00:00 | 00:00:00 | 00:00:00 | |
| LZ4TU-5 | 2026-09-01 20:23:06 | 43.30621 | 22.84769 | 0° | 0km/h | 1644m | 0.0m/s | 11.4°C | 94.0% | 0hPa | 0V | 00:00:00 | 00:00:00 | 00:00:00 | |
| LZ4TU-5 | 2026-09-01 20:23:01 | 43.30621 | 22.84769 | 0° | 0km/h | 1643m | 0.0m/s | 11.5°C | 93.9% | 0hPa | 0V | 00:00:00 | 00:00:00 | 00:00:00 | |
| LZ4TU-5 | 2026-09-01 20:22:06 | 43.30621 | 22.84769 | 0° | 0km/h | 1644m | 0.0m/s | 11.5°C | 94.1% | 0hPa | 0V | 00:00:00 | 00:00:00 | 00:00:00 | |
| LZ4TU-5 | 2026-09-01 20:22:01 | 43.30621 | 22.84769 | 0° | 0km/h | 1644m | 0.0m/s | 11.5°C | 94.1% | 0hPa | 0V | 00:00:00 | 00:00:00 | 00:00:00 | |
| LZ4TU-5 | 2026-09-01 20:21:01 | 43.30621 | 22.84769 | 0° | 0km/h | 1644m | 0.0m/s | 11.5°C | 94.0% | 0hPa | 0V | 00:00:00 | 00:00:00 | 00:00:00 | |
| LZ4TU-5 | 2026-09-01 20:20:56 | 43.30621 | 22.84769 | 0° | 0km/h | 1644m | 0.0m/s | 11.5°C | 94.0% | 0hPa | 0V | 00:00:00 | 00:00:00 | 00:00:00 | |
| LZ4TU-5 | 2026-09-01 20:20:50 | 43.30621 | 22.84769 | 0° | 0km/h | 1644m | 0.0m/s | 11.5°C | 94.0% | 0hPa | 0V | 00:00:00 | 00:00:00 | 00:00:00 | |
| LZ4TU-5 | 2026-09-01 20:19:53 | 43.30621 | 22.84769 | 0° | 0km/h | 1644m | 0.0m/s | 11.5°C | 94.1% | 0hPa | 0V | 00:00:00 | 00:00:00 | 00:00:00 | |
| LZ4TU-5 | 2026-09-01 20:19:48 | 43.30621 | 22.84769 | 0° | 0km/h | 1644m | 0.0m/s | 11.5°C | 0% | 0hPa | 0V | 00:00:00 | 00:00:00 | 00:00:00 | |
| LZ4TU-5 | 2026-09-01 20:18:52 | 43.30621 | 22.84769 | 0° | 0km/h | 1644m | 0.0m/s | 11.5°C | 94.2% | 0hPa | 0V | 00:00:00 | 00:00:00 | 00:00:00 | |
| LZ4TU-5 | 2026-09-01 20:18:48 | 43.30621 | 22.84769 | 0° | 0km/h | 1644m | 0.0m/s | 11.5°C | 94.2% | 0hPa | 0V | 00:00:00 | 00:00:00 | 00:00:00 | |
| LZ4TU-5 | 2026-09-01 20:18:43 | 43.30621 | 22.84769 | 0° | 0km/h | 1644m | 0.0m/s | 11.5°C | 94.2% | 0hPa | 0V | 00:00:00 | 00:00:00 | 00:00:00 | |
| LZ4TU-5 | 2026-09-01 20:17:47 | 43.30621 | 22.84769 | 0° | 0km/h | 1644m | 0.0m/s | 11.5°C | 94.1% | 0hPa | 0V | 00:00:00 | 00:00:00 | 00:00:00 | |
| LZ4TU-5 | 2026-09-01 20:17:43 | 43.30621 | 22.84769 | 0° | 0km/h | 1644m | 0.0m/s | 11.5°C | 94.1% | 0hPa | 0V | 00:00:00 | 00:00:00 | 00:00:00 | |
| LZ4TU-5 | 2026-09-01 20:16:47 | 43.30621 | 22.84769 | 0° | 0km/h | 1644m | 0.0m/s | 11.5°C | 0% | 0hPa | 0V | 00:00:00 | 00:00:00 | 00:00:00 | |
| LZ4TU-5 | 2026-09-01 20:16:42 | 43.30621 | 22.84769 | 0° | 0km/h | 1644m | 0.0m/s | 11.6°C | 94.2% | 0hPa | 0V | 00:00:00 | 00:00:00 | 00:00:00 | |
| LZ4TU-5 | 2026-09-01 20:15:45 | 43.30621 | 22.84769 | 0° | 0km/h | 1644m | 0.0m/s | 11.5°C | 94.2% | 0hPa | 0V | 00:00:00 | 00:00:00 | 00:00:00 | |
| LZ4TU-5 | 2026-09-01 20:15:40 | 43.30621 | 22.84769 | 0° | 0km/h | 1644m | 0.0m/s | 11.6°C | 94.3% | 0hPa | 0V | 00:00:00 | 00:00:00 | 00:00:00 | |
| LZ4TU-5 | 2026-09-01 20:14:44 | 43.30621 | 22.84769 | 0° | 0km/h | 1644m | 0.0m/s | 11.5°C | 94.2% | 0hPa | 0V | 00:00:00 | 00:00:00 | 00:00:00 | |
| LZ4TU-5 | 2026-09-01 20:14:40 | 43.30621 | 22.84769 | 0° | 0km/h | 1644m | 0.0m/s | 11.6°C | 0% | 0hPa | 0V | 00:00:00 | 00:00:00 | 00:00:00 | |
| LZ4TU-5 | 2026-09-01 20:14:35 | 43.30621 | 22.84769 | 0° | 0km/h | 1644m | 0.0m/s | 11.5°C | 94.3% | 0hPa | 0V | 00:00:00 | 00:00:00 | 00:00:00 | |
| LZ4TU-5 | 2026-09-01 20:14:30 | 43.30621 | 22.84769 | 0° | 0km/h | 1644m | 0.0m/s | 11.6°C | 94.2% | 0hPa | 0V | 00:00:00 | 00:00:00 | 00:00:00 | |
| LZ4TU-5 | 2026-09-01 20:13:34 | 43.30621 | 22.84769 | 0° | 0km/h | 1644m | 0.0m/s | 11.5°C | 94.3% | 0hPa | 0V | 00:00:00 | 00:00:00 | 00:00:00 | |
| LZ4TU-5 | 2026-09-01 20:13:30 | 43.30621 | 22.84769 | 0° | 0km/h | 1644m | 0.0m/s | 11.6°C | 94.3% | 0hPa | 0V | 00:00:00 | 00:00:00 | 00:00:00 | |
| LZ4TU-5 | 2026-09-01 20:12:34 | 43.30621 | 22.84769 | 0° | 0km/h | 1644m | 0.0m/s | 11.5°C | 94.3% | 0hPa | 0V | 00:00:00 | 00:00:00 | 00:00:00 | |
| LZ4TU-5 | 2026-09-01 20:12:29 | 43.30621 | 22.84769 | 0° | 0km/h | 1644m | 0.0m/s | 11.5°C | 94.3% | 0hPa | 0V | 00:00:00 | 00:00:00 | 00:00:00 | |
| LZ4TU-5 | 2026-09-01 20:11:33 | 43.30621 | 22.84769 | 0° | 0km/h | 1644m | 0.0m/s | 11.5°C | 94.0% | 0hPa | 0V | 00:00:00 | 00:00:00 | 00:00:00 | |
| LZ4TU-5 | 2026-09-01 20:11:28 | 43.30621 | 22.84769 | 0° | 0km/h | 1644m | 0.0m/s | 11.5°C | 94.0% | 0hPa | 0V | 00:00:00 | 00:00:00 | 00:00:00 | |
| LZ4TU-5 | 2026-09-01 20:11:23 | 43.30621 | 22.84769 | 0° | 0km/h | 1644m | 0.0m/s | 11.5°C | 94.0% | 0hPa | 0V | 00:00:00 | 00:00:00 | 00:00:00 | |
| LZ4TU-5 | 2026-09-01 20:10:28 | 43.30621 | 22.84769 | 0° | 0km/h | 1644m | 0.0m/s | 11.4°C | 93.8% | 0hPa | 0V | 00:00:00 | 00:00:00 | 00:00:00 | |
| LZ4TU-5 | 2026-09-01 20:10:23 | 43.30621 | 22.84769 | 0° | 0km/h | 1644m | 0.0m/s | 11.4°C | 93.8% | 0hPa | 0V | 00:00:00 | 00:00:00 | 00:00:00 | |
| LZ4TU-5 | 2026-09-01 20:09:27 | 43.30621 | 22.84769 | 0° | 0km/h | 1644m | 0.0m/s | 11.4°C | 93.7% | 0hPa | 0V | 00:00:00 | 00:00:00 | 00:00:00 | |
| LZ4TU-5 | 2026-09-01 20:09:23 | 43.30621 | 22.84769 | 0° | 0km/h | 1644m | 0.0m/s | 11.4°C | 93.7% | 0hPa | 0V | 00:00:00 | 00:00:00 | 00:00:00 | |
| LZ4TU-5 | 2026-09-01 20:09:17 | 43.30621 | 22.84769 | 0° | 0km/h | 1644m | 0.0m/s | 11.4°C | 93.7% | 0hPa | 0V | 00:00:00 | 00:00:00 | 00:00:00 | |
| LZ4TU-5 | 2026-09-01 20:09:13 | 43.30621 | 22.84769 | 0° | 0km/h | 1644m | 0.0m/s | 11.4°C | 93.7% | 0hPa | 0V | 00:00:00 | 00:00:00 | 00:00:00 | |
| LZ4TU-5 | 2026-09-01 20:08:17 | 43.30621 | 22.84769 | 0° | 0km/h | 1644m | 0.0m/s | 11.5°C | 0% | 0hPa | 0V | 00:00:00 | 00:00:00 | 00:00:00 | |
| LZ4TU-5 | 2026-09-01 20:08:13 | 43.30621 | 22.84769 | 0° | 0km/h | 1644m | 0.0m/s | 11.5°C | 93.9% | 0hPa | 0V | 00:00:00 | 00:00:00 | 00:00:00 | |
| LZ4TU-5 | 2026-09-01 20:07:16 | 43.30621 | 22.84769 | 0° | 0km/h | 1644m | 0.0m/s | 11.5°C | 94.1% | 0hPa | 0V | 00:00:00 | 00:00:00 | 00:00:00 | |
| LZ4TU-5 | 2026-09-01 20:07:11 | 43.30621 | 22.84769 | 0° | 0km/h | 1644m | 0.0m/s | 11.5°C | 94.1% | 0hPa | 0V | 00:00:00 | 00:00:00 | 00:00:00 | |
| LZ4TU-5 | 2026-09-01 20:06:15 | 43.30621 | 22.84769 | 0° | 0km/h | 1644m | 0.0m/s | 11.5°C | 93.9% | 0hPa | 0V | 00:00:00 | 00:00:00 | 00:00:00 | |
| LZ4TU-5 | 2026-09-01 20:06:11 | 43.30621 | 22.84769 | 0° | 0km/h | 1644m | 0.0m/s | 11.6°C | 0% | 0hPa | 0V | 00:00:00 | 00:00:00 | 00:00:00 | |
| LZ4TU-5 | 2026-09-01 20:05:15 | 43.30621 | 22.84769 | 0° | 0km/h | 1644m | 0.0m/s | 11.6°C | 93.9% | 0hPa | 0V | 00:00:00 | 00:00:00 | 00:00:00 | |
| LZ4TU-5 | 2026-09-01 20:05:10 | 43.30621 | 22.84769 | 0° | 0km/h | 1644m | 0.0m/s | 11.6°C | 93.9% | 0hPa | 0V | 00:00:00 | 00:00:00 | 00:00:00 | |
| LZ4TU-5 | 2026-09-01 20:04:13 | 43.30621 | 22.84769 | 0° | 0km/h | 1644m | 0.0m/s | 11.6°C | 93.8% | 0hPa | 0V | 00:00:00 | 00:00:00 | 00:00:00 | |
| LZ4TU-5 | 2026-09-01 20:04:08 | 43.30621 | 22.84769 | 0° | 0km/h | 1644m | 0.0m/s | 11.6°C | 0% | 0hPa | 0V | 00:00:00 | 00:00:00 | 00:00:00 | |
| LZ4TU-5 | 2026-09-01 20:03:13 | 43.30621 | 22.84769 | 0° | 0km/h | 1644m | 0.0m/s | 11.6°C | 93.8% | 0hPa | 0V | 00:00:00 | 00:00:00 | 00:00:00 | |
| LZ4TU-5 | 2026-09-01 20:03:08 | 43.30621 | 22.84769 | 0° | 0km/h | 1644m | 0.0m/s | 11.6°C | 93.8% | 0hPa | 0V | 00:00:00 | 00:00:00 | 00:00:00 | |
| LZ4TU-5 | 2026-09-01 20:02:12 | 43.30621 | 22.84769 | 0° | 0km/h | 1644m | 0.0m/s | 11.6°C | 93.8% | 0hPa | 0V | 00:00:00 | 00:00:00 | 00:00:00 | |
| LZ4TU-5 | 2026-09-01 20:02:07 | 43.30621 | 22.84769 | 0° | 0km/h | 1644m | 0.0m/s | 11.6°C | 0% | 0hPa | 0V | 00:00:00 | 00:00:00 | 00:00:00 | |
| LZ4TU-5 | 2026-09-01 20:01:11 | 43.30621 | 22.84769 | 0° | 0km/h | 1644m | -0.0m/s | 11.7°C | 93.8% | 0hPa | 0V | 00:00:00 | 00:00:00 | 00:00:00 | |
| LZ4TU-5 | 2026-09-01 20:01:06 | 43.30621 | 22.84769 | 0° | 0km/h | 1644m | 0.0m/s | 11.6°C | 93.8% | 0hPa | 0V | 00:00:00 | 00:00:00 | 00:00:00 | |
| LZ4TU-5 | 2026-09-01 20:00:10 | 43.30621 | 22.84769 | 0° | 0km/h | 1644m | 0.0m/s | 11.7°C | 93.9% | 0hPa | 0V | 00:00:00 | 00:00:00 | 00:00:00 | |
| LZ4TU-5 | 2026-09-01 20:00:05 | 43.30621 | 22.84769 | 0° | 0km/h | 1644m | 0.0m/s | 11.7°C | 0% | 0hPa | 0V | 00:00:00 | 00:00:00 | 00:00:00 | |
| LZ4TU-5 | 2026-09-01 19:59:09 | 43.30621 | 22.84769 | 0° | 0km/h | 1644m | 0.0m/s | 11.6°C | 93.9% | 0hPa | 0V | 00:00:00 | 00:00:00 | 00:00:00 | |
| LZ4TU-5 | 2026-09-01 19:59:04 | 43.30621 | 22.84769 | 0° | 0km/h | 1644m | 0.0m/s | 11.7°C | 93.9% | 0hPa | 0V | 00:00:00 | 00:00:00 | 00:00:00 | |
| LZ4TU-5 | 2026-09-01 19:58:09 | 43.30621 | 22.84769 | 0° | 0km/h | 1644m | 0.0m/s | 11.7°C | 93.9% | 0hPa | 0V | 00:00:00 | 00:00:00 | 00:00:00 | |
| LZ4TU-5 | 2026-09-01 19:58:04 | 43.30621 | 22.84769 | 0° | 0km/h | 1644m | 0.0m/s | 11.7°C | 0% | 0hPa | 0V | 00:00:00 | 00:00:00 | 00:00:00 | |
| LZ4TU-5 | 2026-09-01 19:57:08 | 43.30621 | 22.84769 | 0° | 0km/h | 1644m | 0.0m/s | 11.7°C | 94.0% | 0hPa | 0V | 00:00:00 | 00:00:00 | 00:00:00 | |
| LZ4TU-5 | 2026-09-01 19:57:03 | 43.30621 | 22.84769 | 0° | 0km/h | 1644m | 0.0m/s | 11.7°C | 94.0% | 0hPa | 0V | 00:00:00 | 00:00:00 | 00:00:00 | |
| LZ4TU-5 | 2026-09-01 19:56:07 | 43.30621 | 22.84769 | 0° | 0km/h | 1644m | 0.0m/s | 11.7°C | 94.1% | 0hPa | 0V | 00:00:00 | 00:00:00 | 00:00:00 | |
| LZ4TU-5 | 2026-09-01 19:56:02 | 43.30621 | 22.84769 | 0° | 0km/h | 1644m | 0.0m/s | 11.7°C | 0% | 0hPa | 0V | 00:00:00 | 00:00:00 | 00:00:00 | |
| LZ4TU-5 | 2026-09-01 19:55:06 | 43.30621 | 22.84769 | 0° | 0km/h | 1644m | 0.0m/s | 11.7°C | 94.2% | 0hPa | 0V | 00:00:00 | 00:00:00 | 00:00:00 | |
| LZ4TU-5 | 2026-09-01 19:55:02 | 43.30621 | 22.84769 | 0° | 0km/h | 1644m | 0.0m/s | 11.7°C | 94.2% | 0hPa | 0V | 00:00:00 | 00:00:00 | 00:00:00 | |
| LZ4TU-5 | 2026-09-01 19:54:06 | 43.30621 | 22.84769 | 0° | 0km/h | 1644m | 0.0m/s | 11.7°C | 94.3% | 0hPa | 0V | 00:00:00 | 00:00:00 | 00:00:00 | |
| LZ4TU-5 | 2026-09-01 19:54:02 | 43.30621 | 22.84769 | 0° | 0km/h | 1644m | 0.0m/s | 11.8°C | 0% | 0hPa | 0V | 00:00:00 | 00:00:00 | 00:00:00 | |
| LZ4TU-5 | 2026-09-01 19:53:05 | 43.30621 | 22.84769 | 0° | 0km/h | 1644m | 0.0m/s | 11.7°C | 94.5% | 0hPa | 0V | 00:00:00 | 00:00:00 | 00:00:00 | |
| LZ4TU-5 | 2026-09-01 19:53:00 | 43.30621 | 22.84769 | 0° | 0km/h | 1644m | 0.0m/s | 11.7°C | 94.5% | 0hPa | 0V | 00:00:00 | 00:00:00 | 00:00:00 | |
| LZ4TU-5 | 2026-09-01 19:52:04 | 43.30621 | 22.84769 | 0° | 0km/h | 1644m | 0.0m/s | 11.7°C | 94.7% | 0hPa | 0V | 00:00:00 | 00:00:00 | 00:00:00 | |
| LZ4TU-5 | 2026-09-01 19:51:59 | 43.30621 | 22.84769 | 0° | 0km/h | 1644m | 0.0m/s | 11.7°C | 0% | 0hPa | 0V | 00:00:00 | 00:00:00 | 00:00:00 | |
| LZ4TU-5 | 2026-09-01 19:51:04 | 43.30621 | 22.84769 | 0° | 0km/h | 1644m | 0.0m/s | 11.6°C | 94.4% | 0hPa | 0V | 00:00:00 | 00:00:00 | 00:00:00 | |
| LZ4TU-5 | 2026-09-01 19:51:00 | 43.30621 | 22.84769 | 0° | 0km/h | 1644m | 0.0m/s | 11.6°C | 94.3% | 0hPa | 0V | 00:00:00 | 00:00:00 | 00:00:00 | |
| LZ4TU-5 | 2026-09-01 19:50:55 | 43.30621 | 22.84769 | 0° | 0km/h | 1644m | 0.0m/s | 11.6°C | 94.3% | 0hPa | 0V | 00:00:00 | 00:00:00 | 00:00:00 | |
| LZ4TU-5 | 2026-09-01 19:50:50 | 43.30621 | 22.84769 | 0° | 0km/h | 1644m | 0.0m/s | 11.6°C | 94.3% | 0hPa | 0V | 00:00:00 | 00:00:00 | 00:00:00 | |
| LZ4TU-5 | 2026-09-01 19:49:54 | 43.30621 | 22.84769 | 0° | 0km/h | 1644m | 0.0m/s | 11.6°C | 94.1% | 0hPa | 0V | 00:00:00 | 00:00:00 | 00:00:00 | |
| LZ4TU-5 | 2026-09-01 19:49:49 | 43.30621 | 22.84769 | 0° | 0km/h | 1644m | 0.0m/s | 11.6°C | 94.1% | 0hPa | 0V | 00:00:00 | 00:00:00 | 00:00:00 | |
| LZ4TU-5 | 2026-09-01 19:49:45 | 43.30621 | 22.84769 | 0° | 0km/h | 1644m | 0.0m/s | 11.6°C | 94.0% | 0hPa | 0V | 00:00:00 | 00:00:00 | 00:00:00 | |
| LZ4TU-5 | 2026-09-01 19:49:40 | 43.30621 | 22.84769 | 0° | 0km/h | 1644m | 0.0m/s | 11.6°C | 0% | 0hPa | 0V | 00:00:00 | 00:00:00 | 00:00:00 | |
| LZ4TU-5 | 2026-09-01 19:48:45 | 43.30621 | 22.84769 | 0° | 0km/h | 1643m | -0.0m/s | 11.6°C | 94.1% | 0hPa | 0V | 00:00:00 | 00:00:00 | 00:00:00 | |
| LZ4TU-5 | 2026-09-01 19:48:40 | 43.30621 | 22.84769 | 0° | 0km/h | 1643m | 0.0m/s | 11.6°C | 94.1% | 0hPa | 0V | 00:00:00 | 00:00:00 | 00:00:00 | |
| LZ4TU-5 | 2026-09-01 19:47:44 | 43.30621 | 22.84769 | 0° | 0km/h | 1644m | 0.0m/s | 11.6°C | 93.9% | 0hPa | 0V | 00:00:00 | 00:00:00 | 00:00:00 | |
| LZ4TU-5 | 2026-09-01 19:47:40 | 43.30621 | 22.84769 | 0° | 0km/h | 1644m | 0.0m/s | 11.6°C | 0% | 0hPa | 0V | 00:00:00 | 00:00:00 | 00:00:00 | |
| LZ4TU-5 | 2026-09-01 19:46:44 | 43.30621 | 22.84769 | 0° | 0km/h | 1643m | 0.0m/s | 11.6°C | 94.8% | 0hPa | 0V | 00:00:00 | 00:00:00 | 00:00:00 | |
| LZ4TU-5 | 2026-09-01 19:46:39 | 43.30621 | 22.84769 | 0° | 0km/h | 1643m | 0.0m/s | 11.6°C | 94.7% | 0hPa | 0V | 00:00:00 | 00:00:00 | 00:00:00 | |
| LZ4TU-5 | 2026-09-01 19:45:43 | 43.30621 | 22.84769 | 0° | 0km/h | 1643m | 0.0m/s | 11.6°C | 94.5% | 0hPa | 0V | 00:00:00 | 00:00:00 | 00:00:00 | |
| LZ4TU-5 | 2026-09-01 19:45:38 | 43.30621 | 22.84769 | 0° | 0km/h | 1643m | 0.0m/s | 11.6°C | 0% | 0hPa | 0V | 00:00:00 | 00:00:00 | 00:00:00 | |
| LZ4TU-5 | 2026-09-01 19:44:42 | 43.30621 | 22.84769 | 0° | 0km/h | 1643m | 0.0m/s | 11.6°C | 95.2% | 0hPa | 0V | 00:00:00 | 00:00:00 | 00:00:00 | |
| LZ4TU-5 | 2026-09-01 19:44:38 | 43.30621 | 22.84769 | 0° | 0km/h | 1644m | 0.0m/s | 11.6°C | 95.1% | 0hPa | 0V | 00:00:00 | 00:00:00 | 00:00:00 | |
| LZ4TU-5 | 2026-09-01 19:43:42 | 43.30621 | 22.84769 | 0° | 0km/h | 1643m | 0.0m/s | 11.7°C | 94.5% | 0hPa | 0V | 00:00:00 | 00:00:00 | 00:00:00 | |
| LZ4TU-5 | 2026-09-01 19:43:38 | 43.30621 | 22.84769 | 0° | 0km/h | 1643m | 0.0m/s | 11.6°C | 0% | 0hPa | 0V | 00:00:00 | 00:00:00 | 00:00:00 | |
| LZ4TU-5 | 2026-09-01 19:42:42 | 43.30621 | 22.84769 | 0° | 0km/h | 1643m | 0.0m/s | 11.6°C | 94.4% | 0hPa | 0V | 00:00:00 | 00:00:00 | 00:00:00 | |
| LZ4TU-5 | 2026-09-01 19:42:38 | 43.30621 | 22.84769 | 0° | 0km/h | 1643m | 0.0m/s | 11.6°C | 94.4% | 0hPa | 0V | 00:00:00 | 00:00:00 | 00:00:00 | |
| LZ4TU-5 | 2026-09-01 19:41:43 | 43.30621 | 22.84769 | 0° | 0km/h | 1643m | 0.0m/s | 11.5°C | 93.7% | 0hPa | 0V | 00:00:00 | 00:00:00 | 00:00:00 | |
| LZ4TU-5 | 2026-09-01 19:41:39 | 43.30621 | 22.84769 | 0° | 0km/h | 1643m | 0.0m/s | 11.5°C | 93.6% | 0hPa | 0V | 00:00:00 | 00:00:00 | 00:00:00 | |
| LZ4TU-5 | 2026-09-01 19:41:34 | 43.30621 | 22.84769 | 0° | 0km/h | 1643m | 0.0m/s | 11.5°C | 93.6% | 0hPa | 0V | 00:00:00 | 00:00:00 | 00:00:00 | |
| LZ4TU-5 | 2026-09-01 19:41:30 | 43.30621 | 22.84769 | 0° | 0km/h | 1643m | -0.0m/s | 11.6°C | 0% | 0hPa | 0V | 00:00:00 | 00:00:00 | 00:00:00 | |
| LZ4TU-5 | 2026-09-01 19:40:34 | 43.30621 | 22.84769 | 0° | 0km/h | 1643m | 0.0m/s | 11.6°C | 93.4% | 0hPa | 0V | 00:00:00 | 00:00:00 | 00:00:00 | |
| LZ4TU-5 | 2026-09-01 19:40:29 | 43.30621 | 22.84769 | 0° | 0km/h | 1643m | 0.0m/s | 11.6°C | 93.4% | 0hPa | 0V | 00:00:00 | 00:00:00 | 00:00:00 | |
| LZ4TU-5 | 2026-09-01 19:39:33 | 43.30621 | 22.84769 | 0° | 0km/h | 1643m | 0.0m/s | 11.6°C | 94.1% | 0hPa | 0V | 00:00:00 | 00:00:00 | 00:00:00 | |
| LZ4TU-5 | 2026-09-01 19:39:29 | 43.30621 | 22.84769 | 0° | 0km/h | 1643m | 0.0m/s | 11.6°C | 94.1% | 0hPa | 0V | 00:00:00 | 00:00:00 | 00:00:00 | |
| LZ4TU-5 | 2026-09-01 19:38:33 | 43.30621 | 22.84769 | 0° | 0km/h | 1643m | 0.0m/s | 11.6°C | 93.9% | 0hPa | 0V | 00:00:00 | 00:00:00 | 00:00:00 | |
| LZ4TU-5 | 2026-09-01 19:38:29 | 43.30621 | 22.84769 | 0° | 0km/h | 1643m | 0.0m/s | 11.6°C | 94.1% | 0hPa | 0V | 00:00:00 | 00:00:00 | 00:00:00 | |
| LZ4TU-5 | 2026-09-01 19:37:33 | 43.30621 | 22.84769 | 0° | 0km/h | 1643m | 0.0m/s | 11.7°C | 94.4% | 0hPa | 0V | 00:00:00 | 00:00:00 | 00:00:00 | |
| LZ4TU-5 | 2026-09-01 19:37:28 | 43.30621 | 22.84769 | 0° | 0km/h | 1643m | 0.0m/s | 11.7°C | 94.2% | 0hPa | 0V | 00:00:00 | 00:00:00 | 00:00:00 | |
| LZ4TU-5 | 2026-09-01 19:36:32 | 43.30621 | 22.84769 | 0° | 0km/h | 1643m | 0.0m/s | 11.7°C | 94.6% | 0hPa | 0V | 00:00:00 | 00:00:00 | 00:00:00 | |
| LZ4TU-5 | 2026-09-01 19:36:27 | 43.30621 | 22.84769 | 0° | 0km/h | 1643m | 0.0m/s | 11.7°C | 0% | 0hPa | 0V | 00:00:00 | 00:00:00 | 00:00:00 | |
| LZ4TU-5 | 2026-09-01 19:35:31 | 43.30621 | 22.84769 | 0° | 0km/h | 1643m | 0.0m/s | 11.9°C | 95.1% | 0hPa | 0V | 00:00:00 | 00:00:00 | 00:00:00 | |
| LZ4TU-5 | 2026-09-01 19:35:26 | 43.30621 | 22.84769 | 0° | 0km/h | 1643m | 0.0m/s | 11.9°C | 95.1% | 0hPa | 0V | 00:00:00 | 00:00:00 | 00:00:00 | |
| LZ4TU-5 | 2026-09-01 19:34:30 | 43.30621 | 22.84769 | 0° | 0km/h | 1643m | 0.0m/s | 11.8°C | 95.4% | 0hPa | 0V | 00:00:00 | 00:00:00 | 00:00:00 | |
| LZ4TU-5 | 2026-09-01 19:34:26 | 43.30621 | 22.84769 | 0° | 0km/h | 1643m | 0.0m/s | 11.8°C | 0% | 0hPa | 0V | 00:00:00 | 00:00:00 | 00:00:00 | |
| LZ4TU-5 | 2026-09-01 19:33:29 | 43.30621 | 22.84769 | 0° | 0km/h | 1644m | 0.0m/s | 11.7°C | 95.3% | 0hPa | 0V | 00:00:00 | 00:00:00 | 00:00:00 | |
| LZ4TU-5 | 2026-09-01 19:33:25 | 43.30621 | 22.84769 | 0° | 0km/h | 1644m | -0.0m/s | 11.7°C | 95.2% | 0hPa | 0V | 00:00:00 | 00:00:00 | 00:00:00 | |
| LZ4TU-5 | 2026-09-01 19:32:29 | 43.30621 | 22.84769 | 0° | 0km/h | 1644m | 0.0m/s | 11.7°C | 94.4% | 0hPa | 0V | 00:00:00 | 00:00:00 | 00:00:00 | |
| LZ4TU-5 | 2026-09-01 19:32:24 | 43.30621 | 22.84769 | 0° | 0km/h | 1644m | 0.0m/s | 11.7°C | 0% | 0hPa | 0V | 00:00:00 | 00:00:00 | 00:00:00 | |
| LZ4TU-5 | 2026-09-01 19:31:27 | 43.30621 | 22.84769 | 0° | 0km/h | 1644m | 0.0m/s | 11.7°C | 93.7% | 0hPa | 0V | 00:00:00 | 00:00:00 | 00:00:00 | |
| LZ4TU-5 | 2026-09-01 19:31:23 | 43.30621 | 22.84769 | 0° | 0km/h | 1644m | 0.0m/s | 11.7°C | 93.7% | 0hPa | 0V | 00:00:00 | 00:00:00 | 00:00:00 | |
| LZ4TU-5 | 2026-09-01 19:30:27 | 43.30621 | 22.84769 | 0° | 0km/h | 1644m | 0.0m/s | 11.7°C | 93.5% | 0hPa | 0V | 00:00:00 | 00:00:00 | 00:00:00 | |
| LZ4TU-5 | 2026-09-01 19:30:22 | 43.30621 | 22.84769 | 0° | 0km/h | 1644m | 0.0m/s | 11.7°C | 0% | 0hPa | 0V | 00:00:00 | 00:00:00 | 00:00:00 | |
| LZ4TU-5 | 2026-09-01 19:29:24 | 43.30621 | 22.84769 | 0° | 0km/h | 1644m | 0.0m/s | 11.8°C | 93.6% | 0hPa | 0V | 00:00:00 | 00:00:00 | 00:00:00 | |
| LZ4TU-5 | 2026-09-01 19:29:20 | 43.30621 | 22.84769 | 0° | 0km/h | 1644m | 0.0m/s | 11.8°C | 93.6% | 0hPa | 0V | 00:00:00 | 00:00:00 | 00:00:00 | |
| LZ4TU-5 | 2026-09-01 19:28:20 | 43.30621 | 22.84769 | 0° | 0km/h | 1644m | 0.0m/s | 11.9°C | 93.8% | 0hPa | 0V | 00:00:00 | 00:00:00 | 00:00:00 | |
| LZ4TU-5 | 2026-09-01 19:28:15 | 43.30621 | 22.84769 | 0° | 0km/h | 1644m | 0.0m/s | 11.9°C | 93.8% | 0hPa | 0V | 00:00:00 | 00:00:00 | 00:00:00 | |
| LZ4TU-5 | 2026-09-01 19:28:10 | 43.30621 | 22.84769 | 0° | 0km/h | 1644m | 0.0m/s | 11.9°C | 0% | 0hPa | 0V | 00:00:00 | 00:00:00 | 00:00:00 | |
| LZ4TU-5 | 2026-09-01 19:27:14 | 43.30621 | 22.84769 | 0° | 0km/h | 1644m | 0.0m/s | 11.9°C | 93.7% | 0hPa | 0V | 00:00:00 | 00:00:00 | 00:00:00 | |
| LZ4TU-5 | 2026-09-01 19:27:09 | 43.30621 | 22.84769 | 0° | 0km/h | 1644m | 0.0m/s | 11.9°C | 93.8% | 0hPa | 0V | 00:00:00 | 00:00:00 | 00:00:00 | |
| LZ4TU-5 | 2026-09-01 19:26:13 | 43.30621 | 22.84769 | 0° | 0km/h | 1644m | 0.0m/s | 12.0°C | 93.9% | 0hPa | 0V | 00:00:00 | 00:00:00 | 00:00:00 | |
| LZ4TU-5 | 2026-09-01 19:26:08 | 43.30621 | 22.84769 | 0° | 0km/h | 1644m | 0.0m/s | 11.9°C | 0% | 0hPa | 0V | 00:00:00 | 00:00:00 | 00:00:00 | |
| LZ4TU-5 | 2026-09-01 19:25:13 | 43.30621 | 22.84769 | 0° | 0km/h | 1644m | 0.0m/s | 12.1°C | 94.3% | 0hPa | 0V | 00:00:00 | 00:00:00 | 00:00:00 | |
| LZ4TU-5 | 2026-09-01 19:25:08 | 43.30621 | 22.84769 | 0° | 0km/h | 1644m | 0.0m/s | 12.0°C | 94.4% | 0hPa | 0V | 00:00:00 | 00:00:00 | 00:00:00 | |
| LZ4TU-5 | 2026-09-01 19:24:12 | 43.30621 | 22.84769 | 0° | 0km/h | 1644m | 0.0m/s | 12.0°C | 93.9% | 0hPa | 0V | 00:00:00 | 00:00:00 | 00:00:00 | |
| LZ4TU-5 | 2026-09-01 19:24:07 | 43.30621 | 22.84769 | 0° | 0km/h | 1644m | 0.0m/s | 12.0°C | 0% | 0hPa | 0V | 00:00:00 | 00:00:00 | 00:00:00 | |
| LZ4TU-5 | 2026-09-01 19:23:10 | 43.30621 | 22.84769 | 0° | 0km/h | 1644m | 0.0m/s | 12.1°C | 94.1% | 0hPa | 0V | 00:00:00 | 00:00:00 | 00:00:00 | |
| LZ4TU-5 | 2026-09-01 19:23:06 | 43.30621 | 22.84769 | 0° | 0km/h | 1644m | 0.0m/s | 12.1°C | 94.1% | 0hPa | 0V | 00:00:00 | 00:00:00 | 00:00:00 | |
| LZ4TU-5 | 2026-09-01 19:22:10 | 43.30621 | 22.84769 | 0° | 0km/h | 1644m | 0.0m/s | 12.1°C | 94.3% | 0hPa | 0V | 00:00:00 | 00:00:00 | 00:00:00 | |
| LZ4TU-5 | 2026-09-01 19:22:06 | 43.30621 | 22.84769 | 0° | 0km/h | 1644m | 0.0m/s | 12.1°C | 0% | 0hPa | 0V | 00:00:00 | 00:00:00 | 00:00:00 | |
| LZ4TU-5 | 2026-09-01 19:21:11 | 43.30621 | 22.84769 | 0° | 0km/h | 1644m | 0.0m/s | 12.1°C | 93.8% | 0hPa | 0V | 00:00:00 | 00:00:00 | 00:00:00 | |
| LZ4TU-5 | 2026-09-01 19:21:06 | 43.30621 | 22.84769 | 0° | 0km/h | 1644m | 0.0m/s | 12.1°C | 93.7% | 0hPa | 0V | 00:00:00 | 00:00:00 | 00:00:00 | |
| LZ4TU-5 | 2026-09-01 19:20:11 | 43.30621 | 22.84769 | 0° | 0km/h | 1644m | 0.0m/s | 12.2°C | 93.8% | 0hPa | 0V | 00:00:00 | 00:00:00 | 00:00:00 | |
| LZ4TU-5 | 2026-09-01 19:20:06 | 43.30621 | 22.84769 | 0° | 0km/h | 1644m | -0.0m/s | 12.2°C | 0% | 0hPa | 0V | 00:00:00 | 00:00:00 | 00:00:00 | |
| LZ4TU-5 | 2026-09-01 19:19:10 | 43.30621 | 22.84769 | 0° | 0km/h | 1644m | 0.0m/s | 12.2°C | 93.3% | 0hPa | 0V | 00:00:00 | 00:00:00 | 00:00:00 | |
| LZ4TU-5 | 2026-09-01 19:19:05 | 43.30621 | 22.84769 | 0° | 0km/h | 1644m | 0.0m/s | 12.2°C | 93.3% | 0hPa | 0V | 00:00:00 | 00:00:00 | 00:00:00 | |
| LZ4TU-5 | 2026-09-01 19:18:09 | 43.30621 | 22.84769 | 0° | 0km/h | 1644m | -0.1m/s | 12.3°C | 93.3% | 0hPa | 0V | 00:00:00 | 00:00:00 | 00:00:00 | |
| LZ4TU-5 | 2026-09-01 19:18:04 | 43.30621 | 22.84769 | 0° | 0km/h | 1644m | -0.1m/s | 12.3°C | 0% | 0hPa | 0V | 00:00:00 | 00:00:00 | 00:00:00 | |
| LZ4TU-5 | 2026-09-01 19:17:07 | 43.30621 | 22.84769 | 0° | 0km/h | 1644m | 0.0m/s | 12.4°C | 93.6% | 0hPa | 0V | 00:00:00 | 00:00:00 | 00:00:00 | |
| LZ4TU-5 | 2026-09-01 19:17:02 | 43.30621 | 22.84769 | 0° | 0km/h | 1644m | 0.0m/s | 12.5°C | 93.7% | 0hPa | 0V | 00:00:00 | 00:00:00 | 00:00:00 | |
| LZ4TU-5 | 2026-09-01 19:16:05 | 43.30621 | 22.84769 | 0° | 0km/h | 1644m | 0.0m/s | 12.5°C | 93.2% | 0hPa | 0V | 00:00:00 | 00:00:00 | 00:00:00 | |
| LZ4TU-5 | 2026-09-01 19:16:00 | 43.30621 | 22.84769 | 0° | 0km/h | 1644m | -0.0m/s | 12.5°C | 0% | 0hPa | 0V | 00:00:00 | 00:00:00 | 00:00:00 | |
| LZ4TU-5 | 2026-09-01 19:15:04 | 43.30621 | 22.84769 | 0° | 0km/h | 1644m | 0.0m/s | 12.6°C | 93.3% | 0hPa | 0V | 00:00:00 | 00:00:00 | 00:00:00 | |
| LZ4TU-5 | 2026-09-01 19:14:59 | 43.30621 | 22.84769 | 0° | 0km/h | 1644m | 0.0m/s | 12.5°C | 93.3% | 0hPa | 0V | 00:00:00 | 00:00:00 | 00:00:00 | |
| LZ4TU-5 | 2026-09-01 19:14:03 | 43.30621 | 22.84769 | 0° | 0km/h | 1644m | 0.0m/s | 12.5°C | 93.4% | 0hPa | 0V | 00:00:00 | 00:00:00 | 00:00:00 | |
| LZ4TU-5 | 2026-09-01 17:24:35 | 43.30621 | 22.84769 | 0° | 0km/h | 1643m | 0.0m/s | 13.1°C | 93.9% | 0hPa | 0V | 00:00:00 | 00:00:00 | 00:00:00 | |
| LZ4TU-5 | 2026-09-01 17:24:27 | 43.30621 | 22.84769 | 0° | 0km/h | 1643m | 0.0m/s | 13.0°C | 94.0% | 0hPa | 0V | 00:00:00 | 00:00:00 | 00:00:00 | |
| LZ4TU-5 | 2026-09-01 17:23:25 | 43.30621 | 22.84769 | 0° | 0km/h | 1643m | 0.0m/s | 13.2°C | 94.2% | 0hPa | 0V | 00:00:00 | 00:00:00 | 00:00:00 | |
| LZ4TU-5 | 2026-09-01 17:23:21 | 43.30621 | 22.84769 | 0° | 0km/h | 1643m | 0.0m/s | 13.3°C | 94.1% | 0hPa | 0V | 00:00:00 | 00:00:00 | 00:00:00 | |
| LZ4TU-5 | 2026-09-01 17:22:17 | 43.30621 | 22.84769 | 0° | 0km/h | 1643m | 0.0m/s | 13.2°C | 94.3% | 0hPa | 0V | 00:00:00 | 00:00:00 | 00:00:00 | |
| LZ4TU-5 | 2026-09-01 17:22:12 | 43.30621 | 22.84769 | 0° | 0km/h | 1643m | 0.0m/s | 13.2°C | 94.2% | 0hPa | 0V | 00:00:00 | 00:00:00 | 00:00:00 | |
| LZ4TU-5 | 2026-09-01 17:21:11 | 43.30621 | 22.84769 | 0° | 0km/h | 1643m | 0.0m/s | 13.3°C | 93.5% | 0hPa | 0V | 00:00:00 | 00:00:00 | 00:00:00 | |
| LZ4TU-5 | 2026-09-01 17:21:06 | 43.30621 | 22.84769 | 0° | 0km/h | 1643m | 0.0m/s | 13.2°C | 93.1% | 0hPa | 0V | 00:00:00 | 00:00:00 | 00:00:00 | |
| LZ4TU-5 | 2026-09-01 17:20:04 | 43.30621 | 22.84769 | 0° | 0km/h | 1643m | 0.0m/s | 13.2°C | 93.4% | 0hPa | 0V | 00:00:00 | 00:00:00 | 00:00:00 | |
| LZ4TU-5 | 2026-09-01 17:20:00 | 43.30621 | 22.84769 | 0° | 0km/h | 1643m | 0.0m/s | 13.2°C | 93.6% | 0hPa | 0V | 00:00:00 | 00:00:00 | 00:00:00 | |
| LZ4TU-5 | 2026-09-01 17:18:59 | 43.30621 | 22.84769 | 0° | 0km/h | 1643m | 0.0m/s | 13.3°C | 93.8% | 0hPa | 0V | 00:00:00 | 00:00:00 | 00:00:00 | |
| LZ4TU-5 | 2026-09-01 17:18:55 | 43.30621 | 22.84769 | 0° | 0km/h | 1643m | 0.0m/s | 13.2°C | 0% | 0hPa | 0V | 00:00:00 | 00:00:00 | 00:00:00 | |
| LZ4TU-5 | 2026-09-01 17:18:00 | 43.30621 | 22.84769 | 0° | 0km/h | 1643m | 0.0m/s | 13.2°C | 93.9% | 0hPa | 0V | 00:00:00 | 00:00:00 | 00:00:00 | |
| LZ4TU-5 | 2026-09-01 17:17:55 | 43.30621 | 22.84769 | 0° | 0km/h | 1643m | 0.0m/s | 13.2°C | 94.0% | 0hPa | 0V | 00:00:00 | 00:00:00 | 00:00:00 | |
| LZ4TU-5 | 2026-09-01 17:16:59 | 43.30621 | 22.84769 | 0° | 0km/h | 1643m | 0.0m/s | 13.4°C | 94.4% | 0hPa | 0V | 00:00:00 | 00:00:00 | 00:00:00 | |
| LZ4TU-5 | 2026-09-01 17:16:54 | 43.30621 | 22.84769 | 0° | 0km/h | 1643m | 0.0m/s | 13.4°C | 94.2% | 0hPa | 0V | 00:00:00 | 00:00:00 | 00:00:00 | |
| LZ4TU-5 | 2026-09-01 17:15:59 | 43.30621 | 22.84769 | 0° | 0km/h | 1643m | 0.0m/s | 13.4°C | 93.7% | 0hPa | 0V | 00:00:00 | 00:00:00 | 00:00:00 | |
| LZ4TU-5 | 2026-09-01 17:15:54 | 43.30621 | 22.84769 | 0° | 0km/h | 1643m | 0.0m/s | 13.3°C | 0% | 0hPa | 0V | 00:00:00 | 00:00:00 | 00:00:00 | |
| LZ4TU-5 | 2026-09-01 17:14:58 | 43.30621 | 22.84769 | 0° | 0km/h | 1643m | 0.0m/s | 13.4°C | 93.9% | 0hPa | 0V | 00:00:00 | 00:00:00 | 00:00:00 | |
| LZ4TU-5 | 2026-09-01 17:14:53 | 43.30621 | 22.84769 | 0° | 0km/h | 1643m | 0.0m/s | 13.4°C | 93.9% | 0hPa | 0V | 00:00:00 | 00:00:00 | 00:00:00 | |
| LZ4TU-5 | 2026-09-01 17:13:56 | 43.30621 | 22.84769 | 0° | 0km/h | 1643m | 0.0m/s | 13.4°C | 93.1% | 0hPa | 0V | 00:00:00 | 00:00:00 | 00:00:00 | |
| LZ4TU-5 | 2026-09-01 17:13:51 | 43.30621 | 22.84769 | 0° | 0km/h | 1643m | 0.0m/s | 13.3°C | 0% | 0hPa | 0V | 00:00:00 | 00:00:00 | 00:00:00 | |
| LZ4TU-5 | 2026-09-01 17:12:55 | 43.30621 | 22.84769 | 0° | 0km/h | 1643m | 0.0m/s | 13.4°C | 93.4% | 0hPa | 0V | 00:00:00 | 00:00:00 | 00:00:00 | |
| LZ4TU-5 | 2026-09-01 17:12:51 | 43.30621 | 22.84769 | 0° | 0km/h | 1643m | 0.0m/s | 13.5°C | 93.5% | 0hPa | 0V | 00:00:00 | 00:00:00 | 00:00:00 | |
| LZ4TU-5 | 2026-09-01 17:11:55 | 43.30621 | 22.84769 | 0° | 0km/h | 1643m | 0.0m/s | 13.5°C | 93.4% | 0hPa | 0V | 00:00:00 | 00:00:00 | 00:00:00 | |
| LZ4TU-5 | 2026-09-01 17:11:51 | 43.30621 | 22.84769 | 0° | 0km/h | 1643m | 0.0m/s | 13.5°C | 0% | 0hPa | 0V | 00:00:00 | 00:00:00 | 00:00:00 | |
| LZ4TU-5 | 2026-09-01 17:10:55 | 43.30621 | 22.84769 | 0° | 0km/h | 1643m | 0.0m/s | 13.5°C | 93.2% | 0hPa | 0V | 00:00:00 | 00:00:00 | 00:00:00 | |
| LZ4TU-5 | 2026-09-01 17:10:50 | 43.30621 | 22.84769 | 0° | 0km/h | 1643m | 0.0m/s | 13.5°C | 93.1% | 0hPa | 0V | 00:00:00 | 00:00:00 | 00:00:00 | |
| LZ4TU-5 | 2026-09-01 17:09:54 | 43.30621 | 22.84769 | 0° | 0km/h | 1643m | 0.0m/s | 13.6°C | 93.6% | 0hPa | 0V | 00:00:00 | 00:00:00 | 00:00:00 | |
| LZ4TU-5 | 2026-09-01 17:09:49 | 43.30621 | 22.84769 | 0° | 0km/h | 1643m | 0.0m/s | 13.6°C | 93.8% | 0hPa | 0V | 00:00:00 | 00:00:00 | 00:00:00 | |
| LZ4TU-5 | 2026-09-01 17:08:52 | 43.30621 | 22.84769 | 0° | 0km/h | 1643m | 0.0m/s | 13.6°C | 93.4% | 0hPa | 0V | 00:00:00 | 00:00:00 | 00:00:00 | |
| LZ4TU-5 | 2026-09-01 17:08:47 | 43.30621 | 22.84769 | 0° | 0km/h | 1643m | 0.0m/s | 13.6°C | 0% | 0hPa | 0V | 00:00:00 | 00:00:00 | 00:00:00 | |
| LZ4TU-5 | 2026-09-01 17:07:50 | 43.30621 | 22.84769 | 0° | 0km/h | 1643m | 0.0m/s | 13.8°C | 94.6% | 0hPa | 0V | 00:00:00 | 00:00:00 | 00:00:00 | |
| LZ4TU-5 | 2026-09-01 17:07:46 | 43.30621 | 22.84769 | 0° | 0km/h | 1643m | 0.0m/s | 13.8°C | 94.8% | 0hPa | 0V | 00:00:00 | 00:00:00 | 00:00:00 | |
| LZ4TU-5 | 2026-09-01 17:06:50 | 43.30621 | 22.84769 | 0° | 0km/h | 1643m | 0.0m/s | 13.8°C | 94.5% | 0hPa | 0V | 00:00:00 | 00:00:00 | 00:00:00 | |
| LZ4TU-5 | 2026-09-01 17:06:45 | 43.30621 | 22.84769 | 0° | 0km/h | 1643m | 0.0m/s | 13.6°C | 94.3% | 0hPa | 0V | 00:00:00 | 00:00:00 | 00:00:00 | |
| LZ4TU-5 | 2026-09-01 17:05:49 | 43.30621 | 22.84769 | 0° | 0km/h | 1643m | 0.0m/s | 13.7°C | 93.6% | 0hPa | 0V | 00:00:00 | 00:00:00 | 00:00:00 | |
| LZ4TU-5 | 2026-09-01 17:05:45 | 43.30621 | 22.84769 | 0° | 0km/h | 1643m | 0.0m/s | 13.8°C | 93.7% | 0hPa | 0V | 00:00:00 | 00:00:00 | 00:00:00 | |
| LZ4TU-5 | 2026-09-01 17:04:49 | 43.30621 | 22.84769 | 0° | 0km/h | 1643m | 0.0m/s | 13.8°C | 93.0% | 0hPa | 0V | 00:00:00 | 00:00:00 | 00:00:00 | |
| LZ4TU-5 | 2026-09-01 17:04:44 | 43.30621 | 22.84769 | 0° | 0km/h | 1643m | 0.0m/s | 13.8°C | 93.1% | 0hPa | 0V | 00:00:00 | 00:00:00 | 00:00:00 | |
| LZ4TU-5 | 2026-09-01 17:03:48 | 43.30621 | 22.84769 | 0° | 0km/h | 1643m | 0.0m/s | 13.9°C | 93.0% | 0hPa | 0V | 00:00:00 | 00:00:00 | 00:00:00 | |
| LZ4TU-5 | 2026-09-01 17:03:43 | 43.30621 | 22.84769 | 0° | 0km/h | 1643m | 0.0m/s | 13.9°C | 0% | 0hPa | 0V | 00:00:00 | 00:00:00 | 00:00:00 | |
| LZ4TU-5 | 2026-09-01 17:02:47 | 43.30621 | 22.84769 | 0° | 0km/h | 1643m | 0.0m/s | 14.2°C | 93.7% | 0hPa | 0V | 00:00:00 | 00:00:00 | 00:00:00 | |
| LZ4TU-5 | 2026-09-01 17:02:42 | 43.30621 | 22.84769 | 0° | 0km/h | 1643m | 0.0m/s | 13.9°C | 93.4% | 0hPa | 0V | 00:00:00 | 00:00:00 | 00:00:00 | |
| LZ4TU-5 | 2026-09-01 17:01:46 | 43.30621 | 22.84769 | 0° | 0km/h | 1643m | 0.0m/s | 13.9°C | 93.2% | 0hPa | 0V | 00:00:00 | 00:00:00 | 00:00:00 | |
| LZ4TU-5 | 2026-09-01 17:01:41 | 43.30621 | 22.84769 | 0° | 0km/h | 1643m | 0.0m/s | 13.9°C | 0% | 0hPa | 0V | 00:00:00 | 00:00:00 | 00:00:00 | |
| LZ4TU-5 | 2026-09-01 17:00:45 | 43.30621 | 22.84769 | 0° | 0km/h | 1644m | 0.0m/s | 14.0°C | 93.3% | 0hPa | 0V | 00:00:00 | 00:00:00 | 00:00:00 | |
| LZ4TU-5 | 2026-09-01 17:00:40 | 43.30621 | 22.84769 | 0° | 0km/h | 1644m | 0.0m/s | 14.1°C | 0% | 0hPa | 0V | 00:00:00 | 00:00:00 | 00:00:00 | |
| LZ4TU-5 | 2026-09-01 16:59:45 | 43.30621 | 22.84769 | 0° | 0km/h | 1643m | 0.0m/s | 13.9°C | 93.3% | 0hPa | 0V | 00:00:00 | 00:00:00 | 00:00:00 | |
| LZ4TU-5 | 2026-09-01 16:59:40 | 43.30621 | 22.84769 | 0° | 0km/h | 1643m | 0.0m/s | 14.0°C | 93.7% | 0hPa | 0V | 00:00:00 | 00:00:00 | 00:00:00 | |
| LZ4TU-5 | 2026-09-01 16:58:43 | 43.30621 | 22.84769 | 0° | 0km/h | 1643m | 0.0m/s | 14.0°C | 94.0% | 0hPa | 0V | 00:00:00 | 00:00:00 | 00:00:00 | |
| LZ4TU-5 | 2026-09-01 16:58:39 | 43.30621 | 22.84769 | 0° | 0km/h | 1643m | 0.0m/s | 14.0°C | 0% | 0hPa | 0V | 00:00:00 | 00:00:00 | 00:00:00 | |
| LZ4TU-5 | 2026-09-01 16:57:43 | 43.30621 | 22.84769 | 0° | 0km/h | 1643m | 0.0m/s | 14.0°C | 94.0% | 0hPa | 0V | 00:00:00 | 00:00:00 | 00:00:00 | |
| LZ4TU-5 | 2026-09-01 16:57:39 | 43.30621 | 22.84769 | 0° | 0km/h | 1643m | 0.0m/s | 14.0°C | 0% | 0hPa | 0V | 00:00:00 | 00:00:00 | 00:00:00 | |
| LZ4TU-5 | 2026-09-01 16:56:43 | 43.30621 | 22.84769 | 0° | 0km/h | 1643m | 0.0m/s | 14.0°C | 93.9% | 0hPa | 0V | 00:00:00 | 00:00:00 | 00:00:00 | |
| LZ4TU-5 | 2026-09-01 16:56:39 | 43.30621 | 22.84769 | 0° | 0km/h | 1643m | 0.0m/s | 14.0°C | 93.8% | 0hPa | 0V | 00:00:00 | 00:00:00 | 00:00:00 | |
| LZ4TU-5 | 2026-09-01 16:55:44 | 43.30621 | 22.84769 | 0° | 0km/h | 1643m | 0.0m/s | 13.9°C | 94.1% | 0hPa | 0V | 00:00:00 | 00:00:00 | 00:00:00 | |
| LZ4TU-5 | 2026-09-01 16:55:39 | 43.30621 | 22.84769 | 0° | 0km/h | 1643m | 0.0m/s | 13.9°C | 0% | 0hPa | 0V | 00:00:00 | 00:00:00 | 00:00:00 | |
| LZ4TU-5 | 2026-09-01 16:54:43 | 43.30621 | 22.84769 | 0° | 0km/h | 1643m | 0.0m/s | 13.8°C | 93.5% | 0hPa | 0V | 00:00:00 | 00:00:00 | 00:00:00 | |
| LZ4TU-5 | 2026-09-01 16:54:38 | 43.30621 | 22.84769 | 0° | 0km/h | 1643m | 0.0m/s | 13.8°C | 93.5% | 0hPa | 0V | 00:00:00 | 00:00:00 | 00:00:00 | |
| LZ4TU-5 | 2026-09-01 16:53:41 | 43.30621 | 22.84769 | 0° | 0km/h | 1643m | 0.0m/s | 13.8°C | 93.8% | 0hPa | 0V | 00:00:00 | 00:00:00 | 00:00:00 | |
| LZ4TU-5 | 2026-09-01 16:53:36 | 43.30621 | 22.84769 | 0° | 0km/h | 1643m | 0.0m/s | 13.8°C | 93.8% | 0hPa | 0V | 00:00:00 | 00:00:00 | 00:00:00 | |
| LZ4TU-5 | 2026-09-01 16:52:40 | 43.30621 | 22.84769 | 0° | 0km/h | 1643m | 0.0m/s | 13.8°C | 92.9% | 0hPa | 0V | 00:00:00 | 00:00:00 | 00:00:00 | |
| LZ4TU-5 | 2026-09-01 16:52:35 | 43.30621 | 22.84769 | 0° | 0km/h | 1643m | 0.0m/s | 13.8°C | 0% | 0hPa | 0V | 00:00:00 | 00:00:00 | 00:00:00 | |
| LZ4TU-5 | 2026-09-01 16:51:38 | 43.30621 | 22.84769 | 0° | 0km/h | 1643m | 0.0m/s | 13.8°C | 93.6% | 0hPa | 0V | 00:00:00 | 00:00:00 | 00:00:00 | |
| LZ4TU-5 | 2026-09-01 16:51:34 | 43.30621 | 22.84769 | 0° | 0km/h | 1643m | 0.0m/s | 13.8°C | 0% | 0hPa | 0V | 00:00:00 | 00:00:00 | 00:00:00 | |
| LZ4TU-5 | 2026-09-01 16:50:38 | 43.30621 | 22.84769 | 0° | 0km/h | 1643m | 0.0m/s | 13.8°C | 93.3% | 0hPa | 0V | 00:00:00 | 00:00:00 | 00:00:00 | |
| LZ4TU-5 | 2026-09-01 16:50:33 | 43.30621 | 22.84769 | 0° | 0km/h | 1643m | 0.0m/s | 13.8°C | 93.2% | 0hPa | 0V | 00:00:00 | 00:00:00 | 00:00:00 | |
| LZ4TU-5 | 2026-09-01 16:49:37 | 43.30621 | 22.84769 | 0° | 0km/h | 1643m | 0.0m/s | 13.8°C | 93.1% | 0hPa | 0V | 00:00:00 | 00:00:00 | 00:00:00 | |
| LZ4TU-5 | 2026-09-01 16:49:32 | 43.30621 | 22.84769 | 0° | 0km/h | 1643m | 0.0m/s | 13.9°C | 0% | 0hPa | 0V | 00:00:00 | 00:00:00 | 00:00:00 | |
| LZ4TU-5 | 2026-09-01 16:48:36 | 43.30621 | 22.84769 | 0° | 0km/h | 1643m | 0.0m/s | 13.9°C | 93.2% | 0hPa | 0V | 00:00:00 | 00:00:00 | 00:00:00 | |
| LZ4TU-5 | 2026-09-01 16:48:32 | 43.30621 | 22.84769 | 0° | 0km/h | 1643m | 0.0m/s | 13.9°C | 93.4% | 0hPa | 0V | 00:00:00 | 00:00:00 | 00:00:00 | |
| LZ4TU-5 | 2026-09-01 16:47:36 | 43.30621 | 22.84769 | 0° | 0km/h | 1643m | -0.0m/s | 14.0°C | 93.5% | 0hPa | 0V | 00:00:00 | 00:00:00 | 00:00:00 | |
| LZ4TU-5 | 2026-09-01 16:47:31 | 43.30621 | 22.84769 | 0° | 0km/h | 1643m | 0.0m/s | 14.1°C | 0% | 0hPa | 0V | 00:00:00 | 00:00:00 | 00:00:00 | |
| LZ4TU-5 | 2026-09-01 16:46:35 | 43.30621 | 22.84769 | 0° | 0km/h | 1643m | -0.0m/s | 14.0°C | 0% | 0hPa | 0V | 00:00:00 | 00:00:00 | 00:00:00 | |
| LZ4TU-5 | 2026-09-01 16:46:31 | 43.30621 | 22.84769 | 0° | 0km/h | 1643m | 0.0m/s | 14.1°C | 93.5% | 0hPa | 0V | 00:00:00 | 00:00:00 | 00:00:00 | |
| LZ4TU-5 | 2026-09-01 16:45:33 | 43.30621 | 22.84769 | 0° | 0km/h | 1643m | -0.0m/s | 14.2°C | 93.3% | 0hPa | 0V | 00:00:00 | 00:00:00 | 00:00:00 | |
| LZ4TU-5 | 2026-09-01 16:45:28 | 43.30621 | 22.84769 | 0° | 0km/h | 1643m | 0.0m/s | 14.1°C | 92.9% | 0hPa | 0V | 00:00:00 | 00:00:00 | 00:00:00 | |
| LZ4TU-5 | 2026-09-01 16:44:31 | 43.30621 | 22.84769 | 0° | 0km/h | 1643m | -0.0m/s | 14.3°C | 94.5% | 0hPa | 0V | 00:00:00 | 00:00:00 | 00:00:00 | |
| LZ4TU-5 | 2026-09-01 16:44:26 | 43.30621 | 22.84769 | 0° | 0km/h | 1643m | -0.0m/s | 14.3°C | 0% | 0hPa | 0V | 00:00:00 | 00:00:00 | 00:00:00 | |
| LZ4TU-5 | 2026-09-01 16:43:30 | 43.30621 | 22.84769 | 0° | 0km/h | 1643m | 0.0m/s | 14.1°C | 93.7% | 0hPa | 0V | 00:00:00 | 00:00:00 | 00:00:00 | |
| LZ4TU-5 | 2026-09-01 16:43:25 | 43.30621 | 22.84769 | 0° | 0km/h | 1643m | -0.0m/s | 14.2°C | 93.9% | 0hPa | 0V | 00:00:00 | 00:00:00 | 00:00:00 | |
| LZ4TU-5 | 2026-09-01 16:42:29 | 43.30621 | 22.84769 | 0° | 0km/h | 1644m | 0.0m/s | 14.2°C | 93.1% | 0hPa | 0V | 00:00:00 | 00:00:00 | 00:00:00 | |
| LZ4TU-5 | 2026-09-01 16:42:24 | 43.30621 | 22.84769 | 0° | 0km/h | 1643m | 0.0m/s | 14.3°C | 0% | 0hPa | 0V | 00:00:00 | 00:00:00 | 00:00:00 | |
| LZ4TU-5 | 2026-09-01 16:41:28 | 43.30621 | 22.84769 | 0° | 0km/h | 1643m | 0.0m/s | 14.3°C | 93.0% | 0hPa | 0V | 00:00:00 | 00:00:00 | 00:00:00 | |
| LZ4TU-5 | 2026-09-01 16:41:23 | 43.30621 | 22.84769 | 0° | 0km/h | 1643m | 0.0m/s | 14.3°C | 0% | 0hPa | 0V | 00:00:00 | 00:00:00 | 00:00:00 | |
| LZ4TU-5 | 2026-09-01 16:40:27 | 43.30621 | 22.84769 | 0° | 0km/h | 1643m | 0.0m/s | 14.3°C | 92.9% | 0hPa | 0V | 00:00:00 | 00:00:00 | 00:00:00 | |
| LZ4TU-5 | 2026-09-01 16:40:23 | 43.30621 | 22.84769 | 0° | 0km/h | 1644m | 0.0m/s | 14.3°C | 92.8% | 0hPa | 0V | 00:00:00 | 00:00:00 | 00:00:00 | |
| LZ4TU-5 | 2026-09-01 16:39:27 | 43.30621 | 22.84769 | 0° | 0km/h | 1643m | 0.0m/s | 14.4°C | 93.3% | 0hPa | 0V | 00:00:00 | 00:00:00 | 00:00:00 | |
| LZ4TU-5 | 2026-09-01 16:39:22 | 43.30621 | 22.84769 | 0° | 0km/h | 1643m | 0.0m/s | 14.4°C | 93.6% | 0hPa | 0V | 00:00:00 | 00:00:00 | 00:00:00 | |
| LZ4TU-5 | 2026-09-01 16:38:26 | 43.30621 | 22.84769 | 0° | 0km/h | 1643m | 0.0m/s | 14.6°C | 94.1% | 0hPa | 0V | 00:00:00 | 00:00:00 | 00:00:00 | |
| LZ4TU-5 | 2026-09-01 16:38:21 | 43.30621 | 22.84769 | 0° | 0km/h | 1643m | 0.0m/s | 14.5°C | 0% | 0hPa | 0V | 00:00:00 | 00:00:00 | 00:00:00 | |
| LZ4TU-5 | 2026-09-01 16:37:25 | 43.30621 | 22.84769 | 0° | 0km/h | 1643m | -0.0m/s | 14.5°C | 94.0% | 0hPa | 0V | 00:00:00 | 00:00:00 | 00:00:00 | |
| LZ4TU-5 | 2026-09-01 16:37:21 | 43.30621 | 22.84769 | 0° | 0km/h | 1644m | 0.0m/s | 14.6°C | 94.1% | 0hPa | 0V | 00:00:00 | 00:00:00 | 00:00:00 | |
| LZ4TU-5 | 2026-09-01 16:36:25 | 43.30621 | 22.84769 | 0° | 0km/h | 1644m | 0.0m/s | 14.6°C | 93.6% | 0hPa | 0V | 00:00:00 | 00:00:00 | 00:00:00 | |
| LZ4TU-5 | 2026-09-01 16:36:20 | 43.30621 | 22.84769 | 0° | 0km/h | 1644m | -0.0m/s | 14.6°C | 0% | 0hPa | 0V | 00:00:00 | 00:00:00 | 00:00:00 | |
| LZ4TU-5 | 2026-09-01 16:35:24 | 43.30621 | 22.84769 | 0° | 0km/h | 1643m | 0.0m/s | 14.6°C | 94.7% | 0hPa | 0V | 00:00:00 | 00:00:00 | 00:00:00 | |
| LZ4TU-5 | 2026-09-01 16:35:19 | 43.30621 | 22.84769 | 0° | 0km/h | 1643m | 0.0m/s | 14.6°C | 95.2% | 0hPa | 0V | 00:00:00 | 00:00:00 | 00:00:00 | |
| LZ4TU-5 | 2026-09-01 16:34:22 | 43.30621 | 22.84769 | 0° | 0km/h | 1643m | 0.0m/s | 14.4°C | 93.7% | 0hPa | 0V | 00:00:00 | 00:00:00 | 00:00:00 | |
| LZ4TU-5 | 2026-09-01 16:34:17 | 43.30621 | 22.84769 | 0° | 0km/h | 1644m | 0.0m/s | 14.5°C | 93.6% | 0hPa | 0V | 00:00:00 | 00:00:00 | 00:00:00 | |
| LZ4TU-5 | 2026-09-01 16:33:18 | 43.30621 | 22.84769 | 0° | 0km/h | 1643m | 0.0m/s | 14.7°C | 93.6% | 0hPa | 0V | 00:00:00 | 00:00:00 | 00:00:00 | |
| LZ4TU-5 | 2026-09-01 16:33:12 | 43.30621 | 22.84769 | 0° | 0km/h | 1644m | 0.0m/s | 14.7°C | 93.7% | 0hPa | 0V | 00:00:00 | 00:00:00 | 00:00:00 | |
| LZ4TU-5 | 2026-09-01 16:32:16 | 43.30621 | 22.84769 | 0° | 0km/h | 1643m | 0.0m/s | 14.7°C | 93.3% | 0hPa | 0V | 00:00:00 | 00:00:00 | 00:00:00 | |
| LZ4TU-5 | 2026-09-01 16:32:11 | 43.30621 | 22.84769 | 0° | 0km/h | 1644m | 0.0m/s | 14.8°C | 93.4% | 0hPa | 0V | 00:00:00 | 00:00:00 | 00:00:00 | |
| LZ4TU-5 | 2026-09-01 16:31:16 | 43.30621 | 22.84769 | 0° | 0km/h | 1643m | 0.0m/s | 14.7°C | 93.5% | 0hPa | 0V | 00:00:00 | 00:00:00 | 00:00:00 | |
| LZ4TU-5 | 2026-09-01 16:31:10 | 43.30621 | 22.84769 | 0° | 0km/h | 1643m | 0.0m/s | 14.7°C | 0% | 0hPa | 0V | 00:00:00 | 00:00:00 | 00:00:00 | |
| LZ4TU-5 | 2026-09-01 16:30:13 | 43.30621 | 22.84769 | 0° | 0km/h | 1643m | -0.0m/s | 14.8°C | 93.9% | 0hPa | 0V | 00:00:00 | 00:00:00 | 00:00:00 | |
| LZ4TU-5 | 2026-09-01 16:30:09 | 43.30621 | 22.84769 | 0° | 0km/h | 1643m | 0.0m/s | 14.9°C | 0% | 0hPa | 0V | 00:00:00 | 00:00:00 | 00:00:00 | |
| LZ4TU-5 | 2026-09-01 16:29:13 | 43.30621 | 22.84769 | 0° | 0km/h | 1643m | 0.0m/s | 15.0°C | 93.8% | 0hPa | 0V | 00:00:00 | 00:00:00 | 00:00:00 | |
| LZ4TU-5 | 2026-09-01 16:29:08 | 43.30621 | 22.84769 | 0° | 0km/h | 1644m | 0.0m/s | 14.9°C | 93.4% | 0hPa | 0V | 00:00:00 | 00:00:00 | 00:00:00 | |
| LZ4TU-5 | 2026-09-01 16:28:10 | 43.30621 | 22.84769 | 0° | 0km/h | 1643m | 0.0m/s | 15.2°C | 95.0% | 0hPa | 0V | 00:00:00 | 00:00:00 | 00:00:00 | |
| LZ4TU-5 | 2026-09-01 16:28:05 | 43.30621 | 22.84769 | 0° | 0km/h | 1643m | 0.0m/s | 15.1°C | 0% | 0hPa | 0V | 00:00:00 | 00:00:00 | 00:00:00 | |
| LZ4TU-5 | 2026-09-01 16:27:09 | 43.30621 | 22.84769 | 0° | 0km/h | 1643m | 0.0m/s | 14.8°C | 93.0% | 0hPa | 0V | 00:00:00 | 00:00:00 | 00:00:00 | |
| LZ4TU-5 | 2026-09-01 16:27:04 | 43.30621 | 22.84769 | 0° | 0km/h | 1643m | 0.0m/s | 14.8°C | 93.3% | 0hPa | 0V | 00:00:00 | 00:00:00 | 00:00:00 | |
| LZ4TU-5 | 2026-09-01 16:26:07 | 43.30621 | 22.84769 | 0° | 0km/h | 1643m | 0.0m/s | 14.9°C | 93.0% | 0hPa | 0V | 00:00:00 | 00:00:00 | 00:00:00 | |
| LZ4TU-5 | 2026-09-01 16:26:02 | 43.30621 | 22.84769 | 0° | 0km/h | 1643m | 0.0m/s | 14.8°C | 93.1% | 0hPa | 0V | 00:00:00 | 00:00:00 | 00:00:00 | |
| LZ4TU-5 | 2026-09-01 16:25:05 | 43.30621 | 22.84769 | 0° | 0km/h | 1643m | 0.0m/s | 15.1°C | 92.7% | 0hPa | 0V | 00:00:00 | 00:00:00 | 00:00:00 | |
| LZ4TU-5 | 2026-09-01 16:25:00 | 43.30621 | 22.84769 | 0° | 0km/h | 1643m | 0.0m/s | 15.2°C | 0% | 0hPa | 0V | 00:00:00 | 00:00:00 | 00:00:00 | |
| LZ4TU-5 | 2026-09-01 16:24:04 | 43.30621 | 22.84769 | 0° | 0km/h | 1643m | 0.0m/s | 15.3°C | 93.7% | 0hPa | 0V | 00:00:00 | 00:00:00 | 00:00:00 | |
| LZ4TU-5 | 2026-09-01 16:23:59 | 43.30621 | 22.84769 | 0° | 0km/h | 1643m | 0.0m/s | 15.3°C | 93.1% | 0hPa | 0V | 00:00:00 | 00:00:00 | 00:00:00 | |
| LZ4TU-5 | 2026-09-01 16:23:02 | 43.30621 | 22.84769 | 0° | 0km/h | 1643m | 0.0m/s | 15.3°C | 93.0% | 0hPa | 0V | 00:00:00 | 00:00:00 | 00:00:00 | |
| LZ4TU-5 | 2026-09-01 16:22:58 | 43.30621 | 22.84769 | 0° | 0km/h | 1643m | 0.0m/s | 15.2°C | 0% | 0hPa | 0V | 00:00:00 | 00:00:00 | 00:00:00 | |
| LZ4TU-5 | 2026-09-01 16:22:03 | 43.30621 | 22.84769 | 0° | 0km/h | 1643m | 0.0m/s | 15.3°C | 93.5% | 0hPa | 0V | 00:00:00 | 00:00:00 | 00:00:00 | |
| LZ4TU-5 | 2026-09-01 16:21:58 | 43.30621 | 22.84769 | 0° | 0km/h | 1643m | 0.0m/s | 15.4°C | 0% | 0hPa | 0V | 00:00:00 | 00:00:00 | 00:00:00 | |
| LZ4TU-5 | 2026-09-01 16:21:02 | 43.30621 | 22.84769 | 0° | 0km/h | 1644m | 0.0m/s | 15.6°C | 93.6% | 0hPa | 0V | 00:00:00 | 00:00:00 | 00:00:00 | |
| LZ4TU-5 | 2026-09-01 16:20:57 | 43.30621 | 22.84769 | 0° | 0km/h | 1644m | 0.0m/s | 15.5°C | 93.3% | 0hPa | 0V | 00:00:00 | 00:00:00 | 00:00:00 | |
| LZ4TU-5 | 2026-09-01 16:20:00 | 43.30621 | 22.84769 | 0° | 0km/h | 1644m | 0.0m/s | 15.6°C | 93.1% | 0hPa | 0V | 00:00:00 | 00:00:00 | 00:00:00 | |
| LZ4TU-5 | 2026-09-01 16:19:55 | 43.30621 | 22.84769 | 0° | 0km/h | 1644m | 0.0m/s | 15.5°C | 0% | 0hPa | 0V | 00:00:00 | 00:00:00 | 00:00:00 | |
| LZ4TU-5 | 2026-09-01 16:18:59 | 43.30621 | 22.84769 | 0° | 0km/h | 1644m | 0.0m/s | 15.6°C | 93.0% | 0hPa | 0V | 00:00:00 | 00:00:00 | 00:00:00 | |
| LZ4TU-5 | 2026-09-01 16:18:54 | 43.30621 | 22.84769 | 0° | 0km/h | 1644m | 0.0m/s | 15.6°C | 92.5% | 0hPa | 0V | 00:00:00 | 00:00:00 | 00:00:00 | |
| LZ4TU-5 | 2026-09-01 16:17:57 | 43.30621 | 22.84769 | 0° | 0km/h | 1643m | 0.0m/s | 15.7°C | 92.9% | 0hPa | 0V | 00:00:00 | 00:00:00 | 00:00:00 | |
| LZ4TU-5 | 2026-09-01 16:17:52 | 43.30621 | 22.84769 | 0° | 0km/h | 1643m | 0.0m/s | 15.7°C | 0% | 0hPa | 0V | 00:00:00 | 00:00:00 | 00:00:00 | |
| LZ4TU-5 | 2026-09-01 16:16:55 | 43.30621 | 22.84769 | 0° | 0km/h | 1643m | 0.0m/s | 15.7°C | 92.1% | 0hPa | 0V | 00:00:00 | 00:00:00 | 00:00:00 | |
| LZ4TU-5 | 2026-09-01 16:16:50 | 43.30621 | 22.84769 | 0° | 0km/h | 1643m | 0.0m/s | 15.7°C | 0% | 0hPa | 0V | 00:00:00 | 00:00:00 | 00:00:00 | |
| LZ4TU-5 | 2026-09-01 16:15:54 | 43.30621 | 22.84769 | 0° | 0km/h | 1644m | 0.0m/s | 15.9°C | 91.7% | 0hPa | 0V | 00:00:00 | 00:00:00 | 00:00:00 | |
| LZ4TU-5 | 2026-09-01 16:15:49 | 43.30621 | 22.84769 | 0° | 0km/h | 1644m | 0.0m/s | 15.8°C | 91.5% | 0hPa | 0V | 00:00:00 | 00:00:00 | 00:00:00 | |
| LZ4TU-5 | 2026-09-01 16:14:52 | 43.30621 | 22.84769 | 0° | 0km/h | 1643m | 0.0m/s | 16.0°C | 92.5% | 0hPa | 0V | 00:00:00 | 00:00:00 | 00:00:00 | |
| LZ4TU-5 | 2026-09-01 16:14:47 | 43.30621 | 22.84769 | 0° | 0km/h | 1643m | 0.0m/s | 16.0°C | 0% | 0hPa | 0V | 00:00:00 | 00:00:00 | 00:00:00 | |
| LZ4TU-5 | 2026-09-01 16:13:50 | 43.30621 | 22.84769 | 0° | 0km/h | 1643m | 0.0m/s | 16.2°C | 92.9% | 0hPa | 0V | 00:00:00 | 00:00:00 | 00:00:00 | |
| LZ4TU-5 | 2026-09-01 16:13:45 | 43.30621 | 22.84769 | 0° | 0km/h | 1643m | 0.0m/s | 16.3°C | 93.2% | 0hPa | 0V | 00:00:00 | 00:00:00 | 00:00:00 | |
| LZ4TU-5 | 2026-09-01 16:12:49 | 43.30621 | 22.84769 | 0° | 0km/h | 1643m | 0.0m/s | 16.3°C | 91.4% | 0hPa | 0V | 00:00:00 | 00:00:00 | 00:00:00 | |
| LZ4TU-5 | 2026-09-01 16:12:45 | 43.30621 | 22.84769 | 0° | 0km/h | 1643m | 0.0m/s | 16.3°C | 0% | 0hPa | 0V | 00:00:00 | 00:00:00 | 00:00:00 | |
| LZ4TU-5 | 2026-09-01 16:11:49 | 43.30621 | 22.84769 | 0° | 0km/h | 1643m | 0.0m/s | 16.3°C | 0% | 0hPa | 0V | 00:00:00 | 00:00:00 | 00:00:00 | |
| LZ4TU-5 | 2026-09-01 16:11:45 | 43.30621 | 22.84769 | 0° | 0km/h | 1643m | 0.0m/s | 16.4°C | 91.9% | 0hPa | 0V | 00:00:00 | 00:00:00 | 00:00:00 | |
| LZ4TU-5 | 2026-09-01 16:11:38 | 43.30621 | 22.84769 | 0° | 0km/h | 1644m | 0.0m/s | 16.5°C | 0% | 0hPa | 0V | 00:00:00 | 00:00:00 | 00:00:00 | |
| LZ4TU-5 | 2026-09-01 16:10:42 | 43.30621 | 22.84769 | 0° | 0km/h | 1644m | -0.0m/s | 16.7°C | 91.8% | 0hPa | 0V | 00:00:00 | 00:00:00 | 00:00:00 | |
| LZ4TU-5 | 2026-09-01 16:10:37 | 43.30621 | 22.84769 | 0° | 0km/h | 1644m | 0.0m/s | 16.7°C | 91.8% | 0hPa | 0V | 00:00:00 | 00:00:00 | 00:00:00 | |
| LZ4TU-5 | 2026-09-01 16:09:42 | 43.30621 | 22.84769 | 0° | 0km/h | 1643m | 0.0m/s | 16.6°C | 91.1% | 0hPa | 0V | 00:00:00 | 00:00:00 | 00:00:00 | |
| LZ4TU-5 | 2026-09-01 16:09:37 | 43.30621 | 22.84769 | 0° | 0km/h | 1643m | 0.0m/s | 16.8°C | 90.6% | 0hPa | 0V | 00:00:00 | 00:00:00 | 00:00:00 | |
| LZ4TU-5 | 2026-09-01 16:09:33 | 43.30621 | 22.84769 | 0° | 0km/h | 1643m | 0.0m/s | 16.7°C | 91.1% | 0hPa | 0V | 00:00:00 | 00:00:00 | 00:00:00 | |
| LZ4TU-5 | 2026-09-01 16:09:28 | 43.30621 | 22.84769 | 0° | 0km/h | 1643m | 0.0m/s | 16.7°C | 0% | 0hPa | 0V | 00:00:00 | 00:00:00 | 00:00:00 | |
| LZ4TU-5 | 2026-09-01 16:08:32 | 43.30621 | 22.84769 | 0° | 0km/h | 1643m | 0.0m/s | 17.1°C | 90.0% | 0hPa | 0V | 00:00:00 | 00:00:00 | 00:00:00 | |
| LZ4TU-5 | 2026-09-01 16:08:27 | 43.30621 | 22.84769 | 0° | 0km/h | 1643m | 0.0m/s | 17.1°C | 90.2% | 0hPa | 0V | 00:00:00 | 00:00:00 | 00:00:00 | |
| LZ4TU-5 | 2026-09-01 16:07:30 | 43.30621 | 22.84769 | 0° | 0km/h | 1644m | 0.0m/s | 17.2°C | 92.3% | 0hPa | 0V | 00:00:00 | 00:00:00 | 00:00:00 | |
| LZ4TU-5 | 2026-09-01 16:07:25 | 43.30621 | 22.84769 | 0° | 0km/h | 1644m | 0.0m/s | 17.1°C | 0% | 0hPa | 0V | 00:00:00 | 00:00:00 | 00:00:00 | |
| LZ4TU-5 | 2026-09-01 16:06:29 | 43.30621 | 22.84769 | 0° | 0km/h | 1643m | 0.0m/s | 17.1°C | 90.2% | 0hPa | 0V | 00:00:00 | 00:00:00 | 00:00:00 | |
| LZ4TU-5 | 2026-09-01 16:06:24 | 43.30621 | 22.84769 | 0° | 0km/h | 1644m | 0.0m/s | 17.1°C | 0% | 0hPa | 0V | 00:00:00 | 00:00:00 | 00:00:00 | |
| LZ4TU-5 | 2026-09-01 16:05:28 | 43.30621 | 22.84769 | 0° | 0km/h | 1644m | 0.0m/s | 17.2°C | 89.6% | 0hPa | 0V | 00:00:00 | 00:00:00 | 00:00:00 | |
| LZ4TU-5 | 2026-09-01 16:05:23 | 43.30621 | 22.84769 | 0° | 0km/h | 1644m | 0.0m/s | 17.3°C | 87.9% | 0hPa | 0V | 00:00:00 | 00:00:00 | 00:00:00 | |
| LZ4TU-5 | 2026-09-01 16:04:24 | 43.30621 | 22.84769 | 0° | 0km/h | 1643m | 0.0m/s | 17.5°C | 91.3% | 0hPa | 0V | 00:00:00 | 00:00:00 | 00:00:00 | |
| LZ4TU-5 | 2026-09-01 16:04:19 | 43.30621 | 22.84769 | 0° | 0km/h | 1643m | 0.0m/s | 17.4°C | 0% | 0hPa | 0V | 00:00:00 | 00:00:00 | 00:00:00 | |
| LZ4TU-5 | 2026-09-01 16:03:23 | 43.30621 | 22.84769 | 0° | 0km/h | 1644m | 0.0m/s | 17.4°C | 0% | 0hPa | 0V | 00:00:00 | 00:00:00 | 00:00:00 | |
| LZ4TU-5 | 2026-09-01 16:03:18 | 43.30621 | 22.84769 | 0° | 0km/h | 1644m | 0.0m/s | 17.4°C | 0% | 0hPa | 0V | 00:00:00 | 00:00:00 | 00:00:00 | |
| LZ4TU-5 | 2026-09-01 16:02:22 | 43.30621 | 22.84769 | 0° | 0km/h | 1644m | 0.0m/s | 17.5°C | 91.5% | 0hPa | 0V | 00:00:00 | 00:00:00 | 00:00:00 | |
| LZ4TU-5 | 2026-09-01 16:02:17 | 43.30621 | 22.84769 | 0° | 0km/h | 1644m | 0.0m/s | 17.6°C | 91.6% | 0hPa | 0V | 00:00:00 | 00:00:00 | 00:00:00 | |
| LZ4TU-5 | 2026-09-01 16:01:22 | 43.30621 | 22.84769 | 0° | 0km/h | 1644m | 0.0m/s | 17.2°C | 91.6% | 0hPa | 0V | 00:00:00 | 00:00:00 | 00:00:00 | |
| LZ4TU-5 | 2026-09-01 16:01:18 | 43.30621 | 22.84769 | 0° | 0km/h | 1644m | 0.0m/s | 17.4°C | 92.3% | 0hPa | 0V | 00:00:00 | 00:00:00 | 00:00:00 | |
| LZ4TU-5 | 2026-09-01 16:01:12 | 43.30621 | 22.84769 | 0° | 0km/h | 1644m | 0.0m/s | 17.5°C | 0% | 0hPa | 0V | 00:00:00 | 00:00:00 | 00:00:00 | |
| LZ4TU-5 | 2026-09-01 16:00:15 | 43.30621 | 22.84769 | 0° | 0km/h | 1644m | 0.0m/s | 17.3°C | 90.1% | 0hPa | 0V | 00:00:00 | 00:00:00 | 00:00:00 | |
| LZ4TU-5 | 2026-09-01 16:00:11 | 43.30621 | 22.84769 | 0° | 0km/h | 1644m | 0.0m/s | 17.3°C | 90.5% | 0hPa | 0V | 00:00:00 | 00:00:00 | 00:00:00 | |
| LZ4TU-5 | 2026-09-01 15:59:07 | 43.30621 | 22.84769 | 0° | 0km/h | 1644m | 0.0m/s | 17.3°C | 91.1% | 0hPa | 0V | 00:00:00 | 00:00:00 | 00:00:00 | |
| LZ4TU-5 | 2026-09-01 15:59:03 | 43.30621 | 22.84769 | 0° | 0km/h | 1644m | 0.0m/s | 17.2°C | 90.9% | 0hPa | 0V | 00:00:00 | 00:00:00 | 00:00:00 | |
| LZ4TU-5 | 2026-09-01 15:58:58 | 43.30621 | 22.84769 | 0° | 0km/h | 1644m | 0.0m/s | 17.2°C | 0% | 0hPa | 0V | 00:00:00 | 00:00:00 | 00:00:00 | |
| LZ4TU-5 | 2026-09-01 15:58:00 | 43.30621 | 22.84769 | 0° | 0km/h | 1644m | 0.0m/s | 16.8°C | 91.4% | 0hPa | 0V | 00:00:00 | 00:00:00 | 00:00:00 | |
| LZ4TU-5 | 2026-09-01 15:57:55 | 43.30621 | 22.84769 | 0° | 0km/h | 1643m | 0.0m/s | 16.9°C | 91.7% | 0hPa | 0V | 00:00:00 | 00:00:00 | 00:00:00 | |
| LZ4TU-5 | 2026-09-01 15:56:58 | 43.30621 | 22.84769 | 0° | 0km/h | 1643m | 0.0m/s | 16.8°C | 93.2% | 0hPa | 0V | 00:00:00 | 00:00:00 | 00:00:00 | |
| LZ4TU-5 | 2026-09-01 15:56:53 | 43.30621 | 22.84769 | 0° | 0km/h | 1644m | 0.0m/s | 16.9°C | 0% | 0hPa | 0V | 00:00:00 | 00:00:00 | 00:00:00 | |
| LZ4TU-5 | 2026-09-01 15:55:57 | 43.30621 | 22.84769 | 0° | 0km/h | 1644m | 0.0m/s | 16.7°C | 92.6% | 0hPa | 0V | 00:00:00 | 00:00:00 | 00:00:00 | |
| LZ4TU-5 | 2026-09-01 15:55:53 | 43.30621 | 22.84769 | 0° | 0km/h | 1644m | 0.0m/s | 16.7°C | 0% | 0hPa | 0V | 00:00:00 | 00:00:00 | 00:00:00 | |
| LZ4TU-5 | 2026-09-01 15:55:47 | 43.30621 | 22.84769 | 0° | 0km/h | 1644m | 0.0m/s | 16.6°C | 92.5% | 0hPa | 0V | 00:00:00 | 00:00:00 | 00:00:00 | |
| LZ4TU-5 | 2026-09-01 15:55:40 | 43.30621 | 22.84769 | 0° | 0km/h | 1643m | 0.0m/s | 16.7°C | 92.7% | 0hPa | 0V | 00:00:00 | 00:00:00 | 00:00:00 | |
| LZ4TU-5 | 2026-09-01 15:55:34 | 43.30621 | 22.84769 | 0° | 0km/h | 1643m | 0.0m/s | 16.6°C | 0% | 0hPa | 0V | 00:00:00 | 00:00:00 | 00:00:00 | |
| LZ4TU-5 | 2026-09-01 15:55:30 | 43.30621 | 22.84769 | 0° | 0km/h | 1643m | 0.0m/s | 16.6°C | 92.6% | 0hPa | 0V | 00:00:00 | 00:00:00 | 00:00:00 | |
| LZ4TU-5 | 2026-09-01 15:55:24 | 43.30621 | 22.84769 | 0° | 0km/h | 1643m | 0.0m/s | 16.6°C | 0% | 0hPa | 0V | 00:00:00 | 00:00:00 | 00:00:00 | |
| LZ4TU-5 | 2026-09-01 15:54:28 | 43.30621 | 22.84769 | 0° | 0km/h | 1643m | 0.0m/s | 16.3°C | 91.2% | 0hPa | 0V | 00:00:00 | 00:00:00 | 00:00:00 | |
| LZ4TU-5 | 2026-09-01 15:54:23 | 43.30621 | 22.84769 | 0° | 0km/h | 1643m | 0.0m/s | 16.4°C | 91.2% | 0hPa | 0V | 00:00:00 | 00:00:00 | 00:00:00 | |
| LZ4TU-5 | 2026-09-01 15:53:27 | 43.30621 | 22.84769 | 0° | 0km/h | 1644m | 0.0m/s | 16.6°C | 91.9% | 0hPa | 0V | 00:00:00 | 00:00:00 | 00:00:00 | |
| LZ4TU-5 | 2026-09-01 15:53:23 | 43.30621 | 22.84769 | 0° | 0km/h | 1644m | -0.0m/s | 16.6°C | 0% | 0hPa | 0V | 00:00:00 | 00:00:00 | 00:00:00 | |
| LZ4TU-5 | 2026-09-01 15:52:27 | 43.30621 | 22.84769 | 0° | 0km/h | 1644m | 0.0m/s | 16.6°C | 93.0% | 0hPa | 0V | 00:00:00 | 00:00:00 | 00:00:00 | |
| LZ4TU-5 | 2026-09-01 15:52:22 | 43.30621 | 22.84769 | 0° | 0km/h | 1643m | 0.0m/s | 16.6°C | 92.9% | 0hPa | 0V | 00:00:00 | 00:00:00 | 00:00:00 | |
| LZ4TU-5 | 2026-09-01 15:51:25 | 43.30621 | 22.84769 | 0° | 0km/h | 1644m | 0.0m/s | 16.6°C | 93.9% | 0hPa | 0V | 00:00:00 | 00:00:00 | 00:00:00 | |
| LZ4TU-5 | 2026-09-01 15:51:21 | 43.30621 | 22.84769 | 0° | 0km/h | 1644m | 0.0m/s | 16.5°C | 93.7% | 0hPa | 0V | 00:00:00 | 00:00:00 | 00:00:00 | |
| LZ4TU-5 | 2026-09-01 15:51:15 | 43.30621 | 22.84769 | 0° | 0km/h | 1644m | 0.0m/s | 16.6°C | 93.8% | 0hPa | 0V | 00:00:00 | 00:00:00 | 00:00:00 | |
| LZ4TU-5 | 2026-09-01 15:51:08 | 43.30621 | 22.84769 | 0° | 0km/h | 1644m | 0.0m/s | 16.6°C | 93.6% | 0hPa | 0V | 00:00:00 | 00:00:00 | 00:00:00 | |
| LZ4TU-5 | 2026-09-01 15:51:03 | 43.30621 | 22.84769 | 0° | 0km/h | 1644m | 0.0m/s | 16.6°C | 0% | 0hPa | 0V | 00:00:00 | 00:00:00 | 00:00:00 | |
| LZ4TU-5 | 2026-09-01 15:50:06 | 43.30621 | 22.84769 | 0° | 0km/h | 1644m | 0.0m/s | 16.5°C | 91.6% | 0hPa | 0V | 00:00:00 | 00:00:00 | 00:00:00 | |
| LZ4TU-5 | 2026-09-01 15:50:01 | 43.30621 | 22.84769 | 0° | 0km/h | 1644m | 0.0m/s | 16.6°C | 0% | 0hPa | 0V | 00:00:00 | 00:00:00 | 00:00:00 | |
| LZ4TU-5 | 2026-09-01 15:49:02 | 43.30621 | 22.84769 | 0° | 0km/h | 1643m | 0.0m/s | 16.5°C | 92.5% | 0hPa | 0V | 00:00:00 | 00:00:00 | 00:00:00 | |
| LZ4TU-5 | 2026-09-01 15:48:58 | 43.30621 | 22.84769 | 0° | 0km/h | 1643m | 0.0m/s | 16.4°C | 92.7% | 0hPa | 0V | 00:00:00 | 00:00:00 | 00:00:00 | |
| LZ4TU-5 | 2026-09-01 15:48:52 | 43.30621 | 22.84769 | 0° | 0km/h | 1643m | 0.0m/s | 16.4°C | 92.4% | 0hPa | 0V | 00:00:00 | 00:00:00 | 00:00:00 | |
| LZ4TU-5 | 2026-09-01 15:48:47 | 43.30621 | 22.84769 | 0° | 0km/h | 1644m | 0.0m/s | 16.5°C | 92.4% | 0hPa | 0V | 00:00:00 | 00:00:00 | 00:00:00 | |
| LZ4TU-5 | 2026-09-01 15:48:42 | 43.30621 | 22.84769 | 0° | 0km/h | 1644m | -0.0m/s | 16.4°C | 92.7% | 0hPa | 0V | 00:00:00 | 00:00:00 | 00:00:00 | |
| LZ4TU-5 | 2026-09-01 15:47:33 | 43.30621 | 22.84769 | 0° | 0km/h | 1643m | 0.0m/s | 16.5°C | 93.1% | 0hPa | 0V | 00:00:00 | 00:00:00 | 00:00:00 | |
| LZ4TU-5 | 2026-09-01 15:47:28 | 43.30621 | 22.84769 | 0° | 0km/h | 1643m | 0.0m/s | 16.4°C | 92.8% | 0hPa | 0V | 00:00:00 | 00:00:00 | 00:00:00 | |
| LZ4TU-5 | 2026-09-01 15:47:23 | 43.30621 | 22.84769 | 0° | 0km/h | 1644m | 0.0m/s | 16.4°C | 92.8% | 0hPa | 0V | 00:00:00 | 00:00:00 | 00:00:00 | |
| LZ4TU-5 | 2026-09-01 15:47:16 | 43.30621 | 22.84769 | 0° | 0km/h | 1644m | 0.0m/s | 16.5°C | 92.3% | 0hPa | 0V | 00:00:00 | 00:00:00 | 00:00:00 | |
| LZ4TU-5 | 2026-09-01 15:47:11 | 43.30621 | 22.84769 | 0° | 0km/h | 1644m | 0.0m/s | 16.5°C | 92.3% | 0hPa | 0V | 00:00:00 | 00:00:00 | 00:00:00 | |
| LZ4TU-5 | 2026-09-01 15:47:04 | 43.30621 | 22.84769 | 0° | 0km/h | 1644m | 0.0m/s | 16.5°C | 92.0% | 0hPa | 0V | 00:00:00 | 00:00:00 | 00:00:00 | |
| LZ4TU-5 | 2026-09-01 15:46:59 | 43.30621 | 22.84769 | 0° | 0km/h | 1644m | 0.0m/s | 16.4°C | 92.1% | 0hPa | 0V | 00:00:00 | 00:00:00 | 00:00:00 | |
| LZ4TU-5 | 2026-09-01 15:46:54 | 43.30621 | 22.84769 | 0° | 0km/h | 1644m | 0.0m/s | 16.4°C | 92.7% | 0hPa | 0V | 00:00:00 | 00:00:00 | 00:00:00 | |
| LZ4TU-5 | 2026-09-01 15:45:56 | 43.30621 | 22.84769 | 0° | 0km/h | 1644m | 0.0m/s | 16.6°C | 92.1% | 0hPa | 0V | 00:00:00 | 00:00:00 | 00:00:00 | |
| LZ4TU-5 | 2026-09-01 15:45:51 | 43.30621 | 22.84769 | 0° | 0km/h | 1644m | 0.0m/s | 16.7°C | 92.0% | 0hPa | 0V | 00:00:00 | 00:00:00 | 00:00:00 | |
| LZ4TU-5 | 2026-09-01 15:45:46 | 43.30621 | 22.84769 | 0° | 0km/h | 1644m | 0.0m/s | 16.6°C | 0% | 0hPa | 0V | 00:00:00 | 00:00:00 | 00:00:00 | |
| LZ4TU-5 | 2026-09-01 15:44:49 | 43.30621 | 22.84769 | 0° | 0km/h | 1644m | 0.0m/s | 16.6°C | 91.4% | 0hPa | 0V | 00:00:00 | 00:00:00 | 00:00:00 | |
| LZ4TU-5 | 2026-09-01 15:44:44 | 43.30621 | 22.84769 | 0° | 0km/h | 1643m | 0.0m/s | 16.7°C | 0% | 0hPa | 0V | 00:00:00 | 00:00:00 | 00:00:00 | |
| LZ4TU-5 | 2026-09-01 15:43:46 | 43.30621 | 22.84769 | 0° | 0km/h | 1643m | 0.0m/s | 16.6°C | 92.1% | 0hPa | 0V | 00:00:00 | 00:00:00 | 00:00:00 | |
| LZ4TU-5 | 2026-09-01 15:43:41 | 43.30621 | 22.84769 | 0° | 0km/h | 1644m | 0.0m/s | 16.5°C | 92.4% | 0hPa | 0V | 00:00:00 | 00:00:00 | 00:00:00 | |
| LZ4TU-5 | 2026-09-01 15:43:36 | 43.30621 | 22.84769 | 0° | 0km/h | 1644m | 0.0m/s | 16.5°C | 92.9% | 0hPa | 0V | 00:00:00 | 00:00:00 | 00:00:00 | |
| LZ4TU-5 | 2026-09-01 15:43:32 | 43.30621 | 22.84769 | 0° | 0km/h | 1644m | 0.0m/s | 16.7°C | 92.9% | 0hPa | 0V | 00:00:00 | 00:00:00 | 00:00:00 | |
| LZ4TU-5 | 2026-09-01 15:43:27 | 43.30621 | 22.84769 | 0° | 0km/h | 1644m | 0.0m/s | 16.6°C | 93.0% | 0hPa | 0V | 00:00:00 | 00:00:00 | 00:00:00 | |
| LZ4TU-5 | 2026-09-01 15:42:31 | 43.30621 | 22.84769 | 0° | 0km/h | 1644m | 0.0m/s | 16.6°C | 93.0% | 0hPa | 0V | 00:00:00 | 00:00:00 | 00:00:00 | |
| LZ4TU-5 | 2026-09-01 15:42:27 | 43.30621 | 22.84769 | 0° | 0km/h | 1644m | 0.0m/s | 16.6°C | 93.0% | 0hPa | 0V | 00:00:00 | 00:00:00 | 00:00:00 | |
| LZ4TU-5 | 2026-09-01 15:42:22 | 43.30621 | 22.84769 | 0° | 0km/h | 1644m | 0.0m/s | 16.5°C | 0% | 0hPa | 0V | 00:00:00 | 00:00:00 | 00:00:00 | |
| LZ4TU-5 | 2026-09-01 15:41:25 | 43.30621 | 22.84769 | 0° | 0km/h | 1644m | 0.0m/s | 16.8°C | 93.2% | 0hPa | 0V | 00:00:00 | 00:00:00 | 00:00:00 | |
| LZ4TU-5 | 2026-09-01 15:41:20 | 43.30621 | 22.84769 | 0° | 0km/h | 1643m | 0.0m/s | 16.7°C | 92.9% | 0hPa | 0V | 00:00:00 | 00:00:00 | 00:00:00 | |
| LZ4TU-5 | 2026-09-01 15:40:24 | 43.30621 | 22.84769 | 0° | 0km/h | 1643m | 0.0m/s | 16.7°C | 91.9% | 0hPa | 0V | 00:00:00 | 00:00:00 | 00:00:00 | |
| LZ4TU-5 | 2026-09-01 15:40:16 | 43.30621 | 22.84769 | 0° | 0km/h | 1644m | 0.0m/s | 16.8°C | 92.3% | 0hPa | 0V | 00:00:00 | 00:00:00 | 00:00:00 | |
| LZ4TU-5 | 2026-09-01 15:40:10 | 43.30621 | 22.84769 | 0° | 0km/h | 1644m | 0.0m/s | 16.9°C | 92.6% | 0hPa | 0V | 00:00:00 | 00:00:00 | 00:00:00 | |
| LZ4TU-5 | 2026-09-01 15:40:00 | 43.30621 | 22.84769 | 0° | 0km/h | 1644m | 0.0m/s | 17.1°C | 0% | 0hPa | 0V | 00:00:00 | 00:00:00 | 00:00:00 | |
| LZ4TU-5 | 2026-09-01 15:39:51 | 43.30621 | 22.84769 | 0° | 0km/h | 1644m | 0.0m/s | 17.2°C | 93.3% | 0hPa | 0V | 00:00:00 | 00:00:00 | 00:00:00 | |
| LZ4TU-5 | 2026-09-01 15:39:45 | 43.30621 | 22.84769 | 0° | 0km/h | 1644m | 0.0m/s | 17.2°C | 93.5% | 0hPa | 0V | 00:00:00 | 00:00:00 | 00:00:00 | |
| LZ4TU-5 | 2026-09-01 15:39:37 | 43.30621 | 22.84769 | 0° | 0km/h | 1644m | 0.0m/s | 17.1°C | 0% | 0hPa | 0V | 00:00:00 | 00:00:00 | 00:00:00 | |
| LZ4TU-5 | 2026-09-01 15:39:31 | 43.30621 | 22.84769 | 0° | 0km/h | 1644m | 0.0m/s | 17.1°C | 0% | 0hPa | 0V | 00:00:00 | 00:00:00 | 00:00:00 | |
| LZ4TU-5 | 2026-09-01 15:38:34 | 43.30621 | 22.84769 | 0° | 0km/h | 1644m | 0.0m/s | 16.9°C | 93.4% | 0hPa | 0V | 00:00:00 | 00:00:00 | 00:00:00 | |
| LZ4TU-5 | 2026-09-01 15:38:30 | 43.30621 | 22.84769 | 0° | 0km/h | 1644m | 0.0m/s | 16.9°C | 93.4% | 0hPa | 0V | 00:00:00 | 00:00:00 | 00:00:00 | |
| LZ4TU-5 | 2026-09-01 15:38:23 | 43.30621 | 22.84769 | 0° | 0km/h | 1644m | 0.0m/s | 16.9°C | 94.1% | 0hPa | 0V | 00:00:00 | 00:00:00 | 00:00:00 | |
| LZ4TU-5 | 2026-09-01 15:37:27 | 43.30621 | 22.84769 | 0° | 0km/h | 1643m | 0.0m/s | 16.7°C | 93.7% | 0hPa | 0V | 00:00:00 | 00:00:00 | 00:00:00 | |
| LZ4TU-5 | 2026-09-01 15:37:22 | 43.30621 | 22.84769 | 0° | 0km/h | 1643m | 0.0m/s | 16.6°C | 0% | 0hPa | 0V | 00:00:00 | 00:00:00 | 00:00:00 | |
| LZ4TU-5 | 2026-09-01 15:36:21 | 43.30621 | 22.84769 | 0° | 0km/h | 1643m | 0.0m/s | 16.6°C | 94.0% | 0hPa | 0V | 00:00:00 | 00:00:00 | 00:00:00 | |
| LZ4TU-5 | 2026-09-01 15:36:17 | 43.30621 | 22.84769 | 0° | 0km/h | 1643m | 0.0m/s | 16.5°C | 93.6% | 0hPa | 0V | 00:00:00 | 00:00:00 | 00:00:00 | |
| LZ4TU-5 | 2026-09-01 15:36:10 | 43.30621 | 22.84769 | 0° | 0km/h | 1643m | 0.0m/s | 16.4°C | 92.7% | 0hPa | 0V | 00:00:00 | 00:00:00 | 00:00:00 | |
| LZ4TU-5 | 2026-09-01 15:35:04 | 43.30621 | 22.84769 | 0° | 0km/h | 1643m | 0.0m/s | 16.6°C | 94.4% | 0hPa | 0V | 00:00:00 | 00:00:00 | 00:00:00 | |
| LZ4TU-5 | 2026-09-01 15:35:00 | 43.30621 | 22.84769 | 0° | 0km/h | 1643m | 0.0m/s | 16.5°C | 94.0% | 0hPa | 0V | 00:00:00 | 00:00:00 | 00:00:00 | |
| LZ4TU-5 | 2026-09-01 15:34:55 | 43.30621 | 22.84769 | 0° | 0km/h | 1644m | 0.0m/s | 16.4°C | 93.6% | 0hPa | 0V | 00:00:00 | 00:00:00 | 00:00:00 | |
| LZ4TU-5 | 2026-09-01 15:34:49 | 43.30621 | 22.84769 | 0° | 0km/h | 1643m | 0.0m/s | 16.3°C | 93.4% | 0hPa | 0V | 00:00:00 | 00:00:00 | 00:00:00 | |
| LZ4TU-5 | 2026-09-01 15:34:44 | 43.30621 | 22.84769 | 0° | 0km/h | 1643m | 0.0m/s | 16.4°C | 0% | 0hPa | 0V | 00:00:00 | 00:00:00 | 00:00:00 | |
| LZ4TU-5 | 2026-09-01 15:33:42 | 43.30621 | 22.84769 | 0° | 0km/h | 1644m | 0.0m/s | 16.5°C | 92.8% | 0hPa | 0V | 00:00:00 | 00:00:00 | 00:00:00 | |
| LZ4TU-5 | 2026-09-01 15:33:38 | 43.30621 | 22.84769 | 0° | 0km/h | 1644m | 0.0m/s | 16.2°C | 93.7% | 0hPa | 0V | 00:00:00 | 00:00:00 | 00:00:00 | |
| LZ4TU-5 | 2026-09-01 15:33:31 | 43.30621 | 22.84769 | 0° | 0km/h | 1643m | 0.0m/s | 16.3°C | 93.7% | 0hPa | 0V | 00:00:00 | 00:00:00 | 00:00:00 | |
| LZ4TU-5 | 2026-09-01 15:32:30 | 43.30621 | 22.84769 | 0° | 0km/h | 1643m | 0.0m/s | 16.5°C | 93.5% | 0hPa | 0V | 00:00:00 | 00:00:00 | 00:00:00 | |
| LZ4TU-5 | 2026-09-01 15:32:25 | 43.30621 | 22.84769 | 0° | 0km/h | 1643m | 0.0m/s | 16.3°C | 0% | 0hPa | 0V | 00:00:00 | 00:00:00 | 00:00:00 | |
| LZ4TU-5 | 2026-09-01 15:31:24 | 43.30621 | 22.84769 | 0° | 0km/h | 1643m | 0.0m/s | 16.7°C | 93.3% | 0hPa | 0V | 00:00:00 | 00:00:00 | 00:00:00 | |
| LZ4TU-5 | 2026-09-01 15:31:20 | 43.30621 | 22.84769 | 0° | 0km/h | 1643m | 0.0m/s | 16.6°C | 0% | 0hPa | 0V | 00:00:00 | 00:00:00 | 00:00:00 | |
| LZ4TU-5 | 2026-09-01 15:31:15 | 43.30621 | 22.84769 | 0° | 0km/h | 1643m | 0.0m/s | 16.3°C | 0% | 0hPa | 0V | 00:00:00 | 00:00:00 | 00:00:00 | |
| LZ4TU-5 | 2026-09-01 15:30:13 | 43.30621 | 22.84769 | 0° | 0km/h | 1643m | 0.0m/s | 16.6°C | 93.2% | 0hPa | 0V | 00:00:00 | 00:00:00 | 00:00:00 | |
| LZ4TU-5 | 2026-09-01 15:30:09 | 43.30621 | 22.84769 | 0° | 0km/h | 1643m | 0.0m/s | 16.4°C | 92.7% | 0hPa | 0V | 00:00:00 | 00:00:00 | 00:00:00 | |
| LZ4TU-5 | 2026-09-01 15:29:07 | 43.30621 | 22.84769 | 0° | 0km/h | 1643m | 0.0m/s | 16.6°C | 93.5% | 0hPa | 0V | 00:00:00 | 00:00:00 | 00:00:00 | |
| LZ4TU-5 | 2026-09-01 15:29:03 | 43.30621 | 22.84769 | 0° | 0km/h | 1643m | 0.0m/s | 16.7°C | 0% | 0hPa | 0V | 00:00:00 | 00:00:00 | 00:00:00 | |
| LZ4TU-5 | 2026-09-01 15:28:01 | 43.30621 | 22.84769 | 0° | 0km/h | 1643m | 0.0m/s | 16.6°C | 92.6% | 0hPa | 0V | 00:00:00 | 00:00:00 | 00:00:00 | |
| LZ4TU-5 | 2026-09-01 15:27:57 | 43.30621 | 22.84769 | 0° | 0km/h | 1643m | 0.0m/s | 16.6°C | 92.6% | 0hPa | 0V | 00:00:00 | 00:00:00 | 00:00:00 | |
| LZ4TU-5 | 2026-09-01 15:26:56 | 43.30621 | 22.84769 | 0° | 0km/h | 1643m | 0.0m/s | 16.8°C | 93.0% | 0hPa | 0V | 00:00:00 | 00:00:00 | 00:00:00 | |
| LZ4TU-5 | 2026-09-01 15:26:52 | 43.30621 | 22.84769 | 0° | 0km/h | 1643m | 0.0m/s | 16.8°C | 93.0% | 0hPa | 0V | 00:00:00 | 00:00:00 | 00:00:00 | |
| LZ4TU-5 | 2026-09-01 15:26:47 | 43.30621 | 22.84769 | 0° | 0km/h | 1643m | 0.0m/s | 16.8°C | 0% | 0hPa | 0V | 00:00:00 | 00:00:00 | 00:00:00 | |
| LZ4TU-5 | 2026-09-01 15:26:42 | 43.30621 | 22.84769 | 0° | 0km/h | 1644m | -0.1m/s | 16.9°C | 93.2% | 0hPa | 0V | 00:00:00 | 00:00:00 | 00:00:00 | |
| LZ4TU-5 | 2026-09-01 15:26:37 | 43.30621 | 22.84769 | 0° | 0km/h | 1643m | 0.0m/s | 16.9°C | 0% | 0hPa | 0V | 00:00:00 | 00:00:00 | 00:00:00 | |
| LZ4TU-5 | 2026-09-01 15:25:35 | 43.30621 | 22.84769 | 0° | 0km/h | 1643m | 0.0m/s | 16.7°C | 94.0% | 0hPa | 0V | 00:00:00 | 00:00:00 | 00:00:00 | |
| LZ4TU-5 | 2026-09-01 15:25:30 | 43.30621 | 22.84769 | 0° | 0km/h | 1643m | 0.1m/s | 16.7°C | 94.1% | 0hPa | 0V | 00:00:00 | 00:00:00 | 00:00:00 | |
| LZ4TU-5 | 2026-09-01 15:24:29 | 43.30621 | 22.84769 | 0° | 0km/h | 1643m | 0.0m/s | 16.6°C | 92.3% | 0hPa | 0V | 00:00:00 | 00:00:00 | 00:00:00 | |
| LZ4TU-5 | 2026-09-01 15:24:25 | 43.30621 | 22.84769 | 0° | 0km/h | 1643m | 0.0m/s | 16.6°C | 92.8% | 0hPa | 0V | 00:00:00 | 00:00:00 | 00:00:00 | |
| LZ4TU-5 | 2026-09-01 15:24:20 | 43.30621 | 22.84769 | 0° | 0km/h | 1643m | 0.0m/s | 16.6°C | 0% | 0hPa | 0V | 00:00:00 | 00:00:00 | 00:00:00 | |
| LZ4TU-5 | 2026-09-01 15:23:17 | 43.30621 | 22.84769 | 0° | 0km/h | 1643m | 0.0m/s | 16.7°C | 93.3% | 0hPa | 0V | 00:00:00 | 00:00:00 | 00:00:00 | |
| LZ4TU-5 | 2026-09-01 15:23:12 | 43.30621 | 22.84769 | 0° | 0km/h | 1643m | 0.0m/s | 16.8°C | 93.5% | 0hPa | 0V | 00:00:00 | 00:00:00 | 00:00:00 | |
| LZ4TU-5 | 2026-09-01 15:22:10 | 43.30621 | 22.84769 | 0° | 0km/h | 1643m | 0.0m/s | 16.8°C | 92.3% | 0hPa | 0V | 00:00:00 | 00:00:00 | 00:00:00 | |
| LZ4TU-5 | 2026-09-01 15:22:06 | 43.30621 | 22.84769 | 0° | 0km/h | 1643m | -0.0m/s | 16.7°C | 92.2% | 0hPa | 0V | 00:00:00 | 00:00:00 | 00:00:00 | |
| LZ4TU-5 | 2026-09-01 15:21:04 | 43.30621 | 22.84769 | 0° | 0km/h | 1643m | 0.0m/s | 16.8°C | 92.3% | 0hPa | 0V | 00:00:00 | 00:00:00 | 00:00:00 | |
| LZ4TU-5 | 2026-09-01 15:20:59 | 43.30621 | 22.84769 | 0° | 0km/h | 1643m | 0.0m/s | 16.8°C | 0% | 0hPa | 0V | 00:00:00 | 00:00:00 | 00:00:00 | |
| LZ4TU-5 | 2026-09-01 15:19:54 | 43.30621 | 22.84769 | 0° | 0km/h | 1643m | 0.0m/s | 16.8°C | 92.6% | 0hPa | 0V | 00:00:00 | 00:00:00 | 00:00:00 | |
| LZ4TU-5 | 2026-09-01 15:19:49 | 43.30621 | 22.84769 | 0° | 0km/h | 1643m | 0.0m/s | 16.7°C | 92.6% | 0hPa | 0V | 00:00:00 | 00:00:00 | 00:00:00 | |
| LZ4TU-5 | 2026-09-01 15:18:43 | 43.30621 | 22.84769 | 0° | 0km/h | 1643m | 0.0m/s | 16.6°C | 93.5% | 0hPa | 0V | 00:00:00 | 00:00:00 | 00:00:00 | |
| LZ4TU-5 | 2026-09-01 15:18:39 | 43.30621 | 22.84769 | 0° | 0km/h | 1643m | 0.0m/s | 16.6°C | 0% | 0hPa | 0V | 00:00:00 | 00:00:00 | 00:00:00 | |
| LZ4TU-5 | 2026-09-01 15:17:34 | 43.30621 | 22.84769 | 0° | 0km/h | 1643m | -0.0m/s | 16.6°C | 94.2% | 0hPa | 0V | 00:00:00 | 00:00:00 | 00:00:00 | |
| LZ4TU-5 | 2026-09-01 15:17:30 | 43.30621 | 22.84769 | 0° | 0km/h | 1643m | 0.0m/s | 16.7°C | 93.6% | 0hPa | 0V | 00:00:00 | 00:00:00 | 00:00:00 | |
| LZ4TU-5 | 2026-09-01 15:17:25 | 43.30621 | 22.84769 | 0° | 0km/h | 1643m | 0.0m/s | 16.6°C | 93.4% | 0hPa | 0V | 00:00:00 | 00:00:00 | 00:00:00 | |
| LZ4TU-5 | 2026-09-01 15:16:19 | 43.30621 | 22.84769 | 0° | 0km/h | 1643m | 0.0m/s | 16.3°C | 93.9% | 0hPa | 0V | 00:00:00 | 00:00:00 | 00:00:00 | |
| LZ4TU-5 | 2026-09-01 15:16:15 | 43.30621 | 22.84769 | 0° | 0km/h | 1643m | -0.0m/s | 16.3°C | 0% | 0hPa | 0V | 00:00:00 | 00:00:00 | 00:00:00 | |
| LZ4TU-5 | 2026-09-01 15:15:05 | 43.30621 | 22.84769 | 0° | 0km/h | 1643m | 0.0m/s | 16.3°C | 93.1% | 0hPa | 0V | 00:00:00 | 00:00:00 | 00:00:00 | |
| LZ4TU-5 | 2026-09-01 15:15:01 | 43.30621 | 22.84769 | 0° | 0km/h | 1643m | 0.0m/s | 16.3°C | 93.0% | 0hPa | 0V | 00:00:00 | 00:00:00 | 00:00:00 | |
| LZ4TU-5 | 2026-09-01 15:13:50 | 43.30621 | 22.84769 | 0° | 0km/h | 1643m | 0.0m/s | 16.4°C | 92.9% | 0hPa | 0V | 00:00:00 | 00:00:00 | 00:00:00 | |
| LZ4TU-5 | 2026-09-01 15:13:45 | 43.30621 | 22.84769 | 0° | 0km/h | 1643m | 0.0m/s | 16.4°C | 0% | 0hPa | 0V | 00:00:00 | 00:00:00 | 00:00:00 | |
| LZ4TU-5 | 2026-09-01 15:12:35 | 43.30621 | 22.84769 | 0° | 0km/h | 1643m | 0.0m/s | 16.4°C | 93.3% | 0hPa | 0V | 00:00:00 | 00:00:00 | 00:00:00 | |
| LZ4TU-5 | 2026-09-01 15:12:30 | 43.30621 | 22.84769 | 0° | 0km/h | 1643m | 0.0m/s | 16.3°C | 93.2% | 0hPa | 0V | 00:00:00 | 00:00:00 | 00:00:00 | |
| LZ4TU-5 | 2026-09-01 15:12:25 | 43.30621 | 22.84769 | 0° | 0km/h | 1643m | 0.0m/s | 16.3°C | 93.1% | 0hPa | 0V | 00:00:00 | 00:00:00 | 00:00:00 | |
| LZ4TU-5 | 2026-09-01 15:11:14 | 43.30621 | 22.84769 | 0° | 0km/h | 1643m | 0.0m/s | 16.3°C | 93.9% | 0hPa | 0V | 00:00:00 | 00:00:00 | 00:00:00 | |
| LZ4TU-5 | 2026-09-01 15:11:09 | 43.30621 | 22.84769 | 0° | 0km/h | 1643m | 0.0m/s | 16.3°C | 93.9% | 0hPa | 0V | 00:00:00 | 00:00:00 | 00:00:00 | |
| LZ4TU-5 | 2026-09-01 15:11:04 | 43.30621 | 22.84769 | 0° | 0km/h | 1643m | 0.0m/s | 16.4°C | 0% | 0hPa | 0V | 00:00:00 | 00:00:00 | 00:00:00 | |
| LZ4TU-5 | 2026-09-01 15:09:55 | 43.30621 | 22.84769 | 0° | 0km/h | 1643m | 0.0m/s | 16.3°C | 93.3% | 0hPa | 0V | 00:00:00 | 00:00:00 | 00:00:00 | |
| LZ4TU-5 | 2026-09-01 15:09:51 | 43.30621 | 22.84769 | 0° | 0km/h | 1643m | 0.0m/s | 16.5°C | 93.4% | 0hPa | 0V | 00:00:00 | 00:00:00 | 00:00:00 | |
| LZ4TU-5 | 2026-09-01 15:08:42 | 43.30621 | 22.84769 | 0° | 0km/h | 1643m | 0.0m/s | 16.6°C | 92.5% | 0hPa | 0V | 00:00:00 | 00:00:00 | 00:00:00 | |
| LZ4TU-5 | 2026-09-01 15:08:37 | 43.30621 | 22.84769 | 0° | 0km/h | 1643m | 0.0m/s | 16.6°C | 0% | 0hPa | 0V | 00:00:00 | 00:00:00 | 00:00:00 | |
| LZ4TU-5 | 2026-09-01 15:07:28 | 43.30621 | 22.84769 | 0° | 0km/h | 1643m | 0.0m/s | 16.7°C | 93.5% | 0hPa | 0V | 00:00:00 | 00:00:00 | 00:00:00 | |
| LZ4TU-5 | 2026-09-01 15:07:23 | 43.30621 | 22.84769 | 0° | 0km/h | 1643m | 0.0m/s | 16.7°C | 93.4% | 0hPa | 0V | 00:00:00 | 00:00:00 | 00:00:00 | |
| LZ4TU-5 | 2026-09-01 15:06:13 | 43.30621 | 22.84769 | 0° | 0km/h | 1643m | 0.0m/s | 16.9°C | 93.9% | 0hPa | 0V | 00:00:00 | 00:00:00 | 00:00:00 | |
| LZ4TU-5 | 2026-09-01 15:06:08 | 43.30621 | 22.84769 | 0° | 0km/h | 1643m | 0.0m/s | 16.9°C | 0% | 0hPa | 0V | 00:00:00 | 00:00:00 | 00:00:00 | |
| LZ4TU-5 | 2026-09-01 15:04:57 | 43.30621 | 22.84769 | 0° | 0km/h | 1643m | 0.0m/s | 16.9°C | 92.3% | 0hPa | 0V | 00:00:00 | 00:00:00 | 00:00:00 | |
| LZ4TU-5 | 2026-09-01 15:04:52 | 43.30621 | 22.84769 | 0° | 0km/h | 1643m | 0.0m/s | 17.0°C | 0% | 0hPa | 0V | 00:00:00 | 00:00:00 | 00:00:00 | |
| LZ4TU-5 | 2026-09-01 15:02:14 | 43.30621 | 22.84769 | 0° | 0km/h | 1643m | 0.0m/s | 16.9°C | 93.6% | 0hPa | 0V | 00:00:00 | 00:00:00 | 00:00:00 | |
| LZ4TU-5 | 2026-09-01 15:02:09 | 43.30621 | 22.84769 | 0° | 0km/h | 1643m | 0.0m/s | 17.0°C | 93.7% | 0hPa | 0V | 00:00:00 | 00:00:00 | 00:00:00 | |
| LZ4TU-5 | 2026-09-01 15:00:58 | 43.30621 | 22.84769 | 0° | 0km/h | 1643m | 0.0m/s | 17.1°C | 93.7% | 0hPa | 0V | 00:00:00 | 00:00:00 | 00:00:00 | |
| LZ4TU-5 | 2026-09-01 15:00:53 | 43.30621 | 22.84769 | 0° | 0km/h | 1643m | 0.0m/s | 17.2°C | 0% | 0hPa | 0V | 00:00:00 | 00:00:00 | 00:00:00 | |
| LZ4TU-5 | 2026-09-01 14:59:41 | 43.30621 | 22.84769 | 0° | 0km/h | 1643m | 0.0m/s | 17.2°C | 93.2% | 0hPa | 0V | 00:00:00 | 00:00:00 | 00:00:00 | |
| LZ4TU-5 | 2026-09-01 14:59:36 | 43.30621 | 22.84769 | 0° | 0km/h | 1643m | 0.0m/s | 17.3°C | 0% | 0hPa | 0V | 00:00:00 | 00:00:00 | 00:00:00 | |
| LZ4TU-5 | 2026-09-01 14:59:31 | 43.30621 | 22.84769 | 0° | 0km/h | 1643m | 0.0m/s | 17.6°C | 94.0% | 0hPa | 0V | 00:00:00 | 00:00:00 | 00:00:00 | |
| LZ4TU-5 | 2026-09-01 14:58:21 | 43.30621 | 22.84769 | 0° | 0km/h | 1643m | 0.0m/s | 17.4°C | 92.2% | 0hPa | 0V | 00:00:00 | 00:00:00 | 00:00:00 | |
| LZ4TU-5 | 2026-09-01 14:58:17 | 43.30621 | 22.84769 | 0° | 0km/h | 1643m | 0.0m/s | 17.3°C | 92.8% | 0hPa | 0V | 00:00:00 | 00:00:00 | 00:00:00 | |
| LZ4TU-5 | 2026-09-01 14:58:12 | 43.30621 | 22.84769 | 0° | 0km/h | 1643m | 0.0m/s | 17.3°C | 93.6% | 0hPa | 0V | 00:00:00 | 00:00:00 | 00:00:00 | |
| LZ4TU-5 | 2026-09-01 14:58:06 | 43.30621 | 22.84769 | 0° | 0km/h | 1643m | 0.0m/s | 17.1°C | 94.4% | 0hPa | 0V | 00:00:00 | 00:00:00 | 00:00:00 | |
| LZ4TU-5 | 2026-09-01 14:58:02 | 43.30621 | 22.84769 | 0° | 0km/h | 1643m | 0.0m/s | 17.1°C | 94.5% | 0hPa | 0V | 00:00:00 | 00:00:00 | 00:00:00 | |
| LZ4TU-5 | 2026-09-01 14:57:57 | 43.30621 | 22.84769 | 0° | 0km/h | 1643m | 0.0m/s | 17.3°C | 94.1% | 0hPa | 0V | 00:00:00 | 00:00:00 | 00:00:00 | |
| LZ4TU-5 | 2026-09-01 14:57:53 | 43.30621 | 22.84769 | 0° | 0km/h | 1643m | 0.0m/s | 17.3°C | 0% | 0hPa | 0V | 00:00:00 | 00:00:00 | 00:00:00 | |
| LZ4TU-5 | 2026-09-01 14:56:42 | 43.30621 | 22.84769 | 0° | 0km/h | 1643m | 0.0m/s | 17.0°C | 93.6% | 0hPa | 0V | 00:00:00 | 00:00:00 | 00:00:00 | |
| LZ4TU-5 | 2026-09-01 14:56:38 | 43.30621 | 22.84769 | 0° | 0km/h | 1643m | 0.0m/s | 17.1°C | 93.9% | 0hPa | 0V | 00:00:00 | 00:00:00 | 00:00:00 | |
| LZ4TU-5 | 2026-09-01 14:55:27 | 43.30621 | 22.84769 | 0° | 0km/h | 1643m | 0.0m/s | 17.1°C | 93.4% | 0hPa | 0V | 00:00:00 | 00:00:00 | 00:00:00 | |
| LZ4TU-5 | 2026-09-01 14:55:22 | 43.30621 | 22.84769 | 0° | 0km/h | 1643m | 0.0m/s | 17.1°C | 0% | 0hPa | 0V | 00:00:00 | 00:00:00 | 00:00:00 | |
| LZ4TU-5 | 2026-09-01 14:54:10 | 43.30621 | 22.84769 | 0° | 0km/h | 1643m | 0.0m/s | 17.1°C | 93.2% | 0hPa | 0V | 00:00:00 | 00:00:00 | 00:00:00 | |
| LZ4TU-5 | 2026-09-01 14:54:06 | 43.30621 | 22.84769 | 0° | 0km/h | 1643m | 0.0m/s | 17.0°C | 93.2% | 0hPa | 0V | 00:00:00 | 00:00:00 | 00:00:00 | |
| LZ4TU-5 | 2026-09-01 14:53:56 | 43.30621 | 22.84769 | 0° | 0km/h | 1643m | 0.0m/s | 17.0°C | 0% | 0hPa | 0V | 00:00:00 | 00:00:00 | 00:00:00 | |
| LZ4TU-5 | 2026-09-01 14:52:42 | 43.30621 | 22.84769 | 0° | 0km/h | 1643m | 0.0m/s | 17.4°C | 93.7% | 0hPa | 0V | 00:00:00 | 00:00:00 | 00:00:00 | |
| LZ4TU-5 | 2026-09-01 14:52:38 | 43.30621 | 22.84769 | 0° | 0km/h | 1643m | 0.0m/s | 17.3°C | 0% | 0hPa | 0V | 00:00:00 | 00:00:00 | 00:00:00 | |
| LZ4TU-5 | 2026-09-01 14:51:28 | 43.30621 | 22.84769 | 0° | 0km/h | 1643m | 0.0m/s | 17.3°C | 91.9% | 0hPa | 0V | 00:00:00 | 00:00:00 | 00:00:00 | |
| LZ4TU-5 | 2026-09-01 14:51:23 | 43.30621 | 22.84769 | 0° | 0km/h | 1643m | 0.0m/s | 17.3°C | 92.0% | 0hPa | 0V | 00:00:00 | 00:00:00 | 00:00:00 | |
| LZ4TU-5 | 2026-09-01 14:50:10 | 43.30621 | 22.84769 | 0° | 0km/h | 1643m | 0.0m/s | 17.6°C | 92.2% | 0hPa | 0V | 00:00:00 | 00:00:00 | 00:00:00 | |
| LZ4TU-5 | 2026-09-01 14:50:05 | 43.30621 | 22.84769 | 0° | 0km/h | 1643m | 0.0m/s | 17.5°C | 91.8% | 0hPa | 0V | 00:00:00 | 00:00:00 | 00:00:00 | |
| LZ4TU-5 | 2026-09-01 14:50:01 | 43.30621 | 22.84769 | 0° | 0km/h | 1643m | 0.0m/s | 17.6°C | 91.6% | 0hPa | 0V | 00:00:00 | 00:00:00 | 00:00:00 | |
| LZ4TU-5 | 2026-09-01 14:49:56 | 43.30621 | 22.84769 | 0° | 0km/h | 1643m | 0.0m/s | 17.5°C | 91.6% | 0hPa | 0V | 00:00:00 | 00:00:00 | 00:00:00 | |
| LZ4TU-5 | 2026-09-01 14:48:45 | 43.30621 | 22.84769 | 0° | 0km/h | 1643m | 0.0m/s | 17.5°C | 93.3% | 0hPa | 0V | 00:00:00 | 00:00:00 | 00:00:00 | |
| LZ4TU-5 | 2026-09-01 14:48:40 | 43.30621 | 22.84769 | 0° | 0km/h | 1643m | 0.0m/s | 17.5°C | 93.8% | 0hPa | 0V | 00:00:00 | 00:00:00 | 00:00:00 | |
| LZ4TU-5 | 2026-09-01 14:48:32 | 43.30621 | 22.84769 | 0° | 0km/h | 1643m | 0.0m/s | 17.5°C | 93.2% | 0hPa | 0V | 00:00:00 | 00:00:00 | 00:00:00 | |
| LZ4TU-5 | 2026-09-01 14:48:27 | 43.30621 | 22.84769 | 0° | 0km/h | 1643m | 0.0m/s | 17.5°C | 92.6% | 0hPa | 0V | 00:00:00 | 00:00:00 | 00:00:00 | |
| LZ4TU-5 | 2026-09-01 14:48:21 | 43.30621 | 22.84769 | 0° | 0km/h | 1643m | 0.0m/s | 17.6°C | 92.6% | 0hPa | 0V | 00:00:00 | 00:00:00 | 00:00:00 | |
| LZ4TU-5 | 2026-09-01 14:48:16 | 43.30621 | 22.84769 | 0° | 0km/h | 1643m | 0.0m/s | 17.5°C | 93.3% | 0hPa | 0V | 00:00:00 | 00:00:00 | 00:00:00 | |
| LZ4TU-5 | 2026-09-01 14:48:11 | 43.30621 | 22.84769 | 0° | 0km/h | 1643m | 0.0m/s | 17.5°C | 0% | 0hPa | 0V | 00:00:00 | 00:00:00 | 00:00:00 | |
| LZ4TU-5 | 2026-09-01 14:46:59 | 43.30621 | 22.84769 | 0° | 0km/h | 1643m | 0.0m/s | 17.6°C | 92.0% | 0hPa | 0V | 00:00:00 | 00:00:00 | 00:00:00 | |
| LZ4TU-5 | 2026-09-01 14:46:55 | 43.30621 | 22.84769 | 0° | 0km/h | 1643m | 0.0m/s | 17.6°C | 0% | 0hPa | 0V | 00:00:00 | 00:00:00 | 00:00:00 | |
| LZ4TU-5 | 2026-09-01 14:45:45 | 43.30621 | 22.84769 | 0° | 0km/h | 1643m | 0.0m/s | 17.9°C | 89.1% | 0hPa | 0V | 00:00:00 | 00:00:00 | 00:00:00 | |
| LZ4TU-5 | 2026-09-01 14:45:41 | 43.30621 | 22.84769 | 0° | 0km/h | 1643m | 0.0m/s | 18.0°C | 89.0% | 0hPa | 0V | 00:00:00 | 00:00:00 | 00:00:00 | |
| LZ4TU-5 | 2026-09-01 14:45:35 | 43.30621 | 22.84769 | 0° | 0km/h | 1643m | 0.0m/s | 17.7°C | 89.7% | 0hPa | 0V | 00:00:00 | 00:00:00 | 00:00:00 | |
| LZ4TU-5 | 2026-09-01 14:45:30 | 43.30621 | 22.84769 | 0° | 0km/h | 1643m | 0.0m/s | 17.8°C | 89.9% | 0hPa | 0V | 00:00:00 | 00:00:00 | 00:00:00 | |
| LZ4TU-5 | 2026-09-01 14:45:25 | 43.30621 | 22.84769 | 0° | 0km/h | 1643m | 0.0m/s | 17.7°C | 92.4% | 0hPa | 0V | 00:00:00 | 00:00:00 | 00:00:00 | |
| LZ4TU-5 | 2026-09-01 14:45:21 | 43.30621 | 22.84769 | 0° | 0km/h | 1643m | 0.0m/s | 17.7°C | 92.9% | 0hPa | 0V | 00:00:00 | 00:00:00 | 00:00:00 | |
| LZ4TU-5 | 2026-09-01 14:45:15 | 43.30621 | 22.84769 | 0° | 0km/h | 1643m | 0.0m/s | 17.7°C | 93.3% | 0hPa | 0V | 00:00:00 | 00:00:00 | 00:00:00 | |
| LZ4TU-5 | 2026-09-01 14:45:10 | 43.30621 | 22.84769 | 0° | 0km/h | 1643m | 0.0m/s | 17.8°C | 94.4% | 0hPa | 0V | 00:00:00 | 00:00:00 | 00:00:00 | |
| LZ4TU-5 | 2026-09-01 14:45:05 | 43.30621 | 22.84769 | 0° | 0km/h | 1643m | 0.0m/s | 17.8°C | 94.7% | 0hPa | 0V | 00:00:00 | 00:00:00 | 00:00:00 | |
| LZ4TU-5 | 2026-09-01 14:45:00 | 43.30621 | 22.84769 | 0° | 0km/h | 1643m | 0.0m/s | 17.8°C | 94.4% | 0hPa | 0V | 00:00:00 | 00:00:00 | 00:00:00 | |
| LZ4TU-5 | 2026-09-01 14:44:56 | 43.30621 | 22.84769 | 0° | 0km/h | 1643m | 0.0m/s | 17.7°C | 94.2% | 0hPa | 0V | 00:00:00 | 00:00:00 | 00:00:00 | |
| LZ4TU-5 | 2026-09-01 14:44:51 | 43.30621 | 22.84769 | 0° | 0km/h | 1643m | 0.0m/s | 17.8°C | 93.8% | 0hPa | 0V | 00:00:00 | 00:00:00 | 00:00:00 | |
| LZ4TU-5 | 2026-09-01 14:43:36 | 43.30621 | 22.84769 | 0° | 0km/h | 1643m | 0.0m/s | 17.8°C | 93.8% | 0hPa | 0V | 00:00:00 | 00:00:00 | 00:00:00 | |
| LZ4TU-5 | 2026-09-01 14:43:30 | 43.30621 | 22.84769 | 0° | 0km/h | 1643m | 0.0m/s | 17.8°C | 93.7% | 0hPa | 0V | 00:00:00 | 00:00:00 | 00:00:00 | |
| LZ4TU-5 | 2026-09-01 14:42:19 | 43.30621 | 22.84769 | 0° | 0km/h | 1643m | 0.0m/s | 17.8°C | 93.8% | 0hPa | 0V | 00:00:00 | 00:00:00 | 00:00:00 | |
| LZ4TU-5 | 2026-09-01 14:42:15 | 43.30621 | 22.84769 | 0° | 0km/h | 1643m | 0.0m/s | 17.8°C | 0% | 0hPa | 0V | 00:00:00 | 00:00:00 | 00:00:00 | |
| LZ4TU-5 | 2026-09-01 14:41:04 | 43.30621 | 22.84769 | 0° | 0km/h | 1643m | 0.0m/s | 17.7°C | 92.8% | 0hPa | 0V | 00:00:00 | 00:00:00 | 00:00:00 | |
| LZ4TU-5 | 2026-09-01 14:40:59 | 43.30621 | 22.84769 | 0° | 0km/h | 1643m | 0.0m/s | 17.6°C | 93.0% | 0hPa | 0V | 00:00:00 | 00:00:00 | 00:00:00 | |
| LZ4TU-5 | 2026-09-01 14:39:47 | 43.30621 | 22.84769 | 0° | 0km/h | 1643m | 0.0m/s | 17.6°C | 94.0% | 0hPa | 0V | 00:00:00 | 00:00:00 | 00:00:00 | |
| LZ4TU-5 | 2026-09-01 14:39:43 | 43.30621 | 22.84769 | 0° | 0km/h | 1643m | 0.0m/s | 17.7°C | 93.8% | 0hPa | 0V | 00:00:00 | 00:00:00 | 00:00:00 | |
| LZ4TU-5 | 2026-09-01 14:39:38 | 43.30621 | 22.84769 | 0° | 0km/h | 1643m | 0.0m/s | 17.7°C | 93.8% | 0hPa | 0V | 00:00:00 | 00:00:00 | 00:00:00 | |
| LZ4TU-5 | 2026-09-01 14:39:33 | 43.30621 | 22.84769 | 0° | 0km/h | 1643m | 0.0m/s | 17.7°C | 93.8% | 0hPa | 0V | 00:00:00 | 00:00:00 | 00:00:00 | |
| LZ4TU-5 | 2026-09-01 14:39:28 | 43.30621 | 22.84769 | 0° | 0km/h | 1643m | 0.0m/s | 17.6°C | 0% | 0hPa | 0V | 00:00:00 | 00:00:00 | 00:00:00 | |
| LZ4TU-5 | 2026-09-01 14:38:18 | 43.30621 | 22.84769 | 0° | 0km/h | 1643m | 0.0m/s | 17.3°C | 89.1% | 0hPa | 0V | 00:00:00 | 00:00:00 | 00:00:00 | |
| LZ4TU-5 | 2026-09-01 14:38:14 | 43.30621 | 22.84769 | 0° | 0km/h | 1643m | 0.0m/s | 17.3°C | 90.0% | 0hPa | 0V | 00:00:00 | 00:00:00 | 00:00:00 | |
| LZ4TU-5 | 2026-09-01 14:38:10 | 43.30621 | 22.84769 | 0° | 0km/h | 1643m | 0.0m/s | 17.5°C | 92.3% | 0hPa | 0V | 00:00:00 | 00:00:00 | 00:00:00 | |
| LZ4TU-5 | 2026-09-01 14:38:04 | 43.30621 | 22.84769 | 0° | 0km/h | 1643m | 0.0m/s | 17.6°C | 0% | 0hPa | 0V | 00:00:00 | 00:00:00 | 00:00:00 | |
| LZ4TU-5 | 2026-09-01 14:36:54 | 43.30621 | 22.84769 | 0° | 0km/h | 1643m | 0.0m/s | 17.8°C | 91.3% | 0hPa | 0V | 00:00:00 | 00:00:00 | 00:00:00 | |
| LZ4TU-5 | 2026-09-01 14:36:50 | 43.30621 | 22.84769 | 0° | 0km/h | 1643m | 0.0m/s | 17.7°C | 91.2% | 0hPa | 0V | 00:00:00 | 00:00:00 | 00:00:00 | |
| LZ4TU-5 | 2026-09-01 14:36:46 | 43.30621 | 22.84769 | 0° | 0km/h | 1643m | 0.0m/s | 17.7°C | 90.9% | 0hPa | 0V | 00:00:00 | 00:00:00 | 00:00:00 | |
| LZ4TU-5 | 2026-09-01 14:36:41 | 43.30621 | 22.84769 | 0° | 0km/h | 1643m | 0.0m/s | 17.7°C | 93.5% | 0hPa | 0V | 00:00:00 | 00:00:00 | 00:00:00 | |
| LZ4TU-5 | 2026-09-01 14:35:30 | 43.30621 | 22.84769 | 0° | 0km/h | 1643m | 0.0m/s | 18.1°C | 93.8% | 0hPa | 0V | 00:00:00 | 00:00:00 | 00:00:00 | |
| LZ4TU-5 | 2026-09-01 14:35:26 | 43.30621 | 22.84769 | 0° | 0km/h | 1643m | 0.0m/s | 18.0°C | 93.9% | 0hPa | 0V | 00:00:00 | 00:00:00 | 00:00:00 | |
| LZ4TU-5 | 2026-09-01 14:35:22 | 43.30621 | 22.84769 | 0° | 0km/h | 1643m | 0.0m/s | 18.2°C | 93.7% | 0hPa | 0V | 00:00:00 | 00:00:00 | 00:00:00 | |
| LZ4TU-5 | 2026-09-01 14:35:16 | 43.30621 | 22.84769 | 0° | 0km/h | 1643m | 0.0m/s | 18.2°C | 0% | 0hPa | 0V | 00:00:00 | 00:00:00 | 00:00:00 | |
| LZ4TU-5 | 2026-09-01 14:34:03 | 43.30621 | 22.84769 | 0° | 0km/h | 1643m | 0.0m/s | 18.4°C | 93.2% | 0hPa | 0V | 00:00:00 | 00:00:00 | 00:00:00 | |
| LZ4TU-5 | 2026-09-01 14:33:58 | 43.30621 | 22.84769 | 0° | 0km/h | 1643m | 0.0m/s | 18.5°C | 0% | 0hPa | 0V | 00:00:00 | 00:00:00 | 00:00:00 | |
| LZ4TU-5 | 2026-09-01 14:32:43 | 43.30621 | 22.84769 | 0° | 0km/h | 1643m | 0.0m/s | 18.6°C | 91.6% | 0hPa | 0V | 00:00:00 | 00:00:00 | 00:00:00 | |
| LZ4TU-5 | 2026-09-01 14:32:38 | 43.30621 | 22.84769 | 0° | 0km/h | 1643m | 0.0m/s | 18.6°C | 91.3% | 0hPa | 0V | 00:00:00 | 00:00:00 | 00:00:00 | |
| LZ4TU-5 | 2026-09-01 14:32:35 | 43.30621 | 22.84769 | 0° | 0km/h | 1643m | 0.0m/s | 18.6°C | 92.4% | 0hPa | 0V | 00:00:00 | 00:00:00 | 00:00:00 | |
| LZ4TU-5 | 2026-09-01 14:32:28 | 43.30621 | 22.84769 | 0° | 0km/h | 1643m | 0.0m/s | 18.7°C | 93.5% | 0hPa | 0V | 00:00:00 | 00:00:00 | 00:00:00 | |
| LZ4TU-5 | 2026-09-01 14:31:15 | 43.30621 | 22.84769 | 0° | 0km/h | 1643m | 0.0m/s | 18.8°C | 91.5% | 0hPa | 0V | 00:00:00 | 00:00:00 | 00:00:00 | |
| LZ4TU-5 | 2026-09-01 14:31:10 | 43.30621 | 22.84769 | 0° | 0km/h | 1643m | 0.0m/s | 18.8°C | 0% | 0hPa | 0V | 00:00:00 | 00:00:00 | 00:00:00 | |
| LZ4TU-5 | 2026-09-01 14:29:59 | 43.30621 | 22.84769 | 0° | 0km/h | 1643m | 0.0m/s | 19.0°C | 94.2% | 0hPa | 0V | 00:00:00 | 00:00:00 | 00:00:00 | |
| LZ4TU-5 | 2026-09-01 14:29:55 | 43.30621 | 22.84769 | 0° | 0km/h | 1643m | 0.0m/s | 19.0°C | 94.0% | 0hPa | 0V | 00:00:00 | 00:00:00 | 00:00:00 | |
| LZ4TU-5 | 2026-09-01 14:28:43 | 43.30621 | 22.84769 | 0° | 0km/h | 1643m | 0.0m/s | 18.7°C | 84.5% | 0hPa | 0V | 00:00:00 | 00:00:00 | 00:00:00 | |
| LZ4TU-5 | 2026-09-01 14:28:39 | 43.30621 | 22.84769 | 0° | 0km/h | 1643m | 0.0m/s | 18.8°C | 85.1% | 0hPa | 0V | 00:00:00 | 00:00:00 | 00:00:00 | |
| LZ4TU-5 | 2026-09-01 14:28:34 | 43.30621 | 22.84769 | 0° | 0km/h | 1643m | 0.0m/s | 18.8°C | 87.0% | 0hPa | 0V | 00:00:00 | 00:00:00 | 00:00:00 | |
| LZ4TU-5 | 2026-09-01 14:28:30 | 43.30621 | 22.84769 | 0° | 0km/h | 1643m | 0.0m/s | 18.9°C | 88.0% | 0hPa | 0V | 00:00:00 | 00:00:00 | 00:00:00 | |
| LZ4TU-5 | 2026-09-01 14:28:25 | 43.30621 | 22.84769 | 0° | 0km/h | 1643m | 0.0m/s | 18.8°C | 90.3% | 0hPa | 0V | 00:00:00 | 00:00:00 | 00:00:00 | |
| LZ4TU-5 | 2026-09-01 14:27:14 | 43.30621 | 22.84769 | 0° | 0km/h | 1643m | 0.0m/s | 18.6°C | 92.3% | 0hPa | 0V | 00:00:00 | 00:00:00 | 00:00:00 | |
| LZ4TU-5 | 2026-09-01 14:27:10 | 43.30621 | 22.84769 | 0° | 0km/h | 1643m | 0.0m/s | 18.8°C | 93.1% | 0hPa | 0V | 00:00:00 | 00:00:00 | 00:00:00 | |
| LZ4TU-5 | 2026-09-01 14:27:05 | 43.30621 | 22.84769 | 0° | 0km/h | 1643m | 0.0m/s | 18.8°C | 0% | 0hPa | 0V | 00:00:00 | 00:00:00 | 00:00:00 | |
| LZ4TU-5 | 2026-09-01 14:25:54 | 43.30621 | 22.84769 | 0° | 0km/h | 1643m | 0.0m/s | 18.9°C | 92.4% | 0hPa | 0V | 00:00:00 | 00:00:00 | 00:00:00 | |
| LZ4TU-5 | 2026-09-01 14:25:49 | 43.30621 | 22.84769 | 0° | 0km/h | 1643m | 0.0m/s | 18.7°C | 93.7% | 0hPa | 0V | 00:00:00 | 00:00:00 | 00:00:00 | |
| LZ4TU-5 | 2026-09-01 14:25:44 | 43.30621 | 22.84769 | 0° | 0km/h | 1643m | 0.0m/s | 18.6°C | 93.5% | 0hPa | 0V | 00:00:00 | 00:00:00 | 00:00:00 | |
| LZ4TU-5 | 2026-09-01 14:25:39 | 43.30621 | 22.84769 | 0° | 0km/h | 1643m | 0.0m/s | 18.8°C | 92.9% | 0hPa | 0V | 00:00:00 | 00:00:00 | 00:00:00 | |
| LZ4TU-5 | 2026-09-01 14:25:34 | 43.30621 | 22.84769 | 0° | 0km/h | 1643m | 0.0m/s | 18.6°C | 92.0% | 0hPa | 0V | 00:00:00 | 00:00:00 | 00:00:00 | |
| LZ4TU-5 | 2026-09-01 14:25:30 | 43.30621 | 22.84769 | 0° | 0km/h | 1643m | 0.0m/s | 18.8°C | 91.0% | 0hPa | 0V | 00:00:00 | 00:00:00 | 00:00:00 | |
| LZ4TU-5 | 2026-09-01 14:25:25 | 43.30621 | 22.84769 | 0° | 0km/h | 1643m | 0.0m/s | 18.7°C | 90.5% | 0hPa | 0V | 00:00:00 | 00:00:00 | 00:00:00 | |
| LZ4TU-5 | 2026-09-01 14:25:20 | 43.30621 | 22.84769 | 0° | 0km/h | 1643m | 0.0m/s | 18.6°C | 0% | 0hPa | 0V | 00:00:00 | 00:00:00 | 00:00:00 | |
| LZ4TU-5 | 2026-09-01 14:24:10 | 43.30621 | 22.84769 | 0° | 0km/h | 1643m | 0.0m/s | 18.8°C | 95.0% | 0hPa | 0V | 00:00:00 | 00:00:00 | 00:00:00 | |
| LZ4TU-5 | 2026-09-01 14:24:06 | 43.30621 | 22.84769 | 0° | 0km/h | 1643m | 0.0m/s | 19.0°C | 94.8% | 0hPa | 0V | 00:00:00 | 00:00:00 | 00:00:00 | |
| LZ4TU-5 | 2026-09-01 14:24:01 | 43.30621 | 22.84769 | 0° | 0km/h | 1643m | 0.0m/s | 19.0°C | 94.0% | 0hPa | 0V | 00:00:00 | 00:00:00 | 00:00:00 | |
| LZ4TU-5 | 2026-09-01 14:22:46 | 43.30621 | 22.84769 | 0° | 0km/h | 1643m | 0.0m/s | 18.9°C | 94.2% | 0hPa | 0V | 00:00:00 | 00:00:00 | 00:00:00 | |
| LZ4TU-5 | 2026-09-01 14:22:41 | 43.30621 | 22.84769 | 0° | 0km/h | 1643m | 0.0m/s | 19.3°C | 94.6% | 0hPa | 0V | 00:00:00 | 00:00:00 | 00:00:00 | |
| LZ4TU-5 | 2026-09-01 14:22:36 | 43.30621 | 22.84769 | 0° | 0km/h | 1643m | 0.0m/s | 19.4°C | 0% | 0hPa | 0V | 00:00:00 | 00:00:00 | 00:00:00 | |
| LZ4TU-5 | 2026-09-01 14:21:23 | 43.30621 | 22.84769 | 0° | 0km/h | 1643m | 0.0m/s | 19.5°C | 95.0% | 0hPa | 0V | 00:00:00 | 00:00:00 | 00:00:00 | |
| LZ4TU-5 | 2026-09-01 14:21:18 | 43.30621 | 22.84769 | 0° | 0km/h | 1643m | 0.0m/s | 19.4°C | 95.5% | 0hPa | 0V | 00:00:00 | 00:00:00 | 00:00:00 | |
| LZ4TU-5 | 2026-09-01 14:21:13 | 43.30621 | 22.84769 | 0° | 0km/h | 1643m | 0.0m/s | 19.6°C | 96.2% | 0hPa | 0V | 00:00:00 | 00:00:00 | 00:00:00 | |
| LZ4TU-5 | 2026-09-01 14:21:07 | 43.30621 | 22.84769 | 0° | 0km/h | 1643m | 0.0m/s | 19.5°C | 95.9% | 0hPa | 0V | 00:00:00 | 00:00:00 | 00:00:00 | |
| LZ4TU-5 | 2026-09-01 14:21:02 | 43.30621 | 22.84769 | 0° | 0km/h | 1643m | 0.0m/s | 19.6°C | 95.4% | 0hPa | 0V | 00:00:00 | 00:00:00 | 00:00:00 | |
| LZ4TU-5 | 2026-09-01 14:20:54 | 43.30621 | 22.84769 | 0° | 0km/h | 1643m | 0.0m/s | 19.5°C | 94.1% | 0hPa | 0V | 00:00:00 | 00:00:00 | 00:00:00 | |
| LZ4TU-5 | 2026-09-01 14:20:49 | 43.30621 | 22.84769 | 0° | 0km/h | 1643m | 0.0m/s | 19.5°C | 92.9% | 0hPa | 0V | 00:00:00 | 00:00:00 | 00:00:00 | |
| LZ4TU-5 | 2026-09-01 14:20:45 | 43.30621 | 22.84769 | 0° | 0km/h | 1643m | 0.0m/s | 19.5°C | 91.0% | 0hPa | 0V | 00:00:00 | 00:00:00 | 00:00:00 | |
| LZ4TU-5 | 2026-09-01 14:20:40 | 43.30621 | 22.84769 | 0° | 0km/h | 1643m | 0.0m/s | 19.4°C | 0% | 0hPa | 0V | 00:00:00 | 00:00:00 | 00:00:00 | |
| LZ4TU-5 | 2026-09-01 14:19:30 | 43.30621 | 22.84769 | 0° | 0km/h | 1643m | 0.0m/s | 19.3°C | 95.1% | 0hPa | 0V | 00:00:00 | 00:00:00 | 00:00:00 | |
| LZ4TU-5 | 2026-09-01 14:19:26 | 43.30621 | 22.84769 | 0° | 0km/h | 1643m | 0.0m/s | 19.4°C | 94.8% | 0hPa | 0V | 00:00:00 | 00:00:00 | 00:00:00 | |
| LZ4TU-5 | 2026-09-01 14:19:20 | 43.30621 | 22.84769 | 0° | 0km/h | 1643m | 0.0m/s | 19.4°C | 94.3% | 0hPa | 0V | 00:00:00 | 00:00:00 | 00:00:00 | |
| LZ4TU-5 | 2026-09-01 14:18:07 | 43.30621 | 22.84769 | 0° | 0km/h | 1643m | 0.0m/s | 19.3°C | 90.6% | 0hPa | 0V | 00:00:00 | 00:00:00 | 00:00:00 | |
| LZ4TU-5 | 2026-09-01 14:18:02 | 43.30621 | 22.84769 | 0° | 0km/h | 1643m | 0.0m/s | 19.1°C | 0% | 0hPa | 0V | 00:00:00 | 00:00:00 | 00:00:00 | |
| LZ4TU-5 | 2026-09-01 14:16:51 | 43.30621 | 22.84769 | 0° | 0km/h | 1643m | 0.0m/s | 19.3°C | 95.8% | 0hPa | 0V | 00:00:00 | 00:00:00 | 00:00:00 | |
| LZ4TU-5 | 2026-09-01 14:16:46 | 43.30621 | 22.84769 | 0° | 0km/h | 1643m | 0.0m/s | 19.2°C | 0% | 0hPa | 0V | 00:00:00 | 00:00:00 | 00:00:00 | |
| LZ4TU-5 | 2026-09-01 14:15:35 | 43.30621 | 22.84769 | 0° | 0km/h | 1643m | 0.0m/s | 19.2°C | 96.5% | 0hPa | 0V | 00:00:00 | 00:00:00 | 00:00:00 | |
| LZ4TU-5 | 2026-09-01 14:15:31 | 43.30621 | 22.84769 | 0° | 0km/h | 1643m | 0.0m/s | 19.0°C | 96.3% | 0hPa | 0V | 00:00:00 | 00:00:00 | 00:00:00 | |
| LZ4TU-5 | 2026-09-01 14:14:20 | 43.30621 | 22.84769 | 0° | 0km/h | 1643m | 0.0m/s | 18.9°C | 93.0% | 0hPa | 0V | 00:00:00 | 00:00:00 | 00:00:00 | |
| LZ4TU-5 | 2026-09-01 14:14:15 | 43.30621 | 22.84769 | 0° | 0km/h | 1643m | 0.0m/s | 18.7°C | 0% | 0hPa | 0V | 00:00:00 | 00:00:00 | 00:00:00 | |
| LZ4TU-5 | 2026-09-01 14:12:59 | 43.30621 | 22.84769 | 0° | 0km/h | 1643m | 0.0m/s | 18.8°C | 92.8% | 0hPa | 0V | 00:00:00 | 00:00:00 | 00:00:00 | |
| LZ4TU-5 | 2026-09-01 14:12:54 | 43.30621 | 22.84769 | 0° | 0km/h | 1643m | 0.0m/s | 18.6°C | 92.1% | 0hPa | 0V | 00:00:00 | 00:00:00 | 00:00:00 | |
| LZ4TU-5 | 2026-09-01 14:12:50 | 43.30621 | 22.84769 | 0° | 0km/h | 1643m | 0.0m/s | 18.6°C | 91.6% | 0hPa | 0V | 00:00:00 | 00:00:00 | 00:00:00 | |
| LZ4TU-5 | 2026-09-01 14:12:46 | 43.30621 | 22.84769 | 0° | 0km/h | 1643m | 0.0m/s | 18.7°C | 91.2% | 0hPa | 0V | 00:00:00 | 00:00:00 | 00:00:00 | |
| LZ4TU-5 | 2026-09-01 14:11:36 | 43.30621 | 22.84769 | 0° | 0km/h | 1643m | 0.0m/s | 18.8°C | 93.8% | 0hPa | 0V | 00:00:00 | 00:00:00 | 00:00:00 | |
| LZ4TU-5 | 2026-09-01 14:11:32 | 43.30621 | 22.84769 | 0° | 0km/h | 1643m | 0.0m/s | 18.9°C | 0% | 0hPa | 0V | 00:00:00 | 00:00:00 | 00:00:00 | |
| LZ4TU-5 | 2026-09-01 14:11:26 | 43.30621 | 22.84769 | 0° | 0km/h | 1643m | 0.0m/s | 18.9°C | 90.2% | 0hPa | 0V | 00:00:00 | 00:00:00 | 00:00:00 | |
| LZ4TU-5 | 2026-09-01 14:11:20 | 43.30621 | 22.84769 | 0° | 0km/h | 1643m | 0.0m/s | 18.8°C | 89.6% | 0hPa | 0V | 00:00:00 | 00:00:00 | 00:00:00 | |
| LZ4TU-5 | 2026-09-01 14:09:58 | 43.30621 | 22.84769 | 0° | 0km/h | 1643m | 0.0m/s | 19.3°C | 92.8% | 0hPa | 0V | 00:00:00 | 00:00:00 | 00:00:00 | |
| LZ4TU-5 | 2026-09-01 14:09:53 | 43.30621 | 22.84769 | 0° | 0km/h | 1643m | 0.0m/s | 19.3°C | 0% | 0hPa | 0V | 00:00:00 | 00:00:00 | 00:00:00 | |
| LZ4TU-5 | 2026-09-01 14:08:43 | 43.30621 | 22.84769 | 0° | 0km/h | 1643m | 0.0m/s | 19.2°C | 96.0% | 0hPa | 0V | 00:00:00 | 00:00:00 | 00:00:00 | |
| LZ4TU-5 | 2026-09-01 14:08:38 | 43.30621 | 22.84769 | 0° | 0km/h | 1643m | 0.0m/s | 19.4°C | 95.9% | 0hPa | 0V | 00:00:00 | 00:00:00 | 00:00:00 | |
| LZ4TU-5 | 2026-09-01 14:07:27 | 43.30621 | 22.84769 | 0° | 0km/h | 1643m | 0.0m/s | 19.0°C | 93.9% | 0hPa | 0V | 00:00:00 | 00:00:00 | 00:00:00 | |
| LZ4TU-5 | 2026-09-01 14:07:22 | 43.30621 | 22.84769 | 0° | 0km/h | 1643m | 0.0m/s | 19.0°C | 0% | 0hPa | 0V | 00:00:00 | 00:00:00 | 00:00:00 | |
| LZ4TU-5 | 2026-09-01 14:06:10 | 43.30621 | 22.84769 | 0° | 0km/h | 1643m | 0.0m/s | 19.1°C | 94.3% | 0hPa | 0V | 00:00:00 | 00:00:00 | 00:00:00 | |
| LZ4TU-5 | 2026-09-01 14:06:06 | 43.30621 | 22.84769 | 0° | 0km/h | 1643m | 0.0m/s | 19.2°C | 0% | 0hPa | 0V | 00:00:00 | 00:00:00 | 00:00:00 | |
| LZ4TU-5 | 2026-09-01 14:04:55 | 43.30621 | 22.84769 | 0° | 0km/h | 1643m | 0.0m/s | 19.3°C | 94.5% | 0hPa | 0V | 00:00:00 | 00:00:00 | 00:00:00 | |
| LZ4TU-5 | 2026-09-01 14:04:50 | 43.30621 | 22.84769 | 0° | 0km/h | 1643m | 0.0m/s | 19.2°C | 94.8% | 0hPa | 0V | 00:00:00 | 00:00:00 | 00:00:00 | |
| LZ4TU-5 | 2026-09-01 14:03:40 | 43.30621 | 22.84769 | 0° | 0km/h | 1643m | 0.0m/s | 19.3°C | 95.3% | 0hPa | 0V | 00:00:00 | 00:00:00 | 00:00:00 | |
| LZ4TU-5 | 2026-09-01 14:03:35 | 43.30621 | 22.84769 | 0° | 0km/h | 1643m | 0.0m/s | 19.1°C | 95.3% | 0hPa | 0V | 00:00:00 | 00:00:00 | 00:00:00 | |
| LZ4TU-5 | 2026-09-01 14:03:30 | 43.30621 | 22.84769 | 0° | 0km/h | 1643m | 0.0m/s | 19.3°C | 95.8% | 0hPa | 0V | 00:00:00 | 00:00:00 | 00:00:00 | |
| LZ4TU-5 | 2026-09-01 14:03:26 | 43.30621 | 22.84769 | 0° | 0km/h | 1643m | 0.0m/s | 19.1°C | 96.1% | 0hPa | 0V | 00:00:00 | 00:00:00 | 00:00:00 | |
| LZ4TU-5 | 2026-09-01 14:03:22 | 43.30621 | 22.84769 | 0° | 0km/h | 1643m | 0.0m/s | 19.5°C | 96.4% | 0hPa | 0V | 00:00:00 | 00:00:00 | 00:00:00 | |
| LZ4TU-5 | 2026-09-01 14:03:17 | 43.30621 | 22.84769 | 0° | 0km/h | 1643m | 0.0m/s | 19.3°C | 96.1% | 0hPa | 0V | 00:00:00 | 00:00:00 | 00:00:00 | |
| LZ4TU-5 | 2026-09-01 14:03:13 | 43.30621 | 22.84769 | 0° | 0km/h | 1643m | 0.0m/s | 19.4°C | 95.9% | 0hPa | 0V | 00:00:00 | 00:00:00 | 00:00:00 | |
| LZ4TU-5 | 2026-09-01 14:03:08 | 43.30621 | 22.84769 | 0° | 0km/h | 1643m | 0.0m/s | 19.4°C | 0% | 0hPa | 0V | 00:00:00 | 00:00:00 | 00:00:00 | |
| LZ4TU-5 | 2026-09-01 14:01:57 | 43.30621 | 22.84769 | 0° | 0km/h | 1643m | 0.0m/s | 18.9°C | 94.3% | 0hPa | 0V | 00:00:00 | 00:00:00 | 00:00:00 | |
| LZ4TU-5 | 2026-09-01 14:01:53 | 43.30621 | 22.84769 | 0° | 0km/h | 1643m | 0.0m/s | 19.1°C | 95.4% | 0hPa | 0V | 00:00:00 | 00:00:00 | 00:00:00 | |
| LZ4TU-5 | 2026-09-01 14:01:48 | 43.30621 | 22.84769 | 0° | 0km/h | 1643m | 0.0m/s | 19.3°C | 0% | 0hPa | 0V | 00:00:00 | 00:00:00 | 00:00:00 | |
| LZ4TU-5 | 2026-09-01 14:00:37 | 43.30621 | 22.84769 | 0° | 0km/h | 1643m | 0.0m/s | 19.5°C | 96.1% | 0hPa | 0V | 00:00:00 | 00:00:00 | 00:00:00 | |
| LZ4TU-5 | 2026-09-01 14:00:32 | 43.30621 | 22.84769 | 0° | 0km/h | 1643m | 0.0m/s | 19.5°C | 95.7% | 0hPa | 0V | 00:00:00 | 00:00:00 | 00:00:00 | |
| LZ4TU-5 | 2026-09-01 14:00:25 | 43.30621 | 22.84769 | 0° | 0km/h | 1643m | 0.0m/s | 19.4°C | 94.8% | 0hPa | 0V | 00:00:00 | 00:00:00 | 00:00:00 | |
| LZ4TU-5 | 2026-09-01 14:00:20 | 43.30621 | 22.84769 | 0° | 0km/h | 1643m | 0.0m/s | 19.2°C | 94.2% | 0hPa | 0V | 00:00:00 | 00:00:00 | 00:00:00 | |
| LZ4TU-5 | 2026-09-01 14:00:12 | 43.30621 | 22.84769 | 0° | 0km/h | 1643m | 0.0m/s | 19.0°C | 93.9% | 0hPa | 0V | 00:00:00 | 00:00:00 | 00:00:00 | |
| LZ4TU-5 | 2026-09-01 14:00:08 | 43.30621 | 22.84769 | 0° | 0km/h | 1643m | 0.0m/s | 19.0°C | 93.6% | 0hPa | 0V | 00:00:00 | 00:00:00 | 00:00:00 | |
| LZ4TU-5 | 2026-09-01 13:59:57 | 43.30621 | 22.84769 | 0° | 0km/h | 1643m | 0.0m/s | 18.8°C | 93.4% | 0hPa | 0V | 00:00:00 | 00:00:00 | 00:00:00 | |
| LZ4TU-5 | 2026-09-01 13:59:48 | 43.30621 | 22.84769 | 0° | 0km/h | 1643m | 0.0m/s | 18.9°C | 0% | 0hPa | 0V | 00:00:00 | 00:00:00 | 00:00:00 | |
| LZ4TU-5 | 2026-09-01 13:58:37 | 43.30623 | 22.84766 | 165° | 2km/h | 1634m | 1.3m/s | 19.6°C | 96.6% | 0hPa | 0V | 00:00:00 | 00:00:00 | 00:00:00 | |
| LZ4TU-5 | 2026-09-01 13:58:33 | 43.30625 | 22.84764 | 0° | 0km/h | 1629m | 1.3m/s | 19.6°C | 96.4% | 0hPa | 0V | 00:00:00 | 00:00:00 | 00:00:00 | |
| LZ4TU-5 | 2026-09-01 13:58:28 | 43.30625 | 22.84762 | 99° | 2km/h | 1625m | 0.9m/s | 19.4°C | 96.0% | 0hPa | 0V | 00:00:00 | 00:00:00 | 00:00:00 | |
| LZ4TU-5 | 2026-09-01 13:58:23 | 43.30627 | 22.84760 | 0° | 0km/h | 1622m | 0.2m/s | 19.4°C | 95.5% | 0hPa | 0V | 00:00:00 | 00:00:00 | 00:00:00 | |
| LZ4TU-5 | 2026-09-01 13:58:19 | 43.30627 | 22.84759 | 0° | 0km/h | 1621m | 0.6m/s | 19.1°C | 95.2% | 0hPa | 0V | 00:00:00 | 00:00:00 | 00:00:00 | |
| LZ4TU-5 | 2026-09-01 13:58:13 | 43.30627 | 22.84760 | 0° | 0km/h | 1620m | 0.2m/s | 19.0°C | 95.1% | 0hPa | 0V | 00:00:00 | 00:00:00 | 00:00:00 | |
| LZ4TU-5 | 2026-09-01 13:58:09 | 43.30627 | 22.84760 | 0° | 0km/h | 1621m | -0.5m/s | 18.8°C | 95.7% | 0hPa | 0V | 00:00:00 | 00:00:00 | 00:00:00 | |
| LZ4TU-5 | 2026-09-01 13:56:51 | 43.30624 | 22.84771 | 0° | 0km/h | 1632m | -0.0m/s | 18.9°C | 96.4% | 0hPa | 0V | 00:00:00 | 00:00:00 | 00:00:00 | |
| LZ4TU-5 | 2026-09-01 13:56:46 | 43.30624 | 22.84771 | 0° | 0km/h | 1632m | -0.1m/s | 19.0°C | 96.4% | 0hPa | 0V | 00:00:00 | 00:00:00 | 00:00:00 | |
| LZ4TU-5 | 2026-09-01 13:56:40 | 43.30624 | 22.84772 | 0° | 0km/h | 1633m | 0.0m/s | 19.1°C | 96.4% | 0hPa | 0V | 00:00:00 | 00:00:00 | 00:00:00 | |
| LZ4TU-5 | 2026-09-01 13:56:35 | 43.30624 | 22.84772 | 0° | 0km/h | 1633m | 0.0m/s | 19.0°C | 0% | 0hPa | 0V | 00:00:00 | 00:00:00 | 00:00:00 | |
| LZ4TU-5 | 2026-09-01 13:55:24 | 43.30625 | 22.84770 | 0° | 0km/h | 1638m | 0.2m/s | 19.1°C | 96.6% | 0hPa | 0V | 00:00:00 | 00:00:00 | 00:00:00 | |
| LZ4TU-5 | 2026-09-01 13:55:20 | 43.30625 | 22.84770 | 0° | 0km/h | 1638m | 0.0m/s | 19.2°C | 96.8% | 0hPa | 0V | 00:00:00 | 00:00:00 | 00:00:00 | |
| LZ4TU-5 | 2026-09-01 13:55:15 | 43.30625 | 22.84770 | 0° | 0km/h | 1638m | -0.1m/s | 19.2°C | 0% | 0hPa | 0V | 00:00:00 | 00:00:00 | 00:00:00 | |
| LZ4TU-5 | 2026-09-01 13:54:04 | 43.30625 | 22.84770 | 0° | 0km/h | 1636m | 0.0m/s | 18.9°C | 97.3% | 0hPa | 0V | 00:00:00 | 00:00:00 | 00:00:00 | |
| LZ4TU-5 | 2026-09-01 13:53:59 | 43.30625 | 22.84770 | 0° | 0km/h | 1636m | 0.0m/s | 18.7°C | 97.3% | 0hPa | 0V | 00:00:00 | 00:00:00 | 00:00:00 | |
| LZ4TU-5 | 2026-09-01 13:52:48 | 43.30627 | 22.84769 | 0° | 0km/h | 1634m | -0.1m/s | 18.2°C | 96.7% | 0hPa | 0V | 00:00:00 | 00:00:00 | 00:00:00 | |
| LZ4TU-5 | 2026-09-01 13:52:44 | 43.30627 | 22.84769 | 0° | 0km/h | 1634m | 0.1m/s | 18.2°C | 0% | 0hPa | 0V | 00:00:00 | 00:00:00 | 00:00:00 | |
| LZ4TU-5 | 2026-09-01 13:51:33 | 43.30628 | 22.84769 | 0° | 0km/h | 1632m | 0.1m/s | 18.2°C | 97.1% | 0hPa | 0V | 00:00:00 | 00:00:00 | 00:00:00 | |
| LZ4TU-5 | 2026-09-01 13:51:28 | 43.30627 | 22.84770 | 1° | 2km/h | 1633m | -0.1m/s | 18.1°C | 97.0% | 0hPa | 0V | 00:00:00 | 00:00:00 | 00:00:00 | |
| LZ4TU-5 | 2026-09-01 13:50:17 | 43.30625 | 22.84769 | 0° | 0km/h | 1631m | 0.1m/s | 17.8°C | 96.3% | 0hPa | 0V | 00:00:00 | 00:00:00 | 00:00:00 | |
| LZ4TU-5 | 2026-09-01 13:50:12 | 43.30626 | 22.84770 | 0° | 0km/h | 1633m | 0.0m/s | 17.9°C | 0% | 0hPa | 0V | 00:00:00 | 00:00:00 | 00:00:00 | |
| LZ4TU-5 | 2026-09-01 13:49:01 | 43.30628 | 22.84765 | 0° | 0km/h | 1629m | 0.2m/s | 18.0°C | 96.8% | 0hPa | 0V | 00:00:00 | 00:00:00 | 00:00:00 | |
| LZ4TU-5 | 2026-09-01 13:48:56 | 43.30628 | 22.84766 | 0° | 0km/h | 1629m | 0.3m/s | 18.0°C | 0% | 0hPa | 0V | 00:00:00 | 00:00:00 | 00:00:00 | |
| LZ4TU-5 | 2026-09-01 13:47:43 | 43.30629 | 22.84767 | 0° | 0km/h | 1623m | 0.0m/s | 17.9°C | 96.3% | 0hPa | 0V | 00:00:00 | 00:00:00 | 00:00:00 | |
| LZ4TU-5 | 2026-09-01 13:47:39 | 43.30629 | 22.84767 | 0° | 0km/h | 1623m | 0.2m/s | 17.9°C | 96.4% | 0hPa | 0V | 00:00:00 | 00:00:00 | 00:00:00 | |
| LZ4TU-5 | 2026-09-01 13:47:33 | 43.30630 | 22.84767 | 0° | 0km/h | 1622m | 0.1m/s | 17.9°C | 96.6% | 0hPa | 0V | 00:00:00 | 00:00:00 | 00:00:00 | |
| LZ4TU-5 | 2026-09-01 13:46:21 | 43.30635 | 22.84762 | 0° | 0km/h | 1608m | 0.5m/s | 18.3°C | 96.4% | 0hPa | 0V | 00:00:00 | 00:00:00 | 00:00:00 | |
| LZ4TU-5 | 2026-09-01 13:46:17 | 43.30635 | 22.84762 | 0° | 0km/h | 1608m | 0.3m/s | 18.3°C | 0% | 0hPa | 0V | 00:00:00 | 00:00:00 | 00:00:00 | |
| LZ4TU-5 | 2026-09-01 13:45:05 | 43.30642 | 22.84756 | 217° | 2km/h | 1593m | 0.0m/s | 18.4°C | 96.5% | 0hPa | 0V | 00:00:00 | 00:00:00 | 00:00:00 | |
| LZ4TU-5 | 2026-09-01 13:45:00 | 43.30642 | 22.84756 | 0° | 0km/h | 1594m | 0.0m/s | 18.4°C | 96.4% | 0hPa | 0V | 00:00:00 | 00:00:00 | 00:00:00 | |
| LZ4TU-5 | 2026-09-01 13:43:49 | 43.30647 | 22.84750 | 0° | 0km/h | 1586m | 0.4m/s | 18.2°C | 94.5% | 0hPa | 0V | 00:00:00 | 00:00:00 | 00:00:00 | |
| LZ4TU-5 | 2026-09-01 13:43:44 | 43.30647 | 22.84749 | 0° | 0km/h | 1585m | 0.1m/s | 18.2°C | 0% | 0hPa | 0V | 00:00:00 | 00:00:00 | 00:00:00 | |
| LZ4TU-5 | 2026-09-01 13:42:33 | 43.30649 | 22.84745 | 0° | 0km/h | 1576m | 0.0m/s | 18.8°C | 96.5% | 0hPa | 0V | 00:00:00 | 00:00:00 | 00:00:00 | |
| LZ4TU-5 | 2026-09-01 13:42:29 | 43.30649 | 22.84745 | 0° | 0km/h | 1576m | 0.0m/s | 18.7°C | 96.4% | 0hPa | 0V | 00:00:00 | 00:00:00 | 00:00:00 | |
| LZ4TU-5 | 2026-09-01 13:41:19 | 43.30649 | 22.84745 | 0° | 0km/h | 1576m | 0.0m/s | 18.4°C | 96.4% | 0hPa | 0V | 00:00:00 | 00:00:00 | 00:00:00 | |
| LZ4TU-5 | 2026-09-01 13:41:14 | 43.30649 | 22.84745 | 0° | 0km/h | 1576m | 0.0m/s | 18.4°C | 96.3% | 0hPa | 0V | 00:00:00 | 00:00:00 | 00:00:00 | |
| LZ4TU-5 | 2026-09-01 13:40:04 | 43.30649 | 22.84745 | 0° | 0km/h | 1576m | 0.0m/s | 18.2°C | 95.6% | 0hPa | 0V | 00:00:00 | 00:00:00 | 00:00:00 | |
| LZ4TU-5 | 2026-09-01 13:39:59 | 43.30649 | 22.84745 | 0° | 0km/h | 1576m | 0.0m/s | 18.1°C | 0% | 0hPa | 0V | 00:00:00 | 00:00:00 | 00:00:00 | |
| LZ4TU-5 | 2026-09-01 13:38:48 | 43.30649 | 22.84745 | 0° | 0km/h | 1576m | 0.0m/s | 18.6°C | 95.0% | 0hPa | 0V | 00:00:00 | 00:00:00 | 00:00:00 | |
| LZ4TU-5 | 2026-09-01 13:38:43 | 43.30649 | 22.84745 | 0° | 0km/h | 1576m | 0.0m/s | 18.4°C | 94.5% | 0hPa | 0V | 00:00:00 | 00:00:00 | 00:00:00 | |
| LZ4TU-5 | 2026-09-01 13:37:31 | 43.30649 | 22.84745 | 0° | 0km/h | 1576m | 0.0m/s | 18.7°C | 94.4% | 0hPa | 0V | 00:00:00 | 00:00:00 | 00:00:00 | |
| LZ4TU-5 | 2026-09-01 13:37:26 | 43.30649 | 22.84745 | 0° | 0km/h | 1576m | 0.0m/s | 19.0°C | 0% | 0hPa | 0V | 00:00:00 | 00:00:00 | 00:00:00 | |
| LZ4TU-5 | 2026-09-01 13:36:11 | 43.30649 | 22.84745 | 0° | 0km/h | 1576m | 0.0m/s | 19.4°C | 95.5% | 0hPa | 0V | 00:00:00 | 00:00:00 | 00:00:00 | |
| LZ4TU-5 | 2026-09-01 13:36:06 | 43.30649 | 22.84745 | 0° | 0km/h | 1576m | 0.0m/s | 19.3°C | 0% | 0hPa | 0V | 00:00:00 | 00:00:00 | 00:00:00 | |
| LZ4TU-5 | 2026-09-01 13:34:54 | 43.30649 | 22.84745 | 0° | 0km/h | 1576m | 0.0m/s | 19.0°C | 96.1% | 0hPa | 0V | 00:00:00 | 00:00:00 | 00:00:00 | |
| LZ4TU-5 | 2026-09-01 13:34:49 | 43.30649 | 22.84745 | 0° | 0km/h | 1576m | 0.0m/s | 18.9°C | 96.1% | 0hPa | 0V | 00:00:00 | 00:00:00 | 00:00:00 | |
| LZ4TU-5 | 2026-09-01 13:33:38 | 43.30649 | 22.84745 | 0° | 0km/h | 1576m | 0.0m/s | 18.9°C | 96.4% | 0hPa | 0V | 00:00:00 | 00:00:00 | 00:00:00 | |
| LZ4TU-5 | 2026-09-01 13:33:33 | 43.30649 | 22.84745 | 0° | 0km/h | 1576m | 0.0m/s | 19.0°C | 0% | 0hPa | 0V | 00:00:00 | 00:00:00 | 00:00:00 | |
| LZ4TU-5 | 2026-09-01 13:32:22 | 43.30649 | 22.84745 | 0° | 0km/h | 1576m | 0.0m/s | 18.7°C | 95.9% | 0hPa | 0V | 00:00:00 | 00:00:00 | 00:00:00 | |
| LZ4TU-5 | 2026-09-01 13:32:17 | 43.30649 | 22.84745 | 0° | 0km/h | 1576m | 0.0m/s | 18.6°C | 95.8% | 0hPa | 0V | 00:00:00 | 00:00:00 | 00:00:00 | |
| LZ4TU-5 | 2026-09-01 13:31:06 | 43.30649 | 22.84745 | 0° | 0km/h | 1576m | 0.0m/s | 18.0°C | 95.1% | 0hPa | 0V | 00:00:00 | 00:00:00 | 00:00:00 | |
| LZ4TU-5 | 2026-09-01 13:31:01 | 43.30649 | 22.84745 | 0° | 0km/h | 1576m | 0.0m/s | 18.0°C | 0% | 0hPa | 0V | 00:00:00 | 00:00:00 | 00:00:00 | |
| LZ4TU-5 | 2026-09-01 13:29:49 | 43.30649 | 22.84745 | 0° | 0km/h | 1576m | 0.0m/s | 17.7°C | 94.2% | 0hPa | 0V | 00:00:00 | 00:00:00 | 00:00:00 | |
| LZ4TU-5 | 2026-09-01 13:29:44 | 43.30649 | 22.84745 | 0° | 0km/h | 1576m | 0.0m/s | 17.8°C | 0% | 0hPa | 0V | 00:00:00 | 00:00:00 | 00:00:00 | |
| LZ4TU-5 | 2026-09-01 13:28:32 | 43.30649 | 22.84745 | 0° | 0km/h | 1576m | 0.0m/s | 17.7°C | 95.1% | 0hPa | 0V | 00:00:00 | 00:00:00 | 00:00:00 | |
| LZ4TU-5 | 2026-09-01 13:28:27 | 43.30649 | 22.84745 | 0° | 0km/h | 1576m | 0.0m/s | 17.7°C | 95.2% | 0hPa | 0V | 00:00:00 | 00:00:00 | 00:00:00 | |
| LZ4TU-5 | 2026-09-01 13:27:17 | 43.30649 | 22.84745 | 0° | 0km/h | 1576m | 0.0m/s | 17.8°C | 94.7% | 0hPa | 0V | 00:00:00 | 00:00:00 | 00:00:00 | |
| LZ4TU-5 | 2026-09-01 13:27:12 | 43.30649 | 22.84745 | 0° | 0km/h | 1576m | 0.0m/s | 17.7°C | 0% | 0hPa | 0V | 00:00:00 | 00:00:00 | 00:00:00 | |
| LZ4TU-5 | 2026-09-01 13:26:01 | 43.30649 | 22.84745 | 0° | 0km/h | 1576m | 0.0m/s | 17.7°C | 93.9% | 0hPa | 0V | 00:00:00 | 00:00:00 | 00:00:00 | |
| LZ4TU-5 | 2026-09-01 13:25:56 | 43.30649 | 22.84745 | 0° | 0km/h | 1576m | 0.0m/s | 17.8°C | 93.9% | 0hPa | 0V | 00:00:00 | 00:00:00 | 00:00:00 | |
| LZ4TU-5 | 2026-09-01 13:24:45 | 43.30649 | 22.84745 | 0° | 0km/h | 1576m | 0.0m/s | 17.9°C | 94.5% | 0hPa | 0V | 00:00:00 | 00:00:00 | 00:00:00 | |
| LZ4TU-5 | 2026-09-01 13:24:41 | 43.30649 | 22.84745 | 0° | 0km/h | 1576m | 0.0m/s | 18.0°C | 94.6% | 0hPa | 0V | 00:00:00 | 00:00:00 | 00:00:00 | |
| LZ4TU-5 | 2026-09-01 13:24:36 | 43.30649 | 22.84745 | 0° | 0km/h | 1576m | 0.0m/s | 17.9°C | 0% | 0hPa | 0V | 00:00:00 | 00:00:00 | 00:00:00 | |
| LZ4TU-5 | 2026-09-01 13:23:25 | 43.30649 | 22.84745 | 0° | 0km/h | 1576m | 0.0m/s | 18.0°C | 93.8% | 0hPa | 0V | 00:00:00 | 00:00:00 | 00:00:00 | |
| LZ4TU-5 | 2026-09-01 13:23:21 | 43.30649 | 22.84745 | 0° | 0km/h | 1576m | 0.0m/s | 18.0°C | 0% | 0hPa | 0V | 00:00:00 | 00:00:00 | 00:00:00 | |
| LZ4TU-5 | 2026-09-01 13:22:10 | 43.30649 | 22.84745 | 0° | 0km/h | 1576m | 0.0m/s | 18.0°C | 93.5% | 0hPa | 0V | 00:00:00 | 00:00:00 | 00:00:00 | |
| LZ4TU-5 | 2026-09-01 13:22:05 | 43.30649 | 22.84745 | 0° | 0km/h | 1576m | 0.0m/s | 18.0°C | 93.7% | 0hPa | 0V | 00:00:00 | 00:00:00 | 00:00:00 | |
| LZ4TU-5 | 2026-09-01 13:20:55 | 43.30649 | 22.84745 | 0° | 0km/h | 1576m | 0.0m/s | 18.3°C | 94.1% | 0hPa | 0V | 00:00:00 | 00:00:00 | 00:00:00 | |
| LZ4TU-5 | 2026-09-01 13:20:50 | 43.30649 | 22.84745 | 0° | 0km/h | 1576m | 0.0m/s | 18.3°C | 0% | 0hPa | 0V | 00:00:00 | 00:00:00 | 00:00:00 | |
| LZ4TU-5 | 2026-09-01 13:19:38 | 43.30649 | 22.84745 | 0° | 0km/h | 1576m | 0.0m/s | 18.1°C | 92.6% | 0hPa | 0V | 00:00:00 | 00:00:00 | 00:00:00 | |
| LZ4TU-5 | 2026-09-01 13:19:34 | 43.30649 | 22.84745 | 0° | 0km/h | 1576m | 0.0m/s | 18.2°C | 92.7% | 0hPa | 0V | 00:00:00 | 00:00:00 | 00:00:00 | |
| LZ4TU-5 | 2026-09-01 13:18:20 | 43.30649 | 22.84745 | 0° | 0km/h | 1576m | 0.0m/s | 18.2°C | 91.2% | 0hPa | 0V | 00:00:00 | 00:00:00 | 00:00:00 | |
| LZ4TU-5 | 2026-09-01 13:18:15 | 43.30649 | 22.84745 | 0° | 0km/h | 1576m | 0.0m/s | 18.1°C | 91.2% | 0hPa | 0V | 00:00:00 | 00:00:00 | 00:00:00 | |
| LZ4TU-5 | 2026-09-01 13:18:10 | 43.30649 | 22.84745 | 0° | 0km/h | 1576m | 0.0m/s | 18.2°C | 0% | 0hPa | 0V | 00:00:00 | 00:00:00 | 00:00:00 | |
| LZ4TU-5 | 2026-09-01 13:16:58 | 43.30649 | 22.84745 | 0° | 0km/h | 1576m | 0.0m/s | 18.4°C | 92.5% | 0hPa | 0V | 00:00:00 | 00:00:00 | 00:00:00 | |
| LZ4TU-5 | 2026-09-01 13:16:53 | 43.30649 | 22.84745 | 0° | 0km/h | 1576m | 0.0m/s | 18.5°C | 0% | 0hPa | 0V | 00:00:00 | 00:00:00 | 00:00:00 | |
| LZ4TU-5 | 2026-09-01 13:15:42 | 43.30649 | 22.84745 | 0° | 0km/h | 1576m | 0.0m/s | 18.3°C | 90.4% | 0hPa | 0V | 00:00:00 | 00:00:00 | 00:00:00 | |
| LZ4TU-5 | 2026-09-01 13:15:38 | 43.30649 | 22.84745 | 0° | 0km/h | 1576m | 0.0m/s | 18.3°C | 90.6% | 0hPa | 0V | 00:00:00 | 00:00:00 | 00:00:00 | |
| LZ4TU-5 | 2026-09-01 13:14:27 | 43.30649 | 22.84745 | 0° | 0km/h | 1576m | 0.0m/s | 18.3°C | 91.5% | 0hPa | 0V | 00:00:00 | 00:00:00 | 00:00:00 | |
| LZ4TU-5 | 2026-09-01 13:14:22 | 43.30649 | 22.84745 | 0° | 0km/h | 1576m | 0.0m/s | 18.2°C | 0% | 0hPa | 0V | 00:00:00 | 00:00:00 | 00:00:00 | |
| LZ4TU-5 | 2026-09-01 13:13:11 | 43.30649 | 22.84745 | 0° | 0km/h | 1576m | 0.0m/s | 18.3°C | 92.4% | 0hPa | 0V | 00:00:00 | 00:00:00 | 00:00:00 | |
| LZ4TU-5 | 2026-09-01 13:13:07 | 43.30649 | 22.84745 | 0° | 0km/h | 1576m | 0.0m/s | 18.4°C | 92.4% | 0hPa | 0V | 00:00:00 | 00:00:00 | 00:00:00 | |
| LZ4TU-5 | 2026-09-01 13:11:56 | 43.30649 | 22.84745 | 0° | 0km/h | 1576m | 0.0m/s | 18.5°C | 88.6% | 0hPa | 0V | 00:00:00 | 00:00:00 | 00:00:00 | |
| LZ4TU-5 | 2026-09-01 13:11:51 | 43.30649 | 22.84745 | 0° | 0km/h | 1576m | -0.0m/s | 18.5°C | 88.1% | 0hPa | 0V | 00:00:00 | 00:00:00 | 00:00:00 | |
| LZ4TU-5 | 2026-09-01 13:11:46 | 43.30649 | 22.84745 | 0° | 0km/h | 1576m | -0.1m/s | 18.4°C | 87.5% | 0hPa | 0V | 00:00:00 | 00:00:00 | 00:00:00 | |
| LZ4TU-5 | 2026-09-01 13:11:41 | 43.30650 | 22.84744 | 0° | 0km/h | 1576m | -0.1m/s | 18.4°C | 86.5% | 0hPa | 0V | 00:00:00 | 00:00:00 | 00:00:00 | |
| LZ4TU-5 | 2026-09-01 13:11:36 | 43.30646 | 22.84743 | 305° | 22km/h | 1593m | -13.6m/s | 18.3°C | 85.6% | 0hPa | 0V | 00:00:00 | 00:00:00 | 00:00:00 | |
| LZ4TU-5 | 2026-09-01 13:11:32 | 43.30622 | 22.84776 | 99° | 5km/h | 1645m | -14.3m/s | 18.2°C | 84.3% | 0hPa | 0V | 00:00:00 | 00:00:00 | 00:00:00 | |
| LZ4TU-5 | 2026-09-01 13:11:28 | 43.30625 | 22.84765 | 202° | 11km/h | 1713m | -13.2m/s | 18.3°C | 75.4% | 0hPa | 0V | 00:00:00 | 00:00:00 | 00:00:00 | |
| LZ4TU-5 | 2026-09-01 13:11:22 | 43.30637 | 22.84770 | 190° | 15km/h | 1783m | -13.8m/s | 17.5°C | 77.6% | 0hPa | 0V | 00:00:00 | 00:00:00 | 00:00:00 | |
| LZ4TU-5 | 2026-09-01 13:11:17 | 43.30655 | 22.84773 | 194° | 16km/h | 1854m | -13.5m/s | 16.9°C | 79.3% | 0hPa | 0V | 00:00:00 | 00:00:00 | 00:00:00 | |
| LZ4TU-5 | 2026-09-01 13:11:12 | 43.30675 | 22.84778 | 204° | 16km/h | 1923m | -13.9m/s | 16.3°C | 80.7% | 0hPa | 0V | 00:00:00 | 00:00:00 | 00:00:00 | |
| LZ4TU-5 | 2026-09-01 13:11:08 | 43.30693 | 22.84785 | 189° | 15km/h | 1971m | -13.9m/s | 15.8°C | 83.0% | 0hPa | 0V | 00:00:00 | 00:00:00 | 00:00:00 | |
| LZ4TU-5 | 2026-09-01 13:11:04 | 43.30710 | 22.84790 | 195° | 16km/h | 2032m | -14.6m/s | 15.2°C | 85.6% | 0hPa | 0V | 00:00:00 | 00:00:00 | 00:00:00 | |
| LZ4TU-5 | 2026-09-01 13:10:59 | 43.30732 | 22.84795 | 187° | 22km/h | 2108m | -13.9m/s | 14.5°C | 89.5% | 0hPa | 0V | 00:00:00 | 00:00:00 | 00:00:00 | |
| LZ4TU-5 | 2026-09-01 13:10:54 | 43.30758 | 22.84794 | 179° | 20km/h | 2184m | -14.4m/s | 13.8°C | 93.5% | 0hPa | 0V | 00:00:00 | 00:00:00 | 00:00:00 | |
| LZ4TU-5 | 2026-09-01 13:10:49 | 43.30782 | 22.84793 | 183° | 20km/h | 2261m | -13.7m/s | 12.9°C | 94.6% | 0hPa | 0V | 00:00:00 | 00:00:00 | 00:00:00 | |
| LZ4TU-5 | 2026-09-01 13:10:45 | 43.30800 | 22.84793 | 181° | 18km/h | 2320m | -14.3m/s | 12.5°C | 94.3% | 0hPa | 0V | 00:00:00 | 00:00:00 | 00:00:00 | |
| LZ4TU-5 | 2026-09-01 13:10:40 | 43.30824 | 22.84792 | 177° | 18km/h | 2388m | -15.3m/s | 12.1°C | 93.0% | 0hPa | 0V | 00:00:00 | 00:00:00 | 00:00:00 | |
| LZ4TU-5 | 2026-09-01 13:10:36 | 43.30843 | 22.84790 | 179° | 16km/h | 2441m | -15.1m/s | 11.8°C | 89.1% | 0hPa | 0V | 00:00:00 | 00:00:00 | 00:00:00 | |
| LZ4TU-5 | 2026-09-01 13:10:27 | 43.30873 | 22.84783 | 159° | 13km/h | 2583m | -15.2m/s | 11.4°C | 83.1% | 0hPa | 0V | 00:00:00 | 00:00:00 | 00:00:00 | |
| LZ4TU-5 | 2026-09-01 13:10:22 | 43.30885 | 22.84771 | 133° | 11km/h | 2660m | -14.2m/s | 10.8°C | 83.2% | 0hPa | 0V | 00:00:00 | 00:00:00 | 00:00:00 | |
| LZ4TU-5 | 2026-09-01 13:10:17 | 43.30890 | 22.84749 | 110° | 13km/h | 2736m | -14.8m/s | 10.8°C | 75.8% | 0hPa | 0V | 00:00:00 | 00:00:00 | 00:00:00 | |
| LZ4TU-5 | 2026-09-01 13:10:12 | 43.30895 | 22.84727 | 110° | 13km/h | 2813m | -14.9m/s | 10.4°C | 73.3% | 0hPa | 0V | 00:00:00 | 00:00:00 | 00:00:00 | |
| LZ4TU-5 | 2026-09-01 13:10:07 | 43.30903 | 22.84711 | 106° | 13km/h | 2879m | -15.1m/s | 9.8°C | 74.5% | 0hPa | 0V | 00:00:00 | 00:00:00 | 00:00:00 | |
| LZ4TU-5 | 2026-09-01 13:10:02 | 43.30907 | 22.84688 | 106° | 13km/h | 2960m | -15.7m/s | 9.3°C | 74.3% | 0hPa | 0V | 00:00:00 | 00:00:00 | 00:00:00 | |
| LZ4TU-5 | 2026-09-01 13:09:58 | 43.30908 | 22.84670 | 95° | 13km/h | 3027m | -15.8m/s | 9.0°C | 73.7% | 0hPa | 0V | 00:00:00 | 00:00:00 | 00:00:00 | |
| LZ4TU-5 | 2026-09-01 13:09:54 | 43.30908 | 22.84653 | 93° | 13km/h | 3095m | -15.9m/s | 8.7°C | 72.4% | 0hPa | 0V | 00:00:00 | 00:00:00 | 00:00:00 | |
| LZ4TU-5 | 2026-09-01 13:09:49 | 43.30909 | 22.84632 | 92° | 11km/h | 3179m | -15.7m/s | 8.2°C | 71.0% | 0hPa | 0V | 00:00:00 | 00:00:00 | 00:00:00 | |
| LZ4TU-5 | 2026-09-01 13:09:45 | 43.30909 | 22.84617 | 90° | 13km/h | 3231m | -15.2m/s | 7.7°C | 70.6% | 0hPa | 0V | 00:00:00 | 00:00:00 | 00:00:00 | |
| LZ4TU-5 | 2026-09-01 13:09:40 | 43.30906 | 22.84596 | 76° | 13km/h | 3311m | -15.7m/s | 7.3°C | 71.1% | 0hPa | 0V | 00:00:00 | 00:00:00 | 00:00:00 | |
| LZ4TU-5 | 2026-09-01 13:09:36 | 43.30902 | 22.84579 | 70° | 13km/h | 3379m | -16.8m/s | 6.8°C | 70.6% | 0hPa | 0V | 00:00:00 | 00:00:00 | 00:00:00 | |
| LZ4TU-5 | 2026-09-01 13:09:31 | 43.30897 | 22.84557 | 68° | 15km/h | 3469m | -17.4m/s | 6.4°C | 68.8% | 0hPa | 0V | 00:00:00 | 00:00:00 | 00:00:00 | |
| LZ4TU-5 | 2026-09-01 13:09:26 | 43.30889 | 22.84536 | 63° | 15km/h | 3553m | -16.6m/s | 5.6°C | 71.3% | 0hPa | 0V | 00:00:00 | 00:00:00 | 00:00:00 | |
| LZ4TU-5 | 2026-09-01 13:09:22 | 43.30884 | 22.84514 | 79° | 18km/h | 3617m | -16.4m/s | 5.2°C | 69.6% | 0hPa | 0V | 00:00:00 | 00:00:00 | 00:00:00 | |
| LZ4TU-5 | 2026-09-01 13:09:18 | 43.30881 | 22.84488 | 89° | 20km/h | 3683m | -16.2m/s | 4.6°C | 71.0% | 0hPa | 0V | 00:00:00 | 00:00:00 | 00:00:00 | |
| LZ4TU-5 | 2026-09-01 13:09:14 | 43.30881 | 22.84460 | 92° | 22km/h | 3747m | -16.1m/s | 4.1°C | 71.9% | 0hPa | 0V | 00:00:00 | 00:00:00 | 00:00:00 | |
| LZ4TU-5 | 2026-09-01 13:09:09 | 43.30884 | 22.84423 | 95° | 22km/h | 3815m | -16.3m/s | 3.4°C | 69.0% | 0hPa | 0V | 00:00:00 | 00:00:00 | 00:00:00 | |
| LZ4TU-5 | 2026-09-01 13:09:04 | 43.30886 | 22.84384 | 93° | 24km/h | 3900m | -16.1m/s | 2.8°C | 67.6% | 0hPa | 0V | 00:00:00 | 00:00:00 | 00:00:00 | |
| LZ4TU-5 | 2026-09-01 13:09:00 | 43.30888 | 22.84350 | 94° | 26km/h | 3965m | -15.9m/s | 2.4°C | 67.1% | 0hPa | 0V | 00:00:00 | 00:00:00 | 00:00:00 | |
| LZ4TU-5 | 2026-09-01 13:08:56 | 43.30888 | 22.84314 | 92° | 26km/h | 4030m | -15.5m/s | 2.1°C | 65.4% | 0hPa | 0V | 00:00:00 | 00:00:00 | 00:00:00 | |
| LZ4TU-5 | 2026-09-01 13:08:51 | 43.30886 | 22.84271 | 88° | 26km/h | 4111m | -16.0m/s | 1.8°C | 70.6% | 0hPa | 0V | 00:00:00 | 00:00:00 | 00:00:00 | |
| LZ4TU-5 | 2026-09-01 13:08:46 | 43.30886 | 22.84225 | 94° | 26km/h | 4192m | -16.1m/s | 1.1°C | 72.2% | 0hPa | 0V | 00:00:00 | 00:00:00 | 00:00:00 | |
| LZ4TU-5 | 2026-09-01 13:08:41 | 43.30887 | 22.84183 | 87° | 26km/h | 4269m | -17.4m/s | 0.8°C | 70.5% | 0hPa | 0V | 00:00:00 | 00:00:00 | 00:00:00 | |
| LZ4TU-5 | 2026-09-01 13:08:36 | 43.30884 | 22.84138 | 86° | 27km/h | 4361m | -17.5m/s | 0.1°C | 71.1% | 0hPa | 0V | 00:00:00 | 00:00:00 | 00:00:00 | |
| LZ4TU-5 | 2026-09-01 13:08:31 | 43.30880 | 22.84090 | 81° | 27km/h | 4452m | -17.9m/s | -0.2°C | 70.3% | 0hPa | 0V | 00:00:00 | 00:00:00 | 00:00:00 | |
| LZ4TU-5 | 2026-09-01 13:08:26 | 43.30871 | 22.84039 | 77° | 33km/h | 4545m | -18.7m/s | -1.1°C | 76.0% | 0hPa | 0V | 00:00:00 | 00:00:00 | 00:00:00 | |
| LZ4TU-5 | 2026-09-01 13:08:21 | 43.30865 | 22.83980 | 80° | 35km/h | 4628m | -18.4m/s | -2.0°C | 75.0% | 0hPa | 0V | 00:00:00 | 00:00:00 | 00:00:00 | |
| LZ4TU-5 | 2026-09-01 13:08:16 | 43.30855 | 22.83920 | 80° | 35km/h | 4723m | -18.2m/s | -2.8°C | 78.6% | 0hPa | 0V | 00:00:00 | 00:00:00 | 00:00:00 | |
| LZ4TU-5 | 2026-09-01 13:08:12 | 43.30848 | 22.83874 | 83° | 35km/h | 4797m | -17.7m/s | -3.4°C | 82.3% | 0hPa | 0V | 00:00:00 | 00:00:00 | 00:00:00 | |
| LZ4TU-5 | 2026-09-01 13:08:07 | 43.30844 | 22.83812 | 86° | 37km/h | 4885m | -16.5m/s | -4.2°C | 78.8% | 0hPa | 0V | 00:00:00 | 00:00:00 | 00:00:00 | |
| LZ4TU-5 | 2026-09-01 13:06:50 | 43.31064 | 22.82916 | 116° | 37km/h | 6236m | -18.2m/s | -10.6°C | 7.9% | 0hPa | 0V | 00:00:00 | 00:00:00 | 00:00:00 | |
| LZ4TU-5 | 2026-09-01 13:06:45 | 43.31083 | 22.82857 | 112° | 37km/h | 6327m | -18.5m/s | -11.2°C | 8.1% | 0hPa | 0V | 00:00:00 | 00:00:00 | 00:00:00 | |
| LZ4TU-5 | 2026-09-01 13:05:27 | 43.31411 | 22.81466 | 103° | 68km/h | 7812m | -18.5m/s | -21.3°C | 20.6% | 0hPa | 0V | 00:00:00 | 00:00:00 | 00:00:00 | |
| LZ4TU-5 | 2026-09-01 13:05:23 | 43.31425 | 22.81373 | 101° | 73km/h | 7885m | -19.0m/s | -21.8°C | 0% | 0hPa | 0V | 00:00:00 | 00:00:00 | 00:00:00 | |
| LZ4TU-5 | 2026-09-01 13:04:06 | 43.31648 | 22.79238 | 99° | 97km/h | 9363m | -19.8m/s | -32.3°C | 11.2% | 0hPa | 0V | 00:00:00 | 00:00:00 | 00:00:00 | |
| LZ4TU-5 | 2026-09-01 13:04:01 | 43.31665 | 22.79066 | 100° | 100km/h | 9469m | -21.1m/s | -33.0°C | 0% | 0hPa | 0V | 00:00:00 | 00:00:00 | 00:00:00 | |
| LZ4TU-5 | 2026-09-01 13:00:07 | 43.32059 | 22.70643 | 87° | 55km/h | 15462m | -30.4m/s | -60.3°C | 0.4% | 0hPa | 0V | 00:00:00 | 00:00:00 | 00:00:00 | |
| LZ4TU-5 | 2026-09-01 13:00:03 | 43.32051 | 22.70567 | 73° | 55km/h | 15588m | -31.8m/s | -60.4°C | 0.3% | 0hPa | 0V | 00:00:00 | 00:00:00 | 00:00:00 | |
| LZ4TU-5 | 2026-09-01 12:55:09 | 43.31538 | 22.69003 | 341° | 15km/h | 29833m | -75.5m/s | -40.6°C | 1.8% | 0hPa | 0V | 00:00:00 | 00:00:00 | 00:00:00 | |
| LZ4TU-5 | 2026-09-01 12:55:02 | 43.31522 | 22.69013 | 307° | 11km/h | 30364m | -76.6m/s | -40.8°C | 2.1% | 0hPa | 0V | 00:00:00 | 00:00:00 | 00:00:00 | |
| LZ4TU-5 | 2026-09-01 12:54:57 | 43.31512 | 22.69029 | 312° | 11km/h | 30744m | -74.9m/s | -40.8°C | 2.2% | 0hPa | 0V | 00:00:00 | 00:00:00 | 00:00:00 | |
| LZ4TU-5 | 2026-09-01 12:54:52 | 43.31500 | 22.69039 | 355° | 15km/h | 31133m | -78.0m/s | -40.2°C | 2.3% | 0hPa | 0V | 00:00:00 | 00:00:00 | 00:00:00 | |
| LZ4TU-5 | 2026-09-01 12:50:20 | 43.30612 | 22.69825 | 38° | 13km/h | 30564m | 6.1m/s | -41.2°C | 2.8% | 0hPa | 0V | 00:00:00 | 00:00:00 | 00:00:00 | |
| LZ4TU-5 | 2026-09-01 12:50:15 | 43.30612 | 22.69832 | 295° | 26km/h | 30531m | 7.4m/s | -41.2°C | 2.8% | 0hPa | 0V | 00:00:00 | 00:00:00 | 00:00:00 | |
| LZ4TU-5 | 2026-09-01 12:48:07 | 43.30084 | 22.69960 | 333° | 24km/h | 29664m | 6.4m/s | -42.0°C | 2.7% | 0hPa | 0V | 00:00:00 | 00:00:00 | 00:00:00 | |
| LZ4TU-5 | 2026-09-01 12:48:02 | 43.30070 | 22.69970 | 340° | 13km/h | 29631m | 7.6m/s | -42.1°C | 2.6% | 0hPa | 0V | 00:00:00 | 00:00:00 | 00:00:00 | |
| LZ4TU-5 | 2026-09-01 12:46:01 | 43.29930 | 22.69642 | 57° | 15km/h | 28859m | 5.9m/s | -42.6°C | 2.5% | 0hPa | 0V | 00:00:00 | 00:00:00 | 00:00:00 | |
| LZ4TU-5 | 2026-09-01 12:43:11 | 43.29668 | 22.69661 | 339° | 16km/h | 27752m | 7.7m/s | -44.4°C | 2.3% | 0hPa | 0V | 00:00:00 | 00:00:00 | 00:00:00 | |
| LZ4TU-5 | 2026-09-01 12:43:06 | 43.29645 | 22.69674 | 0° | 0km/h | 27719m | 6.7m/s | -44.4°C | 2.3% | 0hPa | 0V | 00:00:00 | 00:00:00 | 00:00:00 | |
| LZ4TU-5 | 2026-09-01 12:40:55 | 43.29805 | 22.70298 | 203° | 24km/h | 26896m | 6.5m/s | -45.6°C | 2.1% | 0hPa | 0V | 00:00:00 | 00:00:00 | 00:00:00 | |
| LZ4TU-5 | 2026-09-01 12:40:51 | 43.29832 | 22.70302 | 157° | 26km/h | 26870m | 7.6m/s | -46.1°C | 2.2% | 0hPa | 0V | 00:00:00 | 00:00:00 | 00:00:00 | |
| LZ4TU-5 | 2026-09-01 12:38:38 | 43.29962 | 22.70080 | 334° | 20km/h | 26035m | 6.6m/s | -47.8°C | 1.9% | 0hPa | 0V | 00:00:00 | 00:00:00 | 00:00:00 | |
| LZ4TU-5 | 2026-09-01 12:38:33 | 43.29947 | 22.70088 | 36° | 5km/h | 26005m | 6.4m/s | -47.9°C | 1.9% | 0hPa | 0V | 00:00:00 | 00:00:00 | 00:00:00 | |
| LZ4TU-5 | 2026-09-01 12:36:35 | 43.29977 | 22.69971 | 47° | 13km/h | 25256m | 7.7m/s | -49.1°C | 1.9% | 0hPa | 0V | 00:00:00 | 00:00:00 | 00:00:00 | |
| LZ4TU-5 | 2026-09-01 12:36:30 | 43.29969 | 22.69946 | 91° | 29km/h | 25225m | 5.9m/s | -49.1°C | 1.9% | 0hPa | 0V | 00:00:00 | 00:00:00 | 00:00:00 | |
| LZ4TU-5 | 2026-09-01 12:34:38 | 43.29761 | 22.69918 | 302° | 11km/h | 24515m | 7.1m/s | -49.9°C | 1.8% | 0hPa | 0V | 00:00:00 | 00:00:00 | 00:00:00 | |
| LZ4TU-5 | 2026-09-01 12:34:32 | 43.29767 | 22.69930 | 0° | 0km/h | 24482m | 5.2m/s | -49.8°C | 1.8% | 0hPa | 0V | 00:00:00 | 00:00:00 | 00:00:00 | |
| LZ4TU-5 | 2026-09-01 12:32:41 | 43.29834 | 22.69899 | 293° | 11km/h | 23815m | 5.0m/s | -50.1°C | 1.8% | 0hPa | 0V | 00:00:00 | 00:00:00 | 00:00:00 | |
| LZ4TU-5 | 2026-09-01 12:32:36 | 43.29829 | 22.69893 | 74° | 15km/h | 23791m | 5.4m/s | -50.2°C | 1.8% | 0hPa | 0V | 00:00:00 | 00:00:00 | 00:00:00 | |
| LZ4TU-5 | 2026-09-01 12:30:43 | 43.29521 | 22.69712 | 351° | 9km/h | 23104m | 7.2m/s | -51.6°C | 2.0% | 0hPa | 0V | 00:00:00 | 00:00:00 | 00:00:00 | |
| LZ4TU-5 | 2026-09-01 12:30:38 | 43.29501 | 22.69712 | 46° | 22km/h | 23075m | 6.2m/s | -51.7°C | 2.0% | 0hPa | 0V | 00:00:00 | 00:00:00 | 00:00:00 | |
| LZ4TU-5 | 2026-09-01 12:28:43 | 43.29196 | 22.69912 | 41° | 11km/h | 22391m | 6.9m/s | -52.5°C | 2.0% | 0hPa | 0V | 00:00:00 | 00:00:00 | 00:00:00 | |
| LZ4TU-5 | 2026-09-01 12:28:39 | 43.29197 | 22.69913 | 218° | 7km/h | 22360m | 5.6m/s | -52.4°C | 0% | 0hPa | 0V | 00:00:00 | 00:00:00 | 00:00:00 | |
| LZ4TU-5 | 2026-09-01 12:26:45 | 43.28943 | 22.70093 | 48° | 13km/h | 21705m | 6.9m/s | -53.1°C | 1.5% | 0hPa | 0V | 00:00:00 | 00:00:00 | 00:00:00 | |
| LZ4TU-5 | 2026-09-01 12:26:41 | 43.28936 | 22.70092 | 0° | 0km/h | 21683m | 3.5m/s | -53.2°C | 1.5% | 0hPa | 0V | 00:00:00 | 00:00:00 | 00:00:00 | |
| LZ4TU-5 | 2026-09-01 12:24:49 | 43.28845 | 22.69427 | 67° | 26km/h | 21045m | 4.8m/s | -56.1°C | 1.9% | 0hPa | 0V | 00:00:00 | 00:00:00 | 00:00:00 | |
| LZ4TU-5 | 2026-09-01 12:24:45 | 43.28836 | 22.69398 | 37° | 31km/h | 21016m | 8.3m/s | -56.3°C | 2.0% | 0hPa | 0V | 00:00:00 | 00:00:00 | 00:00:00 | |
| LZ4TU-5 | 2026-09-01 12:22:50 | 43.28393 | 22.68899 | 64° | 20km/h | 20362m | 6.2m/s | -55.4°C | 1.8% | 0hPa | 0V | 00:00:00 | 00:00:00 | 00:00:00 | |
| LZ4TU-5 | 2026-09-01 12:22:46 | 43.28386 | 22.68876 | 41° | 16km/h | 20341m | 5.3m/s | -55.3°C | 1.7% | 0hPa | 0V | 00:00:00 | 00:00:00 | 00:00:00 | |
| LZ4TU-5 | 2026-09-01 12:20:54 | 43.28118 | 22.67909 | 42° | 26km/h | 19700m | 4.8m/s | -55.5°C | 1.8% | 0hPa | 0V | 00:00:00 | 00:00:00 | 00:00:00 | |
| LZ4TU-5 | 2026-09-01 12:20:49 | 43.28083 | 22.67883 | 16° | 35km/h | 19673m | 5.4m/s | -55.7°C | 1.8% | 0hPa | 0V | 00:00:00 | 00:00:00 | 00:00:00 | |
| LZ4TU-5 | 2026-09-01 12:18:51 | 43.27764 | 22.67508 | 47° | 33km/h | 19031m | 6.0m/s | -56.0°C | 2.5% | 0hPa | 0V | 00:00:00 | 00:00:00 | 00:00:00 | |
| LZ4TU-5 | 2026-09-01 12:18:46 | 43.27731 | 22.67462 | 34° | 35km/h | 19003m | 5.4m/s | -55.8°C | 2.5% | 0hPa | 0V | 00:00:00 | 00:00:00 | 00:00:00 | |
| LZ4TU-5 | 2026-09-01 12:16:56 | 43.27146 | 22.66486 | 36° | 47km/h | 18382m | 5.1m/s | -56.0°C | 2.0% | 0hPa | 0V | 00:00:00 | 00:00:00 | 00:00:00 | |
| LZ4TU-5 | 2026-09-01 12:16:51 | 43.27108 | 22.66464 | 19° | 35km/h | 18360m | 5.5m/s | -55.9°C | 1.9% | 0hPa | 0V | 00:00:00 | 00:00:00 | 00:00:00 | |
| LZ4TU-5 | 2026-09-01 12:15:00 | 43.26754 | 22.65293 | 62° | 24km/h | 17752m | 5.2m/s | -59.2°C | 2.7% | 0hPa | 0V | 00:00:00 | 00:00:00 | 00:00:00 | |
| LZ4TU-5 | 2026-09-01 12:14:54 | 43.26740 | 22.65252 | 64° | 33km/h | 17726m | 5.3m/s | -59.1°C | 2.8% | 0hPa | 0V | 00:00:00 | 00:00:00 | 00:00:00 | |
| LZ4TU-5 | 2026-09-01 12:12:57 | 43.26526 | 22.64079 | 88° | 22km/h | 17099m | 4.8m/s | -56.8°C | 3.2% | 0hPa | 0V | 00:00:00 | 00:00:00 | 00:00:00 | |
| LZ4TU-5 | 2026-09-01 12:12:54 | 43.26534 | 22.64039 | 113° | 40km/h | 17077m | 6.2m/s | -56.8°C | 3.2% | 0hPa | 0V | 00:00:00 | 00:00:00 | 00:00:00 | |
| LZ4TU-5 | 2026-09-01 12:10:52 | 43.26590 | 22.62226 | 86° | 73km/h | 16447m | 5.0m/s | -60.7°C | 4.5% | 0hPa | 0V | 00:00:00 | 00:00:00 | 00:00:00 | |
| LZ4TU-5 | 2026-09-01 12:10:47 | 43.26582 | 22.62092 | 88° | 71km/h | 16423m | 5.8m/s | -61.1°C | 4.6% | 0hPa | 0V | 00:00:00 | 00:00:00 | 00:00:00 | |
| LZ4TU-5 | 2026-09-01 12:08:56 | 43.26081 | 22.59603 | 51° | 62km/h | 15856m | 4.9m/s | -59.7°C | 6.2% | 0hPa | 0V | 00:00:00 | 00:00:00 | 00:00:00 | |
| LZ4TU-5 | 2026-09-01 12:08:52 | 43.26048 | 22.59519 | 75° | 64km/h | 15827m | 6.1m/s | -59.5°C | 6.1% | 0hPa | 0V | 00:00:00 | 00:00:00 | 00:00:00 | |
| LZ4TU-5 | 2026-09-01 12:06:57 | 43.25881 | 22.57251 | 89° | 78km/h | 15194m | 5.3m/s | -61.6°C | 8.3% | 0hPa | 0V | 00:00:00 | 00:00:00 | 00:00:00 | |
| LZ4TU-5 | 2026-09-01 12:06:52 | 43.25882 | 22.57117 | 91° | 84km/h | 15167m | 5.1m/s | -61.4°C | 8.3% | 0hPa | 0V | 00:00:00 | 00:00:00 | 00:00:00 | |
| LZ4TU-5 | 2026-09-01 12:05:07 | 43.25946 | 22.54521 | 95° | 69km/h | 14675m | 4.1m/s | -61.3°C | 13.5% | 0hPa | 0V | 00:00:00 | 00:00:00 | 00:00:00 | |
| LZ4TU-5 | 2026-09-01 12:05:02 | 43.25951 | 22.54394 | 91° | 75km/h | 14652m | 5.1m/s | -61.3°C | 0% | 0hPa | 0V | 00:00:00 | 00:00:00 | 00:00:00 | |
| LZ4TU-5 | 2026-09-01 12:03:11 | 43.26005 | 22.50990 | 81° | 89km/h | 14064m | 6.1m/s | -61.5°C | 16.7% | 0hPa | 0V | 00:00:00 | 00:00:00 | 00:00:00 | |
| LZ4TU-5 | 2026-09-01 12:03:04 | 43.25986 | 22.50816 | 88° | 102km/h | 14038m | 3.5m/s | -61.9°C | 0% | 0hPa | 0V | 00:00:00 | 00:00:00 | 00:00:00 | |
| LZ4TU-5 | 2026-09-01 12:01:22 | 43.26028 | 22.47441 | 96° | 99km/h | 13558m | 4.8m/s | -60.4°C | 18.3% | 0hPa | 0V | 00:00:00 | 00:00:00 | 00:00:00 | |
| LZ4TU-5 | 2026-09-01 12:01:17 | 43.26036 | 22.47269 | 96° | 102km/h | 13534m | 4.3m/s | -60.4°C | 18.3% | 0hPa | 0V | 00:00:00 | 00:00:00 | 00:00:00 | |
| LZ4TU-5 | 2026-09-01 11:59:28 | 43.26329 | 22.43117 | 95° | 111km/h | 13027m | 4.7m/s | -58.2°C | 19.1% | 0hPa | 0V | 00:00:00 | 00:00:00 | 00:00:00 | |
| LZ4TU-5 | 2026-09-01 11:59:22 | 43.26341 | 22.42929 | 93° | 115km/h | 13006m | 4.1m/s | -58.1°C | 19.3% | 0hPa | 0V | 00:00:00 | 00:00:00 | 00:00:00 | |
| LZ4TU-5 | 2026-09-01 11:57:34 | 43.26579 | 22.38711 | 97° | 113km/h | 12495m | 5.2m/s | -54.8°C | 19.0% | 0hPa | 0V | 00:00:00 | 00:00:00 | 00:00:00 | |
| LZ4TU-5 | 2026-09-01 11:57:30 | 43.26588 | 22.38552 | 92° | 117km/h | 12477m | 4.2m/s | -55.0°C | 19.2% | 0hPa | 0V | 00:00:00 | 00:00:00 | 00:00:00 | |
| LZ4TU-5 | 2026-09-01 11:55:42 | 43.26765 | 22.34173 | 84° | 119km/h | 11959m | 4.3m/s | -51.3°C | 17.1% | 0hPa | 0V | 00:00:00 | 00:00:00 | 00:00:00 | |
| LZ4TU-5 | 2026-09-01 11:55:37 | 43.26760 | 22.33962 | 93° | 124km/h | 11934m | 5.2m/s | -51.2°C | 17.1% | 0hPa | 0V | 00:00:00 | 00:00:00 | 00:00:00 | |
| LZ4TU-5 | 2026-09-01 11:53:53 | 43.26821 | 22.29705 | 88° | 119km/h | 11444m | 3.8m/s | -47.1°C | 16.1% | 0hPa | 0V | 00:00:00 | 00:00:00 | 00:00:00 | |
| LZ4TU-5 | 2026-09-01 11:53:50 | 43.26818 | 22.29549 | 92° | 117km/h | 11426m | 4.4m/s | -46.9°C | 15.9% | 0hPa | 0V | 00:00:00 | 00:00:00 | 00:00:00 | |
| LZ4TU-5 | 2026-09-01 11:52:07 | 43.26946 | 22.25249 | 95° | 113km/h | 10954m | 4.2m/s | -44.1°C | 15.5% | 0hPa | 0V | 00:00:00 | 00:00:00 | 00:00:00 | |
| LZ4TU-5 | 2026-09-01 11:52:01 | 43.26961 | 22.25056 | 99° | 119km/h | 10934m | 3.4m/s | -43.9°C | 15.4% | 0hPa | 0V | 00:00:00 | 00:00:00 | 00:00:00 | |
| LZ4TU-5 | 2026-09-01 11:50:19 | 43.27189 | 22.21184 | 94° | 110km/h | 10521m | 3.9m/s | -41.4°C | 17.1% | 0hPa | 0V | 00:00:00 | 00:00:00 | 00:00:00 | |
| LZ4TU-5 | 2026-09-01 11:50:15 | 43.27202 | 22.20996 | 98° | 106km/h | 10498m | 4.7m/s | -41.4°C | 17.4% | 0hPa | 0V | 00:00:00 | 00:00:00 | 00:00:00 | |
| LZ4TU-5 | 2026-09-01 11:48:29 | 43.27527 | 22.17183 | 93° | 115km/h | 10035m | 5.7m/s | -38.0°C | 17.5% | 0hPa | 0V | 00:00:00 | 00:00:00 | 00:00:00 | |
| LZ4TU-5 | 2026-09-01 11:48:24 | 43.27539 | 22.16992 | 95° | 106km/h | 10012m | 4.8m/s | -37.8°C | 17.5% | 0hPa | 0V | 00:00:00 | 00:00:00 | 00:00:00 | |
| LZ4TU-5 | 2026-09-01 11:46:39 | 43.27793 | 22.13138 | 99° | 108km/h | 9553m | 4.8m/s | -34.2°C | 12.4% | 0hPa | 0V | 00:00:00 | 00:00:00 | 00:00:00 | |
| LZ4TU-5 | 2026-09-01 11:46:35 | 43.27801 | 22.12992 | 95° | 106km/h | 9537m | 3.4m/s | -34.1°C | 12.1% | 0hPa | 0V | 00:00:00 | 00:00:00 | 00:00:00 | |
| LZ4TU-5 | 2026-09-01 11:44:53 | 43.28042 | 22.09770 | 94° | 80km/h | 9064m | 4.5m/s | -31.3°C | 14.7% | 0hPa | 0V | 00:00:00 | 00:00:00 | 00:00:00 | |
| LZ4TU-5 | 2026-09-01 11:44:49 | 43.28047 | 22.09659 | 97° | 80km/h | 9049m | 4.1m/s | -31.2°C | 14.8% | 0hPa | 0V | 00:00:00 | 00:00:00 | 00:00:00 | |
| LZ4TU-5 | 2026-09-01 11:43:12 | 43.28362 | 22.06960 | 113° | 82km/h | 8638m | 4.0m/s | -28.4°C | 18.3% | 0hPa | 0V | 00:00:00 | 00:00:00 | 00:00:00 | |
| LZ4TU-5 | 2026-09-01 11:43:07 | 43.28380 | 22.06832 | 92° | 75km/h | 8616m | 4.3m/s | -28.2°C | 18.1% | 0hPa | 0V | 00:00:00 | 00:00:00 | 00:00:00 | |
| LZ4TU-5 | 2026-09-01 11:41:28 | 43.28629 | 22.04317 | 94° | 69km/h | 8125m | 7.6m/s | -24.4°C | 0% | 0hPa | 0V | 00:00:00 | 00:00:00 | 00:00:00 | |
| LZ4TU-5 | 2026-09-01 11:41:23 | 43.28626 | 22.04192 | 89° | 75km/h | 8091m | 4.6m/s | -24.2°C | 21.3% | 0hPa | 0V | 00:00:00 | 00:00:00 | 00:00:00 | |
| LZ4TU-5 | 2026-09-01 11:39:51 | 43.28812 | 22.02202 | 99° | 73km/h | 7611m | 2.5m/s | -20.7°C | 22.1% | 0hPa | 0V | 00:00:00 | 00:00:00 | 00:00:00 | |
| LZ4TU-5 | 2026-09-01 11:39:46 | 43.28824 | 22.02123 | 109° | 29km/h | 7589m | 2.5m/s | -20.5°C | 21.5% | 0hPa | 0V | 00:00:00 | 00:00:00 | 00:00:00 | |
| LZ4TU-5 | 2026-09-01 11:38:13 | 43.29064 | 22.00338 | 108° | 55km/h | 7101m | 6.0m/s | -16.3°C | 7.9% | 0hPa | 0V | 00:00:00 | 00:00:00 | 00:00:00 | |
| LZ4TU-5 | 2026-09-01 11:38:10 | 43.29075 | 22.00269 | 92° | 47km/h | 7079m | 4.2m/s | -16.1°C | 7.6% | 0hPa | 0V | 00:00:00 | 00:00:00 | 00:00:00 | |
| LZ4TU-5 | 2026-09-01 11:36:17 | 43.29161 | 21.98762 | 77° | 42km/h | 6509m | 4.7m/s | -12.3°C | 8.3% | 0hPa | 0V | 00:00:00 | 00:00:00 | 00:00:00 | |
| LZ4TU-5 | 2026-09-01 11:36:13 | 43.29156 | 21.98697 | 94° | 40km/h | 6491m | 5.7m/s | -12.3°C | 8.4% | 0hPa | 0V | 00:00:00 | 00:00:00 | 00:00:00 | |
| LZ4TU-5 | 2026-09-01 11:34:55 | 43.29216 | 21.97908 | 90° | 22km/h | 6101m | 5.7m/s | -9.5°C | 7.6% | 0hPa | 0V | 00:00:00 | 00:00:00 | 00:00:00 | |
| LZ4TU-5 | 2026-09-01 11:34:50 | 43.29235 | 21.97852 | 136° | 29km/h | 6075m | 4.4m/s | -9.3°C | 7.8% | 0hPa | 0V | 00:00:00 | 00:00:00 | 00:00:00 | |
| LZ4TU-5 | 2026-09-01 11:32:49 | 43.29459 | 21.96467 | 101° | 26km/h | 5446m | 8.0m/s | -5.4°C | 8.3% | 0hPa | 0V | 00:00:00 | 00:00:00 | 00:00:00 | |
| LZ4TU-5 | 2026-09-01 11:32:43 | 43.29470 | 21.96419 | 107° | 53km/h | 5419m | 5.0m/s | -5.1°C | 7.9% | 0hPa | 0V | 00:00:00 | 00:00:00 | 00:00:00 | |
| LZ4TU-5 | 2026-09-01 11:31:34 | 43.29650 | 21.95570 | 129° | 53km/h | 5066m | 4.5m/s | -3.0°C | 11.8% | 0hPa | 0V | 00:00:00 | 00:00:00 | 00:00:00 | |
| LZ4TU-5 | 2026-09-01 11:31:29 | 43.29666 | 21.95522 | 73° | 38km/h | 5037m | 5.2m/s | -2.7°C | 11.8% | 0hPa | 0V | 00:00:00 | 00:00:00 | 00:00:00 | |
| LZ4TU-5 | 2026-09-01 11:30:19 | 43.29805 | 21.94601 | 85° | 35km/h | 4654m | 5.1m/s | -0.3°C | 16.5% | 0hPa | 0V | 00:00:00 | 00:00:00 | 00:00:00 | |
| LZ4TU-5 | 2026-09-01 11:30:14 | 43.29806 | 21.94560 | 140° | 26km/h | 4630m | 6.4m/s | -0.4°C | 19.5% | 0hPa | 0V | 00:00:00 | 00:00:00 | 00:00:00 | |
| LZ4TU-5 | 2026-09-01 11:29:05 | 43.29865 | 21.93815 | 87° | 37km/h | 4253m | 5.4m/s | -0.1°C | 30.7% | 0hPa | 0V | 00:00:00 | 00:00:00 | 00:00:00 | |
| LZ4TU-5 | 2026-09-01 11:29:01 | 43.29847 | 21.93758 | 55° | 22km/h | 4230m | 3.2m/s | -0.1°C | 28.7% | 0hPa | 0V | 00:00:00 | 00:00:00 | 00:00:00 | |
| LZ4TU-5 | 2026-09-01 11:27:43 | 43.29830 | 21.93200 | 141° | 27km/h | 3826m | 5.2m/s | 2.3°C | 40.5% | 0hPa | 0V | 00:00:00 | 00:00:00 | 00:00:00 | |
| LZ4TU-5 | 2026-09-01 11:27:38 | 43.29837 | 21.93139 | 63° | 37km/h | 3797m | 4.8m/s | 2.5°C | 40.6% | 0hPa | 0V | 00:00:00 | 00:00:00 | 00:00:00 | |
| LZ4TU-5 | 2026-09-01 11:26:30 | 43.29902 | 21.92660 | 43° | 7km/h | 3443m | 6.7m/s | 5.2°C | 42.5% | 0hPa | 0V | 00:00:00 | 00:00:00 | 00:00:00 | |
| LZ4TU-5 | 2026-09-01 11:26:20 | 43.29919 | 21.92614 | 106° | 35km/h | 3387m | 3.5m/s | 5.9°C | 42.2% | 0hPa | 0V | 00:00:00 | 00:00:00 | 00:00:00 |